GFSMW_sfc_30mbdewp_000.txt.gz
Dewpoint
38 40 41 43 44 45 44 43 43 45 52 58 58 58 58 59 59 58 57 56 55 54 54 54 54 55 54 54 54 53 52 52 53 52 52 52 52 52 51 51 50 49 48
37 39 40 41 42 42 44 44 43 45 50 55 57 58 58 59 59 60 59 59 58 57 56 55 55 55 55 55 55 54 53 53 53 52 52 50 51 52 52 52 51 50 50
37 39 40 42 42 41 40 41 43 46 47 53 56 57 58 58 57 58 58 59 60 60 59 58 57 57 56 56 56 56 54 54 55 53 53 51 49 49 49 50 51 52 51
38 40 41 41 41 41 41 41 41 41 42 46 48 49 50 50 52 54 55 54 56 57 59 59 59 59 58 57 57 57 57 56 55 56 54 54 54 51 50 51 49 49 50
39 40 40 41 42 42 42 41 41 41 41 40 41 41 41 46 47 47 45 46 48 50 52 55 58 59 59 59 59 59 58 58 57 57 56 55 54 54 53 51 51 51 50
39 40 41 41 41 41 41 41 41 41 41 41 41 40 40 40 41 41 42 43 44 46 45 45 47 53 58 59 60 60 60 60 59 59 58 57 55 54 54 53 53 52 53
38 39 39 40 40 40 40 40 41 41 41 41 41 42 42 42 42 42 42 42 42 42 42 42 42 42 43 46 52 57 59 60 59 58 57 57 58 57 56 55 54 54 54
37 38 39 40 40 40 40 40 40 41 41 42 42 42 43 43 43 43 43 43 42 43 42 42 42 42 42 42 43 45 48 51 54 56 56 56 56 56 56 56 55 53 53
37 38 39 39 39 39 39 39 41 42 42 42 43 43 43 42 42 42 42 42 42 41 41 42 42 42 42 42 42 42 43 44 45 47 49 52 53 54 55 56 55 53 50
37 38 39 39 39 39 40 41 42 42 42 42 42 42 42 41 40 40 39 39 39 39 40 40 40 41 42 42 42 42 42 43 43 44 45 46 48 50 52 54 55 54 53
37 38 38 39 39 41 42 41 40 38 37 39 39 39 40 39 39 37 37 36 36 36 36 37 38 39 40 39 39 39 39 40 41 44 43 46 47 48 50 51 52 52 52
37 38 38 40 41 41 40 39 37 35 35 36 36 36 38 35 33 32 31 32 32 32 33 34 35 35 33 35 38 38 38 40 36 38 42 44 46 47 48 49 49 49 50
38 35 37 41 41 40 38 36 34 32 33 34 32 33 31 28 27 27 27 28 28 29 29 30 30 29 31 35 34 37 37 35 38 39 42 44 45 43 44 46 46 47 48
34 33 39 41 39 37 35 32 30 28 30 29 28 29 25 25 25 25 24 24 25 25 25 25 23 26 32 28 32 35 32 37 37 43 44 41 37 38 42 44 44 45 46
32 35 41 39 37 34 31 28 26 25 25 23 25 22 21 21 21 21 20 21 21 21 22 20 20 23 28 21 32 28 28 33 39 36 32 34 35 39 43 36 35 41 43
32 40 40 36 34 32 28 26 24 23 22 21 18 16 14 14 15 16 16 17 17 17 18 18 18 24 16 22 28 28 28 35 31 27 26 32 32 38 31 31 36 40 41
38 39 36 35 32 27 25 24 22 20 15 17 11 10 11 11 12 12 13 14 13 15 15 15 16 13 15 21 24 29 26 22 24 22 22 25 32 32 26 30 34 34 37
38 36 34 31 28 24 23 20 17 12 8 10 9 10 10 10 11 11 11 11 11 12 12 14 12 13 11 18 24 28 18 13 16 23 23 29 32 30 31 32 32 33 35
36 34 31 29 25 21 17 12 8 6 6 8 9 10 11 11 11 11 11 11 11 11 12 11 11 11 11 17 23 22 17 20 22 23 25 30 30 31 31 31 32 34 35
33 31 29 24 20 14 8 5 5 5 5 8 9 11 12 12 11 11 11 12 12 12 12 12 12 12 11 16 16 19 19 21 22 23 26 30 29 29 29 30 32 34 36
31 27 25 20 14 7 6 5 6 5 7 9 11 12 12 12 12 12 13 14 14 14 14 13 12 12 14 17 20 22 23 23 24 25 27 27 27 27 29 31 34 35 36
27 23 19 13 8 8 7 6 6 7 9 10 12 12 13 13 13 14 15 15 15 14 14 14 14 16 19 21 22 24 24 24 26 27 26 26 27 30 32 32 34 34 34
21 16 14 11 8 8 9 7 8 9 10 12 12 13 13 13 13 15 15 15 15 14 15 15 18 20 21 22 23 23 24 27 26 25 27 24 29 27 27 28 31 32 32
16 13 9 7 7 9 9 9 10 11 12 12 13 13 13 14 14 14 15 15 15 15 16 19 20 21 22 23 23 24 26 25 27 28 23 26 23 23 24 26 28 30 31
15 10 8 8 9 10 9 10 11 12 12 13 13 13 14 14 15 15 15 15 16 18 20 21 21 21 23 23 24 22 22 29 25 20 23 23 22 22 24 25 27 29 30
10 8 9 10 9 10 10 11 12 13 13 13 13 14 15 15 15 15 15 17 19 20 20 20 20 20 21 22 20 21 27 27 19 20 21 21 20 22 23 24 26 27 29

GFSMW_sfc_30mbdewp_003.txt.gz
Dewpoint
38 40 41 41 41 42 44 45 46 48 52 57 57 57 57 58 59 59 57 56 55 55 54 54 54 54 54 54 54 53 53 52 52 52 52 52 52 52 52 52 52 51 50
37 39 41 41 40 40 41 41 43 47 51 55 57 57 58 58 59 59 59 59 59 59 57 56 56 56 55 55 55 54 54 54 54 52 53 51 52 52 52 52 52 52 52
37 39 39 40 40 40 40 41 41 41 46 53 56 56 55 55 52 53 53 52 54 56 57 58 59 58 57 56 56 56 55 55 55 54 53 52 50 50 51 51 52 52 52
39 39 40 40 41 41 41 41 41 41 41 42 43 45 45 44 47 48 46 45 47 47 46 48 51 55 58 58 58 57 57 56 55 56 55 54 54 52 51 52 52 51 51
38 39 40 40 41 41 41 41 41 41 41 41 41 41 41 42 42 42 42 42 42 44 42 42 42 43 46 50 53 56 58 59 57 57 57 57 55 54 53 51 51 53 53
38 39 40 40 39 40 40 41 40 40 41 41 41 41 41 41 41 41 41 41 41 42 41 41 41 41 41 42 43 45 47 52 56 57 56 55 53 53 53 53 53 53 54
38 38 39 39 39 39 39 40 41 41 41 41 41 41 41 41 40 39 39 39 39 39 40 40 40 40 40 41 42 42 43 45 46 47 49 51 52 52 52 52 51 50 51
38 38 39 39 38 38 39 40 40 40 41 41 41 40 39 39 38 38 38 38 38 38 37 39 39 39 40 41 41 41 42 43 43 44 45 46 47 49 51 51 50 47 48
37 38 38 38 37 39 40 40 39 39 39 39 39 39 37 37 36 36 36 36 35 34 35 36 36 37 38 40 40 38 39 40 41 43 44 45 43 46 48 49 50 48 46
37 38 38 37 39 40 40 38 37 36 36 36 37 37 35 34 34 33 31 31 32 32 32 32 34 35 35 34 33 37 38 38 39 38 38 39 41 45 47 48 48 48 47
37 38 38 38 40 40 38 36 34 33 33 34 33 32 30 29 27 25 26 26 27 27 28 27 28 27 27 29 34 33 34 38 35 35 37 38 41 44 43 43 43 43 45
36 37 38 39 39 38 35 32 31 30 31 30 30 27 24 22 21 22 22 21 21 22 23 23 23 20 23 27 30 27 34 30 30 35 35 38 42 39 40 37 39 42 43
37 37 39 39 38 36 33 29 27 27 27 26 25 21 18 18 19 19 19 18 19 19 19 20 19 18 20 27 23 23 30 24 25 30 33 41 34 36 33 35 41 37 32
35 36 40 39 37 33 29 26 24 23 22 22 18 14 14 15 15 16 16 16 17 16 16 17 16 17 20 19 17 23 24 24 29 33 38 29 29 30 32 36 32 29 33
33 37 40 38 35 31 27 24 22 21 19 18 12 12 13 12 12 13 13 14 14 13 14 15 14 15 16 12 18 22 24 29 21 18 21 21 23 23 29 35 32 30 32
32 38 39 35 32 28 25 23 21 17 13 13 9 11 11 11 11 12 12 12 12 12 12 12 13 15 12 15 18 22 26 23 16 13 16 23 22 22 31 31 31 32 32
34 39 36 33 30 25 23 21 17 10 7 10 9 10 11 11 11 12 11 11 11 12 11 12 13 12 12 15 19 21 24 18 17 20 22 22 23 27 31 30 31 32 31
37 36 33 30 25 23 19 15 9 6 6 8 9 10 11 11 12 12 11 12 12 12 12 12 12 12 12 16 18 20 19 20 20 21 22 23 24 28 27 27 27 29 29
36 34 30 27 22 18 13 7 5 6 6 8 9 10 11 12 12 11 12 12 12 13 13 13 13 13 13 16 18 20 21 21 22 23 23 26 25 26 25 25 26 27 27
32 30 27 23 19 11 6 5 6 5 6 8 10 11 12 12 12 12 12 13 14 14 14 14 14 14 14 16 20 22 22 23 24 27 28 26 25 24 25 25 27 31 33
31 27 25 19 12 7 7 6 5 5 8 10 11 12 13 13 12 13 13 14 15 14 15 14 15 15 17 20 22 22 23 23 27 30 25 25 25 27 23 25 29 31 30
28 24 19 12 7 8 7 6 4 8 10 11 12 13 13 13 13 14 15 16 15 15 14 15 15 18 20 21 21 22 23 24 26 24 25 26 24 21 22 22 21 23 26
22 18 15 10 6 8 8 5 7 10 11 12 12 12 13 13 14 15 15 15 15 14 15 16 17 20 20 21 22 23 25 25 23 26 28 21 20 21 20 21 22 25 27
20 14 9 5 6 9 8 8 10 11 12 11 12 13 13 14 15 15 15 15 14 15 16 18 20 21 22 22 22 24 25 23 23 31 21 18 19 20 19 21 23 25 25
15 10 7 7 7 9 9 10 11 11 11 12 13 13 13 14 15 15 15 15 16 18 19 20 20 20 21 21 21 23 21 21 30 21 17 16 19 19 19 19 21 22 23
11 8 7 8 8 9 10 10 11 12 12 12 12 13 15 16 16 15 14 16 18 19 19 20 19 19 19 20 21 20 21 26 22 17 17 18 19 18 18 19 20 21 21

GFSMW_sfc_30mbdewp_006.txt.gz
Dewpoint
39 40 40 40 40 41 41 43 46 50 54 56 56 56 56 58 58 59 59 58 57 57 56 55 54 55 54 55 55 54 53 53 54 52 53 53 53 53 52 52 52 52 51
38 39 40 40 40 40 40 41 42 45 52 56 57 57 57 58 55 53 51 52 53 53 54 55 56 57 57 57 56 55 55 55 55 53 54 52 53 53 53 53 53 52 53
37 39 39 40 40 40 40 40 40 41 42 46 50 50 50 48 46 46 44 45 45 43 43 44 45 48 52 53 55 56 56 55 55 55 54 52 50 53 54 52 52 52 52
39 40 40 40 40 40 41 41 41 41 41 42 42 42 42 41 43 43 42 41 43 42 41 41 41 41 43 42 45 45 50 52 52 54 56 56 55 51 50 52 53 52 52
39 39 39 40 40 41 40 41 41 41 42 41 42 41 41 41 41 40 39 40 40 41 40 39 40 40 41 41 42 42 42 44 47 48 50 51 51 52 50 47 47 50 52
39 39 40 39 39 40 41 41 41 41 41 41 41 40 39 38 37 37 37 38 38 39 38 38 39 39 39 40 42 42 42 42 44 45 44 44 45 45 47 46 45 47 48
39 39 38 38 39 39 40 41 41 40 41 39 38 38 38 37 36 36 35 34 34 34 34 35 36 36 37 39 40 41 41 41 42 42 42 44 44 45 45 45 43 44 45
38 39 38 38 39 40 40 39 39 38 39 38 36 35 34 34 33 32 32 32 32 33 31 33 33 34 35 36 35 35 37 38 40 40 42 43 41 42 42 44 45 42 41
38 38 38 38 39 40 39 37 36 36 36 36 34 31 29 28 27 28 29 27 28 26 27 29 28 29 28 27 29 33 33 34 37 40 37 37 38 40 42 45 45 42 38
37 38 37 39 40 39 37 35 34 34 33 33 30 27 25 24 24 23 21 21 23 23 24 23 23 22 20 23 24 32 25 29 37 28 30 35 36 38 43 43 41 39 38
37 38 37 40 39 37 34 32 31 30 29 30 26 21 18 19 19 19 20 19 19 20 20 19 20 18 18 19 21 27 21 26 28 24 25 30 33 39 36 38 35 33 37
37 38 38 39 37 34 31 29 28 27 26 26 20 16 16 16 14 15 17 17 16 17 17 16 18 16 16 18 21 18 18 25 22 24 29 32 35 30 33 32 27 32 36
37 37 39 38 36 32 28 25 24 23 23 19 14 12 12 12 12 13 14 14 14 15 14 15 15 14 15 16 14 16 19 21 23 28 22 17 24 22 22 22 25 31 33
36 38 39 38 34 29 26 24 22 20 19 13 10 10 10 11 11 13 13 13 14 14 13 13 13 13 15 14 12 18 20 23 26 22 17 15 17 21 24 22 25 32 32
35 39 39 36 31 27 25 23 20 14 14 9 9 10 11 12 12 12 13 13 13 13 13 12 12 13 14 10 17 20 21 22 23 19 18 20 22 23 23 25 27 28 28
34 39 39 35 31 26 24 21 17 8 9 9 9 10 11 12 12 13 12 12 12 12 13 12 12 13 12 15 19 21 21 21 19 20 20 21 22 23 26 26 25 26 25
33 38 37 33 28 24 23 18 10 7 7 8 8 10 11 12 12 12 12 12 12 13 12 12 13 13 13 16 20 21 21 21 22 22 22 22 23 25 26 26 25 26 26
36 38 34 29 25 23 18 12 7 6 6 6 8 10 11 12 12 12 12 12 12 13 13 13 13 13 14 17 20 21 22 22 22 22 23 24 28 27 25 24 28 31 25
37 35 31 26 22 17 10 5 5 5 5 7 9 10 12 12 12 12 12 12 13 13 13 13 13 14 14 18 20 22 21 21 22 23 24 29 27 24 24 28 27 23 28
34 30 27 23 16 9 6 4 4 4 5 8 10 11 12 12 12 12 12 13 14 14 14 14 14 15 15 18 21 21 21 21 23 24 30 26 22 23 26 21 22 24 21
30 26 23 19 12 6 6 5 4 4 8 10 11 12 12 12 13 13 14 14 15 15 15 14 14 15 17 20 21 21 21 21 24 29 22 22 24 29 20 19 21 21 21
28 24 19 12 7 8 7 5 4 8 10 11 11 11 12 12 13 14 15 16 16 15 14 14 15 17 19 20 21 21 21 22 25 22 20 24 29 19 18 20 19 20 21
25 21 17 10 6 8 8 5 7 10 11 11 11 11 12 13 13 15 15 15 15 14 14 15 17 19 20 21 22 22 23 24 21 21 26 25 18 16 19 18 18 18 20
22 17 11 6 6 9 8 8 9 11 11 10 10 11 12 14 15 15 16 16 15 15 15 18 19 20 20 21 21 23 24 23 22 28 28 19 16 17 18 17 18 18 19
18 12 8 6 6 8 8 10 10 11 10 11 11 12 13 14 15 16 16 15 15 17 18 18 19 20 20 20 20 22 19 21 24 20 17 16 17 17 17 17 17 17 18
14 9 7 7 7 9 9 10 11 11 11 12 12 12 14 16 16 15 15 17 18 18 18 18 19 19 19 20 21 19 22 22 14 13 14 18 17 16 16 17 17 17 18

GFSMW_sfc_30mbdewp_009.txt.gz
Dewpoint
39 40 40 40 40 41 42 44 50 53 56 57 56 57 56 53 51 49 48 47 49 49 50 50 49 50 51 52 53 54 53 53 55 54 53 54 54 54 55 55 54 53 53
38 39 40 40 40 40 41 41 43 46 54 57 58 57 51 48 46 45 44 43 40 40 39 40 41 41 43 42 43 46 46 47 49 51 52 49 49 50 54 54 54 54 54
38 39 39 40 41 41 41 41 42 43 44 46 46 45 45 44 43 42 40 41 40 38 38 38 38 39 40 39 41 41 41 41 41 44 46 45 43 47 46 49 51 53 54
39 39 39 40 40 41 42 42 42 42 43 43 43 42 41 39 40 39 39 37 38 38 35 36 37 37 37 37 38 38 40 39 39 40 39 42 43 40 39 37 43 43 47
39 39 40 40 41 41 42 42 42 42 42 41 41 39 38 38 37 36 34 35 34 36 32 32 33 34 34 36 37 37 38 39 39 39 40 40 41 41 41 40 38 42 41
39 39 40 40 40 42 42 42 40 40 39 39 38 37 36 33 32 32 30 29 29 31 27 28 28 29 29 31 32 34 37 37 37 39 40 40 40 40 39 39 39 39 40
39 39 39 39 40 41 41 40 40 38 37 35 34 34 33 31 28 26 24 22 21 24 23 25 23 24 24 24 26 28 33 33 34 38 40 39 35 33 34 36 38 39 39
39 38 39 39 40 40 39 38 37 37 35 32 29 28 27 25 22 22 20 19 19 20 20 21 20 20 19 18 20 22 31 25 30 37 33 30 26 29 32 36 39 38 34
39 39 38 39 40 38 37 36 35 34 34 30 24 21 20 19 18 18 17 17 17 14 16 18 17 18 16 16 18 18 23 22 22 28 26 25 26 33 35 38 39 34 33
38 38 38 39 39 36 35 34 32 31 29 24 20 17 16 15 15 14 14 15 14 15 16 15 15 16 14 14 15 17 19 18 18 22 21 26 29 32 35 31 30 33 29
38 38 38 40 37 34 32 31 29 28 25 20 15 13 13 13 12 11 13 13 14 14 13 12 13 12 12 12 13 13 13 15 20 21 23 27 25 20 22 27 26 25 23
38 38 39 38 34 31 29 27 25 24 22 16 12 11 11 11 9 10 11 12 12 12 12 11 11 11 11 12 12 12 14 17 19 21 25 23 18 18 18 20 22 24 25
38 38 39 36 32 29 26 24 22 21 16 12 10 9 10 9 9 11 11 11 11 12 11 11 10 10 11 11 12 13 17 19 20 20 23 19 18 19 20 22 24 26 26
37 38 39 36 32 27 24 22 19 18 13 10 9 9 9 11 11 12 12 12 12 11 11 10 10 11 11 12 11 17 19 20 20 20 20 19 20 20 23 24 26 25 26
37 38 38 35 29 26 24 21 16 12 10 8 8 10 12 13 12 12 13 12 12 12 11 11 11 12 12 8 17 20 20 20 20 20 20 21 22 23 24 25 26 27 26
36 39 38 34 29 25 24 21 13 7 9 8 8 11 12 12 13 13 12 12 12 11 12 11 11 12 11 15 19 22 22 21 21 21 22 21 22 23 25 26 26 25 26
35 39 38 33 28 25 23 18 7 6 7 8 9 11 12 12 13 12 11 11 11 12 11 10 11 11 12 16 20 22 22 21 21 20 21 22 22 25 28 27 24 30 27
34 38 36 31 25 23 19 10 6 6 6 7 8 11 12 12 12 12 11 12 12 12 11 11 12 12 13 17 20 22 21 21 20 20 21 22 24 28 23 23 31 23 20
37 37 33 26 23 18 12 6 5 5 5 7 9 11 12 12 11 10 11 12 12 12 12 12 12 12 14 17 21 21 20 20 20 21 22 26 25 21 22 31 22 21 21
35 32 26 22 17 9 6 4 4 3 4 8 10 11 12 11 11 11 12 13 13 13 13 13 13 14 15 18 21 21 20 20 21 23 26 23 20 21 31 21 19 20 20
30 26 23 19 12 6 6 5 4 3 8 10 11 11 11 11 12 12 13 14 14 14 14 13 13 15 17 19 20 20 20 21 25 26 22 20 21 32 24 18 17 19 20
27 24 19 13 8 8 6 4 3 7 10 11 11 11 11 11 12 14 15 15 15 14 14 13 14 17 18 19 20 20 20 22 22 21 20 23 31 20 18 16 17 18 18
26 22 17 10 7 8 7 4 6 9 10 11 10 10 11 11 13 14 14 14 14 14 14 14 16 18 19 20 21 21 23 22 20 22 26 18 15 16 16 16 16 17 18
23 19 14 9 7 9 8 7 9 10 11 9 9 10 11 13 13 14 15 15 15 15 15 17 17 19 20 20 21 23 22 21 25 26 16 14 14 17 17 15 16 17 18
22 16 12 8 7 8 8 9 10 11 10 10 10 10 11 13 14 15 15 15 16 17 17 17 18 20 20 20 21 20 18 22 23 15 14 13 18 16 15 15 16 17 17
16 12 9 7 7 8 9 10 11 11 11 10 10 11 14 15 15 14 15 17 18 18 18 18 19 19 19 20 19 18 21 21 15 14 13 16 17 15 15 15 16 17 17

GFSMW_sfc_30mbdewp_012.txt.gz
Dewpoint
38 40 41 41 42 43 47 51 54 55 55 55 56 54 50 47 44 43 41 39 39 39 39 39 38 38 39 38 38 38 37 37 39 37 38 39 42 45 43 51 50 47 49
37 38 39 39 40 41 42 45 51 55 56 57 53 48 45 43 42 41 40 38 37 36 36 36 36 37 37 37 37 38 37 36 36 36 36 33 35 36 39 38 37 40 40
36 37 39 40 40 41 42 42 45 46 46 45 44 44 44 42 40 39 37 36 36 33 34 34 33 34 34 34 34 33 34 33 32 34 33 31 33 35 34 34 35 36 38
37 38 39 40 41 43 44 43 43 43 43 43 42 41 39 38 37 35 35 33 33 30 26 27 28 28 27 28 28 27 29 30 29 30 31 33 32 33 33 32 34 33 36
37 38 40 41 42 44 43 42 41 40 40 39 38 36 35 35 34 32 30 29 27 26 22 21 22 22 22 23 24 24 25 28 27 26 30 31 32 32 32 31 27 29 28
38 39 40 41 42 43 42 40 38 38 37 36 35 34 32 29 28 26 23 21 19 20 18 18 17 17 19 19 19 21 23 27 24 25 28 31 30 27 25 21 23 25 26
38 39 39 40 41 42 41 38 36 35 34 32 30 30 28 25 22 19 16 14 12 14 14 15 14 14 15 15 16 17 21 24 22 25 28 28 22 21 18 19 25 26 30
38 38 39 40 41 40 39 37 35 33 30 28 25 23 21 19 16 14 13 10 10 10 13 13 12 13 12 13 13 14 15 17 19 17 20 24 18 19 22 26 29 31 31
38 38 40 40 39 38 37 36 35 32 28 24 20 17 15 14 12 11 10 10 10 8 10 11 10 11 11 11 11 10 11 13 15 15 19 18 19 22 24 25 25 25 25
38 38 39 39 38 36 36 34 32 28 24 20 16 14 10 9 9 8 8 9 8 9 9 8 8 8 8 8 9 9 10 11 13 14 16 18 19 23 21 18 16 19 20
38 38 38 39 36 35 34 31 29 26 21 17 13 11 8 7 7 6 7 7 7 8 8 7 7 6 6 7 7 7 8 10 13 15 16 17 19 20 17 17 17 17 18
38 38 39 38 35 33 31 28 27 23 19 13 10 8 8 7 5 5 7 6 6 7 8 7 6 6 6 8 7 8 9 12 13 15 15 16 16 17 17 17 17 19 20
38 38 39 37 34 31 29 26 24 20 15 11 8 7 7 6 6 7 7 7 7 8 7 7 7 7 8 8 8 7 12 14 15 16 16 16 17 17 17 18 19 21 21
38 37 38 36 34 30 27 24 22 19 12 9 8 8 8 8 8 9 8 8 8 8 8 8 8 8 8 8 6 13 15 16 17 17 18 18 18 17 19 20 21 23 24
37 38 38 37 33 29 26 23 19 15 9 7 7 9 9 10 10 10 9 9 10 10 9 9 8 8 9 5 14 18 19 18 18 18 17 17 18 20 21 22 24 26 24
36 38 39 37 33 28 25 23 16 10 8 6 7 9 9 9 9 10 9 9 10 10 9 8 7 8 7 11 17 21 20 19 18 17 16 16 17 18 22 23 24 22 25
36 37 38 37 32 28 26 22 13 8 6 6 6 8 9 9 9 9 8 8 9 9 9 8 8 7 8 12 19 21 21 19 17 16 16 16 16 21 23 23 21 25 28
36 38 39 35 30 27 24 15 9 7 5 5 5 8 8 8 8 7 7 8 8 8 8 8 8 8 9 14 19 22 20 17 16 16 16 17 21 22 21 20 26 28 21
36 38 37 33 27 24 18 12 8 5 4 5 6 7 7 7 6 6 7 8 8 9 8 8 9 9 9 14 19 21 18 16 16 16 17 22 21 19 19 29 29 22 20
37 35 31 27 24 18 12 10 6 3 2 5 7 8 8 8 6 8 8 9 9 9 8 8 8 10 11 15 19 20 18 17 18 19 22 19 18 20 25 24 18 23 18
33 29 26 24 20 12 10 7 3 2 6 8 8 8 7 7 7 8 9 10 10 9 8 8 9 11 14 16 18 20 19 19 23 25 20 19 20 22 18 16 18 18 18
29 26 24 19 13 10 8 5 3 6 8 9 8 7 7 7 8 11 12 11 8 8 7 8 11 14 14 16 18 20 20 21 24 21 21 22 21 16 15 17 18 16 17
27 24 22 16 12 9 6 4 5 8 8 8 7 6 7 8 10 10 10 9 8 8 9 11 13 13 14 15 17 18 20 21 19 20 24 19 15 14 16 17 15 15 17
28 24 20 18 12 9 8 6 8 9 9 7 6 6 7 10 10 9 9 9 8 10 11 13 14 15 16 16 18 21 23 20 21 26 22 14 13 13 14 14 14 16 17
27 23 21 17 13 8 7 8 9 9 7 6 6 7 8 10 10 8 9 11 13 15 17 17 17 17 17 18 19 20 19 20 24 19 15 12 12 14 14 14 15 16 17
25 21 18 14 8 7 7 8 10 9 8 7 7 8 11 10 8 8 9 12 15 17 18 18 18 18 18 18 19 18 20 23 18 15 13 13 15 15 15 15 15 17 18

GFSMW_sfc_30mbdewp_015.txt.gz
Dewpoint
38 40 41 41 43 48 51 53 53 54 55 55 55 52 48 45 43 41 40 39 38 38 38 37 36 37 37 37 37 36 37 37 36 35 36 35 36 34 37 35 35 36 38
36 38 39 39 40 43 48 52 54 55 54 51 50 47 45 43 42 40 38 36 34 34 33 34 33 33 34 33 33 32 32 31 31 30 30 28 29 31 32 31 33 33 36
35 37 38 39 40 41 44 46 46 46 47 47 46 45 44 42 39 37 35 34 32 27 27 27 27 27 28 28 28 27 28 28 29 28 26 25 24 29 31 30 31 30 29
35 36 38 40 42 44 44 43 43 43 43 43 42 41 39 36 35 34 33 31 30 25 21 21 22 22 22 23 24 22 24 26 26 26 24 26 27 28 27 25 27 25 24
36 37 39 41 43 44 43 41 41 40 40 39 37 36 34 33 32 31 28 26 24 22 19 18 18 18 19 20 20 21 22 25 25 22 23 24 26 27 22 20 20 20 19
37 38 40 42 43 43 42 40 38 37 36 35 34 33 32 30 29 26 23 20 18 18 16 16 15 15 17 17 18 20 21 22 24 23 23 22 23 22 19 17 18 20 24
37 39 40 41 42 42 40 37 35 34 33 32 31 30 29 26 23 20 18 16 14 14 13 14 12 12 14 15 16 17 18 17 20 21 21 18 19 22 18 18 21 23 27
37 38 39 40 42 40 37 36 34 31 30 28 26 25 24 21 19 16 15 13 11 10 10 11 10 10 11 11 12 14 15 15 16 19 19 18 20 19 19 21 23 25 23
37 38 40 41 41 39 37 36 32 30 27 25 23 20 18 17 15 13 12 12 9 6 8 9 8 8 8 9 10 10 11 12 13 15 17 17 18 20 21 22 25 21 18
37 38 39 40 39 37 36 35 31 28 25 22 20 17 14 12 11 11 9 8 8 7 8 7 7 7 7 7 8 10 10 10 11 13 15 16 17 18 20 21 21 20 19
37 38 39 39 38 37 35 33 29 26 23 21 18 16 12 11 9 8 7 6 6 6 6 6 6 6 6 7 8 8 9 8 11 14 15 16 17 17 18 19 20 20 20
37 38 38 38 36 36 33 31 29 25 23 18 15 13 12 11 9 7 6 5 5 5 6 6 7 7 7 8 8 8 7 9 12 14 15 16 16 18 20 19 19 20 20
37 37 38 37 36 34 32 29 27 24 20 16 14 13 12 10 8 7 7 6 6 6 7 8 8 8 9 9 9 7 8 12 15 16 17 17 18 19 19 19 20 20 21
37 37 38 37 35 34 31 28 26 22 17 14 13 13 11 9 8 8 8 8 8 8 9 10 9 10 9 10 9 10 14 16 18 18 18 18 18 17 19 19 21 23 24
37 37 38 37 35 33 30 26 24 20 15 12 11 12 10 9 9 9 9 8 9 10 11 10 11 10 10 8 11 15 18 20 19 19 18 17 18 18 18 19 22 24 27
36 37 38 38 35 32 29 25 22 17 13 10 10 10 8 8 8 9 8 9 10 11 10 11 11 12 9 10 14 17 20 20 19 18 17 16 17 16 18 21 22 22 21
35 37 38 38 36 32 28 25 20 14 11 9 7 7 7 7 8 8 7 8 9 10 10 10 9 8 8 11 14 18 20 20 19 17 16 16 15 19 22 22 22 23 25
35 36 38 38 35 31 28 23 15 12 9 8 6 6 6 6 6 6 7 8 9 9 10 9 8 8 9 11 15 18 20 19 18 16 16 17 20 23 21 23 28 28 26
37 38 39 37 32 28 23 17 14 10 7 6 5 5 5 6 6 6 7 9 9 10 9 8 8 8 7 11 15 19 19 19 17 17 18 20 21 20 23 26 25 19 18
38 38 36 32 28 25 19 17 12 8 4 5 5 6 7 7 6 6 8 10 10 10 8 8 7 7 8 12 17 18 19 19 19 20 24 21 19 21 26 21 17 18 20
34 32 30 28 24 19 18 14 8 4 5 6 7 6 6 6 6 8 11 12 11 10 8 6 6 8 11 14 16 18 19 19 20 25 21 21 20 23 20 16 16 18 21
30 29 27 23 18 17 15 10 5 5 6 7 7 7 6 6 9 12 14 12 10 8 6 6 8 11 13 14 16 18 19 19 22 22 20 21 27 17 15 15 15 16 17
28 27 24 20 17 14 12 7 6 7 7 7 6 6 6 8 9 12 11 11 8 7 7 8 10 14 16 17 17 18 18 21 20 19 21 28 16 14 14 14 15 15 16
28 26 23 20 16 12 8 6 7 7 7 6 5 5 8 10 10 10 10 9 7 9 10 13 16 17 18 18 18 19 21 21 21 25 27 15 13 13 14 14 15 16 16
29 27 25 22 17 13 8 7 8 8 7 5 5 8 9 10 10 10 8 8 10 12 16 17 18 18 18 18 19 20 18 21 24 20 16 14 13 14 15 14 15 15 17
28 26 24 21 14 9 7 7 8 8 7 7 8 9 10 11 9 8 9 10 12 13 14 15 16 17 18 18 19 18 19 22 18 15 14 14 15 15 14 14 15 17 18

GFSMW_sfc_30mbdewp_018.txt.gz
Dewpoint
39 40 42 44 49 52 53 54 54 55 56 57 53 48 45 43 42 40 37 36 35 37 35 36 35 35 35 35 32 32 31 31 31 32 30 29 33 28 29 27 30 33 31
38 39 40 42 47 51 53 55 55 52 51 50 49 47 44 42 40 38 36 32 29 29 29 28 29 28 30 29 28 29 29 30 30 29 27 26 26 27 26 30 32 29 29
37 38 40 41 44 47 47 48 48 48 48 47 45 43 43 42 39 37 35 32 26 24 24 24 24 25 26 25 25 25 25 27 28 28 25 25 25 25 27 27 29 22 22
37 38 40 42 44 45 45 45 46 46 46 46 45 43 38 36 36 34 33 29 26 21 20 21 21 22 23 22 22 23 23 25 26 27 24 24 25 23 24 27 22 23 19
36 38 41 44 45 44 43 42 41 40 40 39 38 37 35 34 32 30 26 24 24 20 19 19 19 19 20 20 20 20 21 24 23 25 24 23 25 22 20 19 20 19 19
37 40 43 44 44 44 42 39 37 37 36 35 35 34 32 30 27 23 21 20 21 20 17 17 16 16 17 18 19 19 19 19 20 21 21 22 20 18 18 21 18 17 19
38 41 42 43 43 41 39 37 35 33 33 32 31 29 27 24 20 19 18 15 15 15 14 15 13 14 14 15 15 16 16 17 16 19 17 22 19 19 20 18 18 19 20
39 40 42 43 42 40 37 35 32 30 29 27 24 23 23 20 18 16 15 13 12 11 12 13 12 11 11 12 12 13 14 13 15 14 17 17 18 19 20 18 21 18 19
39 39 41 43 42 38 36 34 31 28 26 23 20 18 17 16 15 14 13 12 11 8 10 10 9 10 10 10 10 12 12 13 12 13 15 15 17 18 20 20 19 20 18
39 39 41 41 40 38 36 32 29 26 24 21 18 15 13 12 12 11 9 9 8 8 9 8 8 8 9 9 10 11 12 11 12 11 13 15 16 18 18 20 20 20 19
38 40 40 40 38 37 35 31 27 24 22 20 17 14 13 12 10 9 8 7 7 7 7 8 8 9 9 9 10 10 10 9 10 12 14 16 17 17 19 19 21 20 20
38 39 40 38 37 36 33 29 26 24 21 17 15 14 13 11 9 8 8 7 7 8 8 9 10 10 10 11 10 10 10 10 13 15 17 17 18 19 19 20 19 20 20
38 39 39 37 37 35 32 30 26 22 18 16 14 14 13 11 9 9 9 9 8 9 10 11 11 11 12 12 11 11 11 15 16 18 19 20 19 19 19 19 18 19 20
38 38 39 37 36 34 31 28 24 20 16 15 14 13 11 10 10 10 10 10 10 11 12 12 12 12 12 12 12 12 15 17 19 20 20 20 20 18 18 18 19 20 23
38 38 39 37 35 33 30 27 23 18 15 14 14 12 11 10 10 11 11 10 11 12 13 12 12 13 13 11 12 15 17 18 20 20 20 20 19 19 18 18 21 22 21
38 38 39 37 35 32 28 25 21 16 13 12 12 10 9 9 9 10 10 10 11 12 12 12 12 12 11 11 14 16 17 19 20 20 20 18 17 17 19 20 20 22 26
38 38 39 37 35 31 27 23 19 14 12 10 9 8 8 8 8 9 8 9 10 10 11 11 11 10 9 11 14 15 17 19 20 19 18 17 17 19 20 22 25 31 28
37 38 39 38 34 30 26 21 15 13 11 9 7 7 7 7 7 8 8 9 10 10 11 11 10 9 9 11 13 15 18 19 20 19 19 19 19 22 22 23 28 29 22
37 39 39 34 30 28 20 15 13 10 9 7 6 6 6 7 7 7 8 9 11 12 11 10 9 8 8 12 13 17 18 18 18 19 20 22 22 22 22 25 28 20 21
39 37 33 30 27 20 17 15 11 9 6 6 6 7 7 7 7 7 8 11 13 13 11 10 8 9 8 12 15 17 17 18 19 21 24 24 21 19 25 23 18 20 16
33 31 29 27 22 19 18 12 8 5 6 7 7 7 7 7 7 9 11 13 14 12 11 8 7 8 11 14 17 18 19 19 20 25 24 23 19 27 23 17 16 16 19
31 29 25 20 19 18 13 9 6 7 7 8 8 8 7 7 8 12 14 14 12 10 8 8 9 11 15 18 19 19 19 20 23 23 21 20 25 19 16 16 15 17 16
28 25 20 18 16 15 10 7 7 7 7 7 7 6 6 8 10 11 12 11 10 8 8 10 12 16 18 19 19 19 20 21 20 21 22 27 19 15 14 14 15 15 15
27 23 20 17 13 10 8 8 8 8 7 7 6 6 8 11 11 11 11 10 8 9 10 12 15 17 17 18 18 19 21 20 21 24 27 18 14 13 15 15 15 15 16
27 24 22 18 14 11 8 9 8 8 7 6 6 9 10 11 11 11 10 10 11 12 14 15 15 15 16 17 18 18 17 19 23 20 17 13 13 15 14 14 15 16 17
28 27 24 18 13 9 8 9 9 9 8 8 10 11 12 13 12 10 10 13 13 14 14 14 15 15 16 17 17 17 19 20 18 15 13 14 15 15 15 15 17 18 19

GFSMW_sfc_30mbdewp_021.txt.gz
Dewpoint
40 41 43 47 50 52 53 54 56 56 55 50 46 43 41 39 37 34 32 30 31 29 29 30 28 30 30 27 28 28 27 28 29 31 24 28 29 27 22 18 29 29 30
39 41 44 49 52 53 53 54 53 53 51 49 46 44 41 39 37 34 28 25 24 25 24 25 25 26 26 24 24 25 25 28 28 28 28 23 25 23 19 26 22 27 21
39 40 44 47 47 48 49 49 48 47 46 44 43 42 41 39 35 33 29 23 21 22 22 22 22 23 24 22 22 23 23 24 26 26 24 21 22 20 26 21 24 17 18
39 40 43 45 45 45 46 47 47 45 44 44 43 41 38 35 35 33 29 24 20 19 20 19 20 21 21 20 20 21 21 22 20 23 26 24 23 20 21 23 17 20 22
38 40 43 44 45 43 42 41 42 43 42 42 40 37 35 34 32 28 25 23 19 17 18 17 18 17 19 18 18 18 17 19 21 20 22 20 20 23 19 16 16 18 20
39 43 44 44 42 41 39 37 36 36 36 36 35 33 30 26 23 20 19 19 19 17 16 15 15 15 15 16 16 17 15 15 18 17 19 17 15 20 15 14 15 18 17
42 43 43 42 41 38 37 35 34 32 31 29 28 25 22 20 19 17 15 14 13 12 12 13 12 12 13 13 13 13 14 14 14 15 14 15 19 17 16 18 17 16 18
42 43 43 42 40 37 35 33 31 29 27 25 23 22 20 18 17 15 14 12 11 11 11 11 10 10 10 11 11 13 13 13 13 11 13 16 16 17 19 17 19 18 16
42 43 43 42 39 36 33 31 28 26 23 21 19 17 16 15 13 12 12 11 10 9 9 9 9 9 10 10 10 11 11 12 12 13 15 14 14 17 20 21 20 19 18
41 42 43 41 39 36 33 29 27 24 21 18 15 13 13 13 11 10 8 7 8 8 8 8 9 9 10 10 11 11 12 11 12 13 14 15 16 18 19 20 21 20 20
40 42 42 40 38 35 31 28 25 22 19 16 14 12 12 10 9 8 7 7 7 8 8 9 10 11 11 11 11 11 10 11 13 15 16 18 19 20 20 20 21 21 21
40 41 41 39 37 34 30 26 24 21 19 16 14 13 11 9 8 8 8 8 8 9 9 11 12 12 12 13 12 11 11 12 15 17 19 19 20 20 21 21 21 20 19
40 40 39 37 36 32 28 26 23 20 16 15 14 13 11 9 9 9 9 10 9 10 11 12 12 12 13 14 13 12 11 14 17 19 20 20 20 21 21 20 19 19 20
39 39 37 37 36 32 29 26 22 18 16 15 14 12 10 10 10 11 11 11 11 11 12 13 13 13 14 14 13 13 15 16 18 20 21 20 21 21 20 19 19 20 21
39 38 37 36 35 32 29 24 19 16 15 15 13 11 11 10 10 11 11 10 11 12 13 13 13 13 14 10 14 15 17 17 18 20 20 20 21 20 19 19 19 20 21
38 38 37 36 34 31 27 22 17 15 15 14 12 11 10 9 10 9 9 9 10 11 11 11 12 12 11 14 15 16 16 17 18 20 19 20 20 19 20 21 21 22 23
38 38 37 36 34 29 25 20 16 14 13 11 10 9 9 8 8 8 8 8 9 10 11 11 12 11 10 13 14 16 16 18 19 19 20 19 19 21 22 23 23 25 27
38 39 38 35 32 26 23 16 14 12 11 9 8 8 7 7 7 8 8 8 9 11 12 12 11 10 10 13 14 16 17 17 19 19 19 20 21 24 23 22 23 29 27
38 39 37 33 27 24 17 14 12 11 10 7 7 6 6 6 7 7 7 8 11 13 13 12 11 10 9 13 15 18 18 18 18 20 20 23 23 23 19 22 28 25 23
36 33 30 25 21 17 14 12 10 9 8 6 7 7 7 7 7 7 7 11 13 13 13 11 10 10 9 16 18 20 19 19 19 22 25 23 20 18 25 25 21 19 15
30 28 24 21 18 15 13 11 9 6 7 7 7 7 7 7 7 8 11 13 13 13 11 9 9 10 13 18 19 20 19 19 23 25 23 21 19 29 19 18 15 15 19
28 25 22 19 18 14 11 7 6 7 7 8 8 8 7 7 9 12 12 12 12 10 9 9 10 12 16 19 19 19 20 22 22 22 20 20 29 17 16 15 16 17 17
23 21 19 17 16 11 9 7 7 8 8 7 7 6 7 9 12 11 11 12 11 9 10 10 11 15 16 18 19 20 21 20 19 21 24 23 17 14 14 15 16 16 15
21 19 16 13 11 9 8 8 8 8 7 6 6 7 10 14 11 12 12 11 11 11 12 14 15 15 16 16 17 18 18 19 24 25 21 16 13 14 15 15 15 16 18
21 19 16 13 9 8 8 8 8 8 7 6 8 10 12 12 13 12 11 13 13 15 15 15 15 15 15 16 17 17 17 21 23 18 14 12 14 15 14 14 15 17 18
23 21 18 15 10 8 9 9 9 8 8 9 10 11 14 14 13 12 13 15 15 15 15 15 15 16 16 17 17 17 20 19 17 15 13 14 16 15 15 15 17 17 18

GFSMW_sfc_30mbdewp_024.txt.gz
Dewpoint
39 40 43 47 51 52 53 53 54 51 48 46 43 42 38 35 32 30 29 28 27 27 27 27 27 28 25 25 25 25 24 26 28 28 24 26 29 24 17 22 23 25 20
39 42 46 50 52 53 54 55 55 51 49 46 43 40 37 35 31 27 24 24 24 23 24 24 25 25 22 21 22 23 21 25 27 22 28 22 23 23 14 23 21 18 16
39 42 48 50 51 52 52 53 51 48 46 43 40 38 36 34 30 26 22 21 21 22 21 21 22 22 22 19 21 21 20 20 24 24 20 14 18 19 21 16 21 17 19
40 42 48 48 49 49 49 49 47 45 43 42 39 36 34 32 32 28 23 20 19 19 19 19 19 19 20 18 19 20 19 19 17 23 22 23 21 15 15 21 17 19 15
40 44 46 47 46 46 46 46 45 44 43 42 39 37 35 34 31 25 20 17 17 17 17 16 16 16 18 17 16 16 15 17 19 18 21 20 17 18 21 15 13 14 17
40 44 45 44 43 42 42 42 42 41 41 39 37 34 31 28 25 23 21 18 17 16 14 14 13 13 14 14 15 14 14 14 15 16 15 14 14 17 15 11 11 14 15
41 44 43 41 39 39 38 38 38 37 36 34 31 28 25 21 18 18 17 14 12 12 12 12 10 11 12 12 13 13 13 14 12 13 13 15 18 18 14 14 15 15 17
42 43 42 40 38 36 35 33 33 31 29 27 24 21 20 19 17 15 13 12 11 11 11 10 9 10 11 11 11 13 13 13 12 12 13 16 15 16 17 17 18 17 17
42 42 41 39 37 35 33 31 28 26 24 22 19 18 17 16 14 12 12 10 11 9 9 9 9 10 11 11 11 12 11 12 13 13 15 15 16 18 19 20 21 20 18
42 42 40 38 36 33 31 28 26 23 20 18 16 15 14 12 11 9 7 8 8 8 8 9 10 11 11 12 12 12 13 12 13 14 15 17 19 19 21 21 21 21 21
42 42 40 38 35 32 29 26 23 20 17 15 13 12 11 10 9 7 7 7 8 8 9 10 11 12 12 12 13 13 12 12 13 15 17 19 20 20 21 21 22 22 21
42 42 40 37 34 31 28 25 22 18 16 14 13 12 10 9 8 8 8 9 8 9 11 12 12 13 13 14 13 13 12 12 13 16 18 19 19 20 21 22 21 21 21
42 41 39 36 33 30 26 24 21 18 15 14 13 11 10 9 9 9 10 10 10 10 12 12 13 13 14 14 14 13 13 14 15 17 18 20 20 20 21 21 21 21 21
41 40 38 36 33 29 25 23 20 17 16 15 13 11 10 10 10 11 11 10 11 11 12 13 13 14 14 14 13 15 16 16 17 18 20 20 20 20 21 21 20 21 20
40 39 38 36 32 28 25 22 18 16 16 14 13 12 11 10 11 11 10 11 11 12 12 12 13 13 13 10 16 17 17 17 17 18 19 20 21 21 21 20 21 21 24
39 38 37 36 32 29 24 20 16 16 15 14 13 12 10 10 10 10 9 9 10 10 11 12 13 13 11 15 17 18 17 17 17 18 19 20 21 20 21 22 22 22 22
39 38 37 36 33 28 22 18 16 16 15 14 12 10 9 8 9 8 8 8 8 11 12 13 13 11 11 15 17 18 19 18 18 19 19 19 20 22 24 24 22 22 24
39 38 37 36 31 25 20 16 15 14 13 12 10 9 8 7 8 8 7 7 9 11 13 13 12 11 10 16 18 20 20 20 19 19 19 20 23 23 21 19 25 29 24
39 38 37 32 27 22 17 14 13 12 11 9 8 7 7 7 7 7 7 8 11 12 13 13 11 10 11 15 18 21 20 20 19 20 20 25 23 20 20 29 24 21 18
37 35 30 26 21 17 14 13 12 10 9 8 7 7 8 7 6 7 8 11 13 13 13 11 10 12 10 14 19 20 19 19 20 22 26 24 20 20 27 18 17 16 15
29 26 24 21 17 14 13 12 10 9 8 8 7 7 8 7 7 9 12 13 13 12 10 10 10 11 12 16 19 19 19 20 24 25 22 20 23 23 17 17 16 16 20
24 22 19 17 14 13 12 9 9 8 8 8 8 8 7 7 10 12 12 13 12 10 11 11 12 13 14 19 19 19 20 22 19 21 21 24 22 17 16 16 17 18 18
22 20 18 14 13 11 9 8 7 8 8 7 6 6 8 11 12 12 12 11 11 12 12 13 14 15 16 17 19 19 20 19 20 23 22 21 16 15 15 16 17 17 16
20 18 16 12 10 9 9 8 8 8 7 6 6 9 11 15 13 13 12 13 13 13 15 15 15 16 16 16 17 18 18 21 24 21 19 15 14 15 16 15 15 15 16
18 16 13 11 9 9 8 9 8 8 6 6 9 10 13 13 13 12 13 15 15 16 16 16 16 16 16 16 18 17 19 20 19 17 14 13 14 15 14 14 15 16 17
18 16 12 10 9 8 8 9 9 7 7 9 10 13 15 13 13 13 13 17 16 16 16 16 16 16 17 17 17 18 19 18 17 15 13 14 15 15 15 15 16 17 17

GFSMW_sfc_30mbdewp_027.txt.gz
Dewpoint
37 39 41 43 48 49 50 48 54 50 49 46 43 42 39 34 31 30 28 27 27 26 26 27 25 23 21 22 22 22 21 23 26 22 21 26 28 26 19 22 20 19 17
37 39 42 47 51 51 53 53 51 49 48 46 42 39 35 31 28 26 24 23 23 23 23 23 23 22 19 19 20 20 18 20 25 23 26 18 17 22 15 18 22 18 19
37 38 43 48 51 52 54 53 50 48 45 41 38 34 30 27 24 22 21 21 21 21 21 21 20 20 20 18 20 19 17 16 19 24 14 7 12 19 19 13 21 15 18
37 39 45 49 51 52 53 50 48 45 41 40 37 35 32 28 27 22 20 19 18 18 19 18 18 19 19 16 17 17 17 18 16 20 19 21 20 12 12 20 16 17 12
38 40 46 49 50 50 50 48 45 43 41 39 37 35 33 30 25 20 17 16 17 16 16 16 15 16 16 16 15 14 13 16 16 16 19 18 17 19 19 13 14 11 11
39 43 47 48 47 47 47 45 44 42 41 39 37 35 30 26 22 19 17 16 16 15 14 13 13 13 14 13 14 13 13 13 13 14 14 13 14 16 15 12 11 11 11
40 44 46 46 44 45 44 43 43 40 38 36 34 31 28 24 21 20 17 14 12 12 11 11 10 11 12 12 12 13 12 13 12 12 12 16 16 17 16 15 14 13 15
42 44 45 44 43 42 41 41 39 36 34 31 28 25 23 22 19 17 15 12 11 11 10 9 9 10 11 12 12 13 13 13 13 12 14 15 15 17 17 17 18 18 16
42 44 43 41 40 38 37 37 34 31 28 25 22 20 19 17 15 12 12 11 11 9 9 9 10 11 12 12 12 13 12 13 13 13 15 16 17 19 20 20 21 21 18
43 43 41 38 36 34 32 31 29 27 23 20 18 17 15 13 12 11 9 8 8 9 9 10 11 12 12 13 13 13 14 13 13 14 15 16 19 20 21 21 22 22 21
42 41 39 36 34 31 29 26 24 21 18 17 15 13 11 10 8 7 8 8 8 9 10 12 12 12 13 13 13 13 13 12 13 13 15 17 20 20 20 21 22 22 22
41 40 37 35 32 30 27 23 20 18 16 14 13 11 10 8 8 8 8 9 8 10 11 12 13 13 13 14 13 12 13 13 14 15 16 18 19 20 21 21 21 22 22
41 39 36 34 31 28 25 21 18 16 14 13 12 10 9 9 9 9 10 10 10 11 12 13 13 13 14 14 13 13 14 15 16 17 17 18 19 20 21 20 21 22 21
40 38 36 33 30 27 24 20 17 15 14 13 11 10 10 9 10 11 10 10 11 11 12 12 13 14 14 13 12 16 17 18 18 18 18 19 20 20 21 21 21 23 22
40 38 36 33 29 26 23 19 17 15 14 13 12 11 11 11 11 10 10 11 11 11 12 13 13 14 13 10 18 20 19 18 18 18 19 19 21 21 20 20 20 20 23
40 39 36 33 28 25 22 18 16 16 15 14 13 12 11 11 10 10 9 9 9 11 13 13 13 12 11 16 19 20 21 19 19 19 19 20 20 20 22 22 21 21 21
40 38 36 33 29 25 20 18 16 16 15 14 13 11 10 9 9 8 8 8 9 11 12 12 13 11 11 16 19 21 22 20 20 20 20 20 19 22 23 24 22 25 29
39 38 36 33 28 23 19 17 16 15 15 13 11 10 9 8 8 7 7 8 10 11 13 13 12 11 10 18 19 20 21 20 20 20 20 20 21 25 21 23 28 21 19
39 38 36 32 25 21 17 16 15 15 13 11 10 9 7 7 7 6 7 9 11 12 13 12 11 10 12 17 19 21 20 19 19 20 21 23 24 21 22 26 20 18 18
38 35 31 26 22 18 16 15 14 13 11 10 8 8 8 7 6 7 9 11 13 12 12 10 11 13 13 16 19 21 19 19 20 24 25 23 20 21 25 18 17 17 16
32 29 26 23 18 15 15 13 12 11 10 9 8 8 8 7 8 11 12 12 12 11 11 12 13 13 15 18 20 20 20 20 21 18 21 21 23 22 18 17 17 17 23
25 22 20 16 14 14 14 11 11 9 9 8 8 7 7 10 12 12 13 12 12 12 12 14 14 15 16 18 19 20 20 20 18 22 22 22 22 18 17 17 18 19 18
21 18 16 14 13 12 12 10 8 9 8 7 6 7 11 12 12 12 11 12 13 13 14 15 15 16 16 17 19 20 20 19 22 21 20 19 17 16 16 17 18 17 16
18 16 14 13 11 10 10 9 9 8 7 5 8 11 14 14 13 12 12 14 14 15 16 16 16 17 17 17 17 19 19 22 20 20 18 16 15 15 16 15 15 15 16
16 15 13 11 10 9 8 9 8 7 5 8 10 13 13 13 13 13 13 16 16 17 17 17 17 16 16 17 19 18 19 19 19 18 15 13 14 14 14 14 15 16 16
15 13 11 10 9 9 8 8 8 7 8 9 11 16 14 13 13 13 14 16 17 17 17 16 16 16 17 17 18 19 19 18 18 16 13 14 15 14 14 15 15 16 16

GFSMW_sfc_30mbdewp_030.txt.gz
Dewpoint
40 39 39 41 44 46 48 51 57 53 51 48 46 44 41 36 33 31 29 28 27 27 26 24 21 21 19 19 18 20 16 21 25 18 17 23 24 27 23 18 21 19 18
39 38 39 43 47 47 49 52 53 51 50 48 44 41 36 31 29 26 25 24 24 24 23 21 20 19 18 18 18 15 14 17 24 17 22 10 10 17 13 18 21 17 19
40 39 39 43 48 49 51 51 50 49 46 42 37 31 28 26 24 22 22 22 22 21 20 20 19 19 19 17 17 16 15 12 17 23 14 4 7 18 16 15 21 16 16
39 39 39 44 48 51 53 51 49 46 42 39 37 36 34 28 24 22 20 19 19 19 19 18 18 18 17 15 16 16 17 15 14 16 18 19 19 9 9 16 14 16 12
39 38 39 42 49 51 52 49 46 44 41 39 38 36 32 26 22 19 17 16 16 16 16 15 15 15 16 15 13 13 13 16 14 15 16 16 15 18 18 12 13 12 12
39 39 41 47 49 50 49 46 44 42 40 38 36 34 28 21 18 17 15 15 16 15 13 13 12 13 14 13 13 13 12 13 12 13 13 13 13 15 14 13 13 13 13
38 41 44 47 48 49 47 45 43 41 39 37 35 30 24 21 18 17 15 13 12 12 10 10 10 12 13 13 13 13 12 13 12 12 12 15 16 17 17 16 16 14 16
39 42 45 47 48 48 46 44 42 39 37 34 31 26 23 22 20 17 14 13 11 11 10 10 10 11 12 12 12 14 13 13 13 12 13 15 15 17 18 18 18 16 14
38 43 46 47 46 45 44 43 39 35 33 29 25 23 21 20 17 13 13 11 11 10 9 10 11 12 12 13 13 13 13 13 13 13 14 15 16 18 20 20 20 19 16
40 44 46 44 43 41 39 37 34 31 26 23 21 19 16 14 12 11 10 9 9 9 10 11 12 12 13 13 13 13 14 13 13 14 14 15 17 19 20 21 21 22 20
41 44 42 40 37 35 34 31 27 25 21 19 16 14 12 10 9 8 8 8 9 10 11 12 12 13 13 14 13 13 13 13 14 15 15 16 18 19 20 21 21 21 22
43 41 37 35 34 32 29 27 23 20 18 15 13 11 9 8 8 8 8 9 10 12 12 13 12 13 14 14 12 12 14 15 15 16 17 17 18 19 20 21 21 21 21
39 36 35 34 31 28 25 22 19 17 15 13 11 10 9 8 8 9 10 10 11 12 12 12 13 13 13 12 12 13 16 17 17 18 18 18 19 19 20 21 21 21 22
39 36 34 31 28 25 22 19 16 15 14 12 11 10 10 9 10 10 10 11 11 11 12 13 13 13 13 11 12 18 19 19 19 19 19 19 19 20 21 21 21 21 20
38 36 33 29 26 23 20 17 15 14 13 12 12 11 11 11 11 10 11 11 11 12 13 13 13 13 12 10 19 21 21 21 20 20 19 19 21 22 22 21 21 21 21
38 36 32 28 26 22 18 16 15 14 14 13 13 12 12 11 10 10 10 10 11 12 13 12 13 12 11 16 20 22 22 22 20 20 20 20 21 21 23 22 22 22 25
38 35 32 28 25 22 18 16 15 15 15 14 13 12 11 10 9 9 8 9 10 12 12 12 12 11 11 17 21 21 21 21 20 20 20 20 20 23 22 24 24 26 25
39 36 32 28 24 20 18 16 16 15 15 13 12 11 10 9 8 7 8 9 11 12 12 12 11 11 12 20 20 21 21 21 20 20 20 20 21 23 23 22 29 23 20
39 36 32 27 22 19 17 16 16 15 14 12 11 9 8 8 7 7 9 10 12 12 12 11 11 12 15 19 20 21 21 20 20 20 20 23 23 21 21 27 22 18 18
38 34 29 24 21 18 17 16 15 14 12 11 9 8 8 6 7 9 11 12 12 11 11 11 12 15 14 18 20 21 20 20 20 20 21 22 21 20 27 19 18 17 16
33 29 26 23 19 17 16 15 14 13 11 9 9 8 7 7 10 12 12 12 11 11 11 13 14 15 16 18 20 20 20 20 20 18 20 22 21 23 19 18 17 18 22
27 24 21 18 16 16 15 13 12 11 9 9 8 7 9 12 13 12 12 12 12 12 13 15 15 16 16 19 19 20 21 20 19 20 22 20 21 19 17 18 19 20 19
21 19 17 15 14 14 13 11 9 9 8 7 7 10 12 12 13 12 12 12 13 14 14 16 16 16 17 17 19 20 21 19 21 22 20 20 19 16 16 17 18 17 15
18 16 15 13 12 11 10 9 9 8 6 7 10 14 15 13 13 12 12 14 15 15 16 17 17 17 17 17 18 19 19 22 22 21 19 18 15 15 16 15 15 15 15
16 15 13 11 10 9 9 8 7 6 7 10 12 13 14 13 13 13 13 16 17 17 17 17 17 17 16 17 18 19 19 20 19 18 16 13 14 14 14 14 14 15 15
14 13 11 10 9 8 8 7 7 8 9 10 14 16 13 13 13 13 14 16 17 17 17 16 16 16 17 18 19 19 20 19 18 16 14 14 14 14 14 14 15 15 16

GFSMW_sfc_30mbdewp_033.txt.gz
Dewpoint
40 41 41 41 40 42 46 49 56 59 57 54 52 50 47 44 38 35 32 31 30 28 25 23 22 22 20 18 17 20 18 19 21 16 18 21 22 26 27 16 20 20 20
39 41 40 40 41 43 47 52 57 55 55 54 51 48 45 39 34 30 27 27 27 25 23 22 21 21 20 18 17 18 17 18 22 15 19 12 11 18 15 21 20 18 18
36 39 40 40 42 46 48 51 54 52 51 45 42 38 36 33 29 25 24 24 23 22 22 22 20 21 21 18 19 19 17 15 20 19 10 8 8 14 14 14 18 14 13
33 36 39 40 42 46 51 51 51 49 46 43 42 42 42 37 30 24 22 21 21 21 20 20 19 19 19 18 17 17 18 17 14 17 16 15 14 8 6 13 13 15 11
33 37 39 40 43 49 51 51 49 46 43 43 43 44 43 32 23 20 18 18 19 19 18 18 18 17 17 16 16 16 16 16 13 15 15 14 14 17 15 7 9 12 13
34 38 40 41 45 50 51 49 47 44 42 42 40 38 34 23 19 18 16 16 17 16 16 16 17 16 16 16 17 16 16 15 14 14 14 12 10 10 11 10 11 13 12
35 38 40 43 47 50 50 47 45 43 40 39 37 32 26 22 19 17 16 15 13 13 13 14 14 15 17 17 17 16 16 15 14 14 13 14 15 15 15 15 14 14 15
34 38 41 45 47 50 48 46 44 41 39 37 32 27 23 22 19 17 16 14 13 12 12 13 14 14 15 15 15 16 16 15 15 15 15 14 16 16 17 17 17 15 12
29 34 42 46 48 49 47 45 42 39 37 32 27 25 23 22 19 16 15 13 12 11 12 13 14 14 15 15 15 14 14 15 15 16 16 16 16 17 18 19 19 17 15
30 36 43 46 48 48 45 43 39 36 32 28 25 22 20 17 15 14 12 12 11 11 13 14 14 14 14 14 14 14 15 14 15 15 16 16 17 18 19 20 20 20 19
33 38 45 46 45 42 41 37 33 30 26 23 19 17 15 13 12 10 10 10 11 13 13 13 13 14 14 14 13 12 14 15 16 17 17 18 18 18 19 20 20 20 19
40 43 42 39 39 37 35 33 29 25 21 18 16 13 12 10 9 9 10 11 12 13 13 13 13 13 14 13 11 12 15 17 18 18 19 18 18 19 19 19 19 20 20
39 37 37 37 36 33 30 27 23 19 16 14 12 11 10 9 9 9 10 12 12 13 13 14 13 13 13 12 11 15 18 19 19 20 19 19 19 18 18 19 20 21 21
36 36 35 33 31 28 25 21 18 16 14 12 11 10 10 10 10 11 11 12 12 13 13 13 13 13 12 12 14 19 21 21 21 21 21 20 19 19 21 22 22 23 22
36 34 32 29 26 23 20 18 15 14 13 12 12 12 11 12 12 12 13 12 13 14 14 13 13 13 11 10 19 22 22 22 22 21 20 19 21 23 23 22 22 21 22
37 33 30 27 24 21 18 16 15 14 14 14 13 13 12 12 12 12 11 13 13 13 13 13 13 13 10 17 21 23 22 22 21 20 19 20 22 22 23 22 22 23 23
36 32 29 26 22 19 17 15 14 15 14 14 13 13 12 11 11 10 11 12 12 13 12 12 12 11 12 19 22 22 22 21 20 20 20 19 20 22 22 23 24 24 30
35 32 28 24 20 18 16 15 15 15 15 13 13 12 11 10 9 9 10 11 12 12 12 11 11 12 13 21 21 22 21 21 21 20 20 20 21 22 23 21 28 27 21
35 32 28 23 19 17 16 16 16 15 14 12 12 10 9 8 8 9 11 11 12 11 11 11 11 13 16 20 21 21 21 20 20 20 20 21 20 21 21 25 25 19 18
34 30 25 21 19 17 16 16 15 14 12 11 10 9 8 7 8 11 12 12 12 11 11 11 14 16 15 18 21 21 20 20 20 20 20 20 22 20 24 22 19 19 16
31 26 24 21 18 17 16 15 14 13 11 10 9 8 8 9 12 12 12 11 11 11 12 13 15 16 17 18 20 21 20 20 21 19 19 21 20 23 20 19 17 17 22
26 23 20 18 17 16 15 14 12 11 10 9 8 9 12 12 13 13 12 12 12 12 12 15 16 16 17 19 19 20 21 21 19 20 21 20 22 19 18 18 18 20 20
22 19 18 16 15 15 14 12 10 9 8 8 11 12 12 13 13 12 13 13 14 13 15 16 16 16 16 17 19 20 21 20 21 22 21 21 19 17 16 17 18 18 15
18 17 15 14 12 12 11 10 9 8 8 11 13 13 13 13 12 13 13 14 15 15 16 17 16 17 16 17 17 19 19 20 22 21 22 18 15 15 16 15 14 14 15
16 15 13 12 10 10 9 8 8 9 10 12 13 14 13 13 12 13 14 17 17 18 17 17 17 16 16 16 19 19 19 21 20 19 17 12 13 13 13 13 14 14 15
14 12 11 10 8 8 7 7 9 10 11 14 15 14 13 13 13 14 14 17 16 17 16 16 16 16 17 18 19 19 22 19 19 16 13 13 13 13 13 14 14 15 16

GFSMW_sfc_30mbdewp_036.txt.gz
Dewpoint
35 37 39 40 42 42 42 42 44 48 54 57 59 60 60 58 55 51 48 42 38 33 33 27 26 25 23 21 19 19 20 19 19 17 16 20 19 25 26 23 16 20 18
28 30 35 38 41 41 42 44 47 51 55 57 57 57 56 52 47 42 39 38 35 28 28 26 24 24 21 20 19 19 18 18 20 15 19 14 13 18 22 15 18 13 15
24 25 28 35 39 41 42 45 49 54 56 56 56 53 46 41 38 34 33 31 28 25 26 24 23 22 21 20 20 20 17 17 19 17 10 10 11 11 12 16 12 13 12
27 27 27 30 35 40 44 47 51 54 56 55 51 49 50 46 41 36 33 29 28 26 22 22 21 21 20 19 18 18 18 16 16 17 13 12 10 7 7 11 12 13 11
25 26 29 30 33 40 46 49 52 54 53 51 51 52 50 46 39 33 26 23 22 21 20 19 19 18 18 17 17 18 17 16 13 14 13 11 12 12 11 10 9 11 12
24 27 29 32 34 40 49 51 51 51 51 51 51 52 48 40 33 24 22 22 22 20 18 18 18 17 17 18 18 18 18 15 14 12 12 10 8 7 9 8 9 11 12
23 26 33 35 38 41 50 51 50 50 50 50 50 50 43 39 33 24 21 19 18 17 17 16 15 17 18 19 18 18 17 16 14 14 11 12 12 12 12 12 12 12 13
27 27 32 38 40 43 48 50 49 48 48 48 47 44 38 31 24 22 19 19 17 16 16 15 15 15 16 16 17 17 16 16 15 16 15 14 13 14 14 15 15 13 11
26 29 29 36 42 45 49 49 48 47 46 46 40 32 28 23 23 19 20 16 16 14 14 14 14 15 15 15 15 13 13 13 14 15 16 16 15 16 17 17 17 16 13
29 33 32 35 41 46 49 49 47 45 44 41 36 29 25 23 20 19 17 15 13 12 14 14 14 14 15 14 14 13 13 12 13 14 16 16 16 17 17 17 17 17 16
34 37 35 38 44 47 49 47 45 42 39 36 32 25 20 20 20 18 16 14 12 13 13 13 13 13 13 13 11 11 12 13 15 17 17 17 18 17 16 16 16 16 16
39 41 40 43 46 47 46 44 41 38 34 30 26 21 17 16 16 15 13 12 12 12 12 12 12 12 12 11 9 9 13 15 16 17 18 17 17 17 16 15 15 16 17
40 40 41 42 43 44 42 40 36 30 27 24 19 16 15 15 14 12 11 11 11 12 12 13 12 11 12 10 9 12 15 17 18 18 19 18 17 16 16 17 18 19 19
39 39 40 41 41 41 38 33 26 21 19 16 15 15 15 14 12 11 11 12 12 12 13 12 12 12 10 10 12 16 18 19 19 19 20 19 17 16 18 19 19 18 20
39 38 38 38 38 33 27 22 19 16 15 15 15 15 14 13 12 12 12 12 12 13 13 12 12 12 11 8 17 19 20 20 19 18 18 17 18 22 23 22 20 20 20
39 37 36 35 31 25 21 18 16 15 15 16 16 15 13 13 13 12 12 13 14 13 13 13 14 14 10 17 22 23 20 19 18 17 16 16 18 18 21 21 22 23 25
39 35 34 30 26 21 19 17 15 16 16 16 15 14 13 12 12 11 12 14 13 14 13 12 11 10 11 18 22 22 20 19 17 17 17 17 17 19 19 20 21 25 25
37 34 30 25 22 20 17 16 16 17 16 15 14 12 12 11 10 10 12 13 13 13 11 11 10 11 11 20 21 22 20 18 18 17 18 18 18 18 20 21 25 26 22
35 32 27 24 22 19 17 17 17 17 16 14 13 11 10 9 9 11 12 12 12 12 11 10 10 11 12 17 21 21 18 16 16 17 17 19 18 19 21 24 28 18 16
32 29 25 23 21 18 18 17 16 16 14 13 11 10 9 8 10 12 13 12 11 10 10 9 11 13 12 14 20 21 17 16 16 17 17 17 19 20 23 24 18 18 14
29 26 23 21 18 18 17 16 15 14 12 11 9 8 9 10 12 13 13 12 11 10 10 9 11 12 13 14 19 21 19 18 17 17 15 17 18 21 21 20 17 16 19
26 22 19 18 17 17 16 16 14 12 10 9 9 10 12 12 14 15 14 13 12 10 9 10 9 11 12 14 16 20 21 21 18 17 19 19 21 21 19 18 18 19 21
24 22 20 18 17 17 15 12 11 10 9 10 11 12 13 13 14 14 15 12 11 9 10 10 10 10 11 12 15 18 19 19 19 21 21 21 20 18 15 15 18 18 15
21 20 18 16 15 14 12 10 10 9 10 10 11 12 12 12 12 12 13 12 10 10 11 10 11 11 11 11 13 16 17 17 21 21 21 17 16 13 14 13 13 14 15
19 18 16 14 13 11 10 9 9 10 11 13 14 14 13 12 12 12 12 12 13 16 13 12 12 12 12 13 19 20 19 21 21 20 15 12 10 12 12 12 14 15 15
16 15 13 12 10 9 9 9 10 11 11 11 12 12 12 12 11 10 9 16 16 17 16 15 16 15 16 18 20 19 21 20 19 16 12 11 12 12 12 14 15 16 18

GFSMW_sfc_30mbdewp_039.txt.gz
Dewpoint
33 34 36 38 38 38 40 41 41 43 45 49 53 57 58 63 63 62 61 56 51 45 41 37 35 32 29 27 24 23 24 23 22 22 21 24 21 25 25 27 22 20 20
28 29 32 35 37 38 40 41 41 43 46 51 55 57 60 59 58 57 55 51 46 40 35 32 31 28 26 24 23 24 23 22 22 18 22 19 19 20 24 21 19 17 16
24 24 25 29 35 37 39 41 42 44 48 52 56 58 54 49 46 46 46 44 41 34 32 30 29 27 27 26 25 24 21 21 22 19 14 14 17 13 15 17 17 16 15
23 24 24 24 26 34 41 43 43 46 51 55 56 57 53 49 45 43 42 39 34 32 29 27 26 26 25 25 23 22 22 19 20 21 15 14 13 11 11 14 15 14 13
22 23 25 27 28 30 40 45 45 48 54 56 56 55 50 50 43 40 38 35 32 30 27 25 25 24 23 20 21 21 19 18 15 16 16 12 15 13 13 14 14 14 14
21 22 24 26 29 33 39 46 48 51 54 56 53 52 52 46 39 36 33 32 31 28 24 23 23 22 22 22 21 21 21 18 16 14 14 12 11 9 10 10 12 13 15
21 20 21 26 29 33 36 46 49 51 54 53 52 52 53 44 40 34 33 31 26 26 23 22 21 22 22 22 21 21 21 18 17 17 14 13 13 13 12 13 14 15 16
20 26 27 27 34 36 38 45 49 50 51 52 52 53 48 44 41 36 32 26 26 23 22 21 20 19 19 19 19 20 18 18 17 18 18 17 15 15 14 16 17 16 16
23 26 28 31 29 37 40 46 49 49 50 51 52 50 45 42 37 32 26 23 22 20 19 19 17 17 17 17 17 15 15 15 15 17 18 18 17 17 18 18 18 18 16
25 28 32 35 30 37 42 46 48 48 49 50 49 46 38 31 25 24 23 21 18 18 18 17 17 16 16 16 15 15 15 13 14 15 16 17 18 18 18 18 18 18 18
29 32 36 38 34 38 45 47 48 47 48 45 38 34 29 26 23 21 20 18 17 17 17 16 15 15 14 14 13 12 12 13 15 17 18 18 18 18 18 18 18 17 17
26 37 39 40 39 43 47 48 47 46 44 38 32 28 24 22 21 20 19 20 17 16 15 14 13 13 13 11 10 10 12 14 16 17 17 18 17 18 18 17 17 17 18
28 38 39 41 43 47 47 46 44 42 38 33 27 24 23 22 20 20 20 16 14 13 13 13 13 12 12 11 10 11 13 15 17 18 18 18 18 18 17 17 18 19 20
34 39 40 40 42 45 44 42 39 35 33 28 23 20 19 18 17 17 16 15 14 13 14 13 13 12 11 11 11 15 18 19 19 19 19 19 18 18 18 19 21 20 20
36 39 40 40 41 42 40 34 31 30 27 23 20 18 17 16 16 15 14 14 14 14 13 13 13 13 11 9 17 19 20 19 18 19 18 17 18 19 21 21 22 22 22
40 39 38 39 39 34 30 26 23 20 19 19 18 18 17 16 16 15 14 15 15 14 14 14 15 17 11 18 22 24 21 19 17 17 16 16 17 17 18 21 21 21 22
41 38 37 36 29 25 22 19 18 19 19 18 17 16 16 16 15 15 16 16 14 15 14 13 12 12 12 17 22 23 21 19 18 17 17 17 16 18 19 19 20 22 23
38 36 33 29 23 20 18 18 20 20 18 17 16 16 16 14 14 14 15 14 14 14 13 12 12 11 12 18 21 22 20 17 17 17 17 17 18 18 19 20 24 25 26
36 31 27 22 20 20 21 20 19 19 18 17 18 17 14 13 13 13 13 13 13 13 12 11 11 11 10 16 19 22 19 16 15 15 17 17 18 18 20 22 24 25 20
28 26 24 22 24 26 24 26 26 25 24 20 14 12 11 12 13 14 14 13 12 11 11 11 11 11 12 12 16 21 19 15 16 16 17 17 17 19 21 21 24 20 18
33 32 31 30 31 31 29 25 21 16 14 12 11 11 12 13 14 14 13 13 12 11 11 10 10 10 11 13 16 19 20 19 19 20 17 17 19 21 23 22 20 18 19
25 24 22 20 20 19 17 15 13 12 11 11 11 12 13 13 16 16 15 13 12 11 10 9 8 9 10 11 13 17 20 21 20 18 18 20 22 22 20 19 17 18 20
22 21 20 19 19 19 17 14 12 11 12 12 12 13 14 16 17 17 17 13 11 9 8 8 9 10 11 11 12 15 18 19 19 19 21 21 20 18 16 14 17 16 15
22 20 18 16 14 13 12 11 11 12 12 12 13 13 13 13 13 13 14 12 10 8 9 8 9 10 11 11 13 18 19 19 20 22 22 19 16 13 13 13 13 14 15
21 19 17 14 12 11 10 11 12 12 12 13 13 14 13 12 12 12 11 10 11 15 13 12 12 12 12 13 19 20 20 20 22 20 18 14 11 13 13 13 14 16 17
19 17 14 12 10 10 11 12 13 14 13 12 12 12 12 12 11 9 8 17 14 15 17 16 16 16 17 19 20 20 20 20 19 18 13 12 14 14 14 14 16 17 18

GFSMW_sfc_30mbdewp_042.txt.gz
Dewpoint
34 34 35 36 36 35 37 43 44 44 44 46 54 58 59 62 62 62 61 60 54 52 46 42 38 35 31 29 26 27 26 23 23 25 24 25 23 28 26 26 25 23 22
31 31 32 35 37 38 38 38 42 44 44 45 50 55 61 61 62 62 60 55 52 45 40 38 34 31 27 25 24 25 24 24 23 18 22 21 22 23 22 27 21 19 18
26 28 29 30 34 36 38 39 41 42 45 47 56 56 53 52 53 53 52 49 46 42 36 34 31 28 28 27 26 25 25 24 23 18 16 16 18 13 20 20 21 16 18
25 25 25 26 28 32 37 38 40 43 45 49 56 56 57 56 50 49 47 45 43 38 35 34 32 30 29 26 25 26 23 23 21 20 18 15 14 12 9 17 17 18 14
24 24 25 26 26 28 35 39 40 44 46 51 56 56 54 49 47 43 41 40 38 36 33 31 27 27 27 22 23 22 20 19 19 19 17 15 16 15 14 13 15 15 15
21 23 22 24 28 31 31 35 44 44 50 54 57 55 51 46 43 40 39 37 35 33 31 28 28 26 24 24 24 23 20 18 17 16 15 13 12 12 12 13 12 13 15
20 22 22 24 28 28 33 35 42 46 53 56 56 52 51 45 42 40 39 35 33 31 29 27 25 25 25 24 24 23 21 20 20 18 17 15 14 14 14 14 15 16 17
21 22 26 28 30 32 33 35 45 49 54 56 54 52 45 42 40 38 36 34 31 30 29 26 25 23 23 23 23 22 21 20 20 19 19 19 18 17 16 17 17 17 18
21 25 28 32 34 35 37 37 46 50 54 54 53 49 44 41 38 36 35 33 31 27 27 25 21 20 20 20 20 19 17 16 18 18 19 19 19 19 19 20 19 18 17
25 27 34 37 39 39 37 39 47 50 52 52 50 46 43 39 37 34 31 26 24 22 21 19 19 18 18 17 17 16 15 14 16 17 16 18 19 19 19 19 20 20 19
26 28 37 38 41 41 39 42 48 50 51 51 46 35 30 30 30 27 24 21 22 20 19 18 18 17 16 15 15 13 14 13 15 17 18 19 19 19 19 19 19 18 18
25 28 39 39 41 40 44 45 48 49 42 38 32 30 26 23 23 22 20 21 21 21 18 17 16 15 14 12 11 11 11 14 16 17 18 18 19 19 20 19 18 18 19
29 36 39 40 41 44 47 48 48 39 34 30 27 25 24 24 25 21 22 20 19 17 18 18 17 14 13 11 10 12 14 16 17 19 19 19 19 19 19 19 19 21 21
33 36 40 40 40 47 47 43 38 33 29 26 24 24 25 23 20 20 19 17 16 16 15 14 14 14 12 12 12 17 18 20 20 20 20 20 19 19 19 20 20 21 22
34 37 40 40 42 44 39 35 33 28 25 24 23 23 21 20 19 18 18 19 17 15 15 14 14 13 13 15 19 22 23 21 20 19 19 18 20 20 20 20 21 22 23
39 39 39 40 40 34 30 30 28 26 23 21 20 19 17 17 17 16 17 17 16 15 15 15 18 17 11 20 23 24 24 22 20 19 19 18 20 18 19 20 21 21 21
41 38 38 30 27 25 24 21 20 21 20 20 20 20 20 20 21 22 21 22 16 16 14 14 13 12 17 20 21 23 23 22 21 19 18 18 17 19 19 21 20 21 22
39 37 31 25 23 21 19 19 19 20 19 20 18 18 18 18 18 18 17 16 16 15 13 13 12 12 15 19 20 22 22 20 18 18 16 17 18 19 20 20 22 24 25
32 27 23 20 18 19 21 20 20 19 21 20 21 21 19 18 19 20 16 15 14 13 12 12 12 11 12 19 17 20 21 19 17 17 18 19 19 20 19 22 23 24 26
22 21 20 21 22 21 22 24 24 26 28 28 29 30 30 29 22 15 14 14 14 12 12 11 11 12 12 13 16 19 20 19 19 20 21 21 19 19 21 22 24 25 20
27 28 30 32 33 34 33 32 32 32 32 32 31 26 19 15 15 15 15 13 12 12 11 10 10 10 11 13 14 17 19 19 21 21 20 19 20 21 23 23 20 19 19
36 35 35 36 37 36 34 32 31 31 26 17 14 15 15 16 17 16 14 13 12 11 9 9 9 11 11 13 14 15 17 19 20 19 19 21 22 22 20 19 18 18 19
22 25 27 26 22 19 15 12 12 14 14 14 15 17 18 19 19 17 16 13 11 9 9 9 10 11 12 12 16 19 19 20 20 20 21 22 21 19 17 15 16 16 15
27 24 21 18 15 14 13 13 13 14 14 14 14 14 14 13 13 14 14 11 10 10 10 11 12 13 13 14 16 20 20 21 20 22 23 20 17 15 15 14 14 15 16
19 16 14 12 11 12 12 13 14 14 14 14 15 14 14 13 12 12 11 11 17 15 15 16 16 15 16 17 20 20 20 20 21 20 18 15 13 15 15 15 15 16 17
16 14 12 11 11 12 14 15 15 14 13 13 13 14 13 12 10 9 10 17 14 14 16 15 14 16 17 19 19 20 20 20 19 16 13 14 15 15 15 15 16 17 18

GFSMW_sfc_30mbdewp_045.txt.gz
Dewpoint
34 35 35 34 33 33 36 39 44 57 59 60 62 62 61 61 61 61 59 60 57 53 51 48 42 36 31 30 26 26 24 21 23 24 23 27 25 26 25 26 24 24 23
30 32 33 34 35 36 36 36 43 48 54 57 59 61 61 62 62 62 61 59 54 52 48 43 38 34 31 27 26 25 24 23 22 17 24 20 21 23 25 28 26 22 21
29 30 30 31 31 33 36 37 39 44 44 46 55 56 57 57 59 59 57 53 51 48 45 39 35 31 28 26 25 26 25 23 21 18 17 17 17 15 20 23 22 16 18
26 27 27 28 29 30 33 37 38 40 44 48 52 56 58 59 57 55 49 49 47 45 43 37 34 31 30 27 26 26 25 25 21 19 18 15 14 8 6 15 18 16 16
25 25 25 26 26 26 27 32 37 39 42 47 52 55 58 55 51 49 46 46 44 42 40 37 36 31 30 27 24 22 21 22 21 22 18 15 16 16 13 11 14 16 15
23 24 25 26 27 29 29 32 36 39 42 47 55 55 54 51 49 46 45 43 43 40 37 35 35 35 31 28 24 21 19 18 17 17 15 14 12 14 13 13 13 13 15
21 20 22 25 29 30 30 32 34 37 42 49 56 55 52 51 49 45 44 41 38 36 34 31 33 31 29 28 25 21 20 20 18 17 16 15 15 15 15 14 14 15 18
20 22 24 30 34 36 36 37 34 38 45 55 55 52 49 49 47 45 43 41 37 36 32 31 31 29 30 28 25 22 21 20 20 19 18 18 18 18 17 16 16 16 18
20 23 33 35 36 36 37 39 38 42 52 55 52 47 47 46 44 42 40 40 35 33 29 29 28 28 26 25 22 20 18 18 19 19 20 19 20 20 20 20 20 18 16
25 30 36 36 36 37 39 41 39 44 54 53 47 45 44 42 40 38 36 32 30 28 27 29 28 26 23 21 20 18 16 15 17 18 16 17 20 20 20 20 20 20 19
24 26 37 39 39 38 41 41 41 49 53 49 45 43 40 38 37 36 32 29 25 25 25 23 22 20 18 18 17 17 15 14 15 17 18 19 20 19 20 20 20 19 19
28 36 39 39 39 40 43 44 47 50 45 40 38 36 35 33 31 31 27 23 23 23 21 20 19 17 16 16 16 11 12 14 15 17 18 18 19 19 20 20 19 19 19
31 35 39 39 39 41 48 47 42 37 36 33 30 29 27 26 24 22 23 23 23 22 21 24 26 26 26 20 11 13 15 16 18 19 19 19 19 19 20 20 19 20 20
35 35 38 39 40 46 42 37 33 31 30 29 27 27 26 24 23 22 22 22 21 21 23 19 18 16 14 13 16 19 20 21 21 21 21 20 19 19 19 19 20 20 21
40 37 38 40 42 39 35 31 30 29 29 29 27 27 26 25 23 21 21 21 22 24 26 27 27 22 15 17 20 22 23 22 21 20 19 19 21 21 21 20 21 21 22
40 39 40 39 34 33 30 26 28 27 27 27 24 23 23 21 20 20 20 20 20 19 20 20 19 18 22 24 25 25 23 22 20 20 20 19 21 19 20 20 20 21 21
41 39 31 27 26 25 25 25 22 22 22 20 19 19 19 21 23 25 24 25 25 25 27 27 23 15 21 23 24 23 22 21 20 19 18 17 17 20 19 21 22 21 23
37 28 24 22 20 20 21 21 21 21 20 21 21 22 24 26 26 26 27 27 26 24 21 16 13 14 21 21 21 23 21 20 19 17 18 19 20 20 21 21 22 23 24
21 20 19 20 21 21 21 21 21 23 25 25 28 29 29 29 29 29 28 29 28 22 14 13 12 12 20 20 18 21 21 19 19 20 20 22 21 22 21 22 23 24 25
22 22 22 22 21 24 25 26 27 28 28 29 31 30 30 31 30 28 22 18 14 14 13 12 11 16 11 15 17 18 19 19 19 20 21 23 21 21 22 23 23 22 21
30 29 31 30 30 31 30 31 31 31 33 33 34 34 33 32 30 25 18 14 13 12 11 10 10 10 12 13 15 16 18 18 20 21 20 20 22 22 23 22 20 19 19
33 33 33 33 33 35 33 33 32 33 33 32 32 30 26 22 19 16 15 13 12 10 9 9 11 12 12 18 17 20 21 21 21 20 20 21 23 22 21 19 18 19 19
34 34 32 32 32 34 34 32 32 31 27 21 19 18 18 18 17 15 14 11 9 9 9 10 11 12 14 15 18 20 21 21 21 21 22 23 21 18 16 17 18 17 15
25 25 23 23 19 14 15 18 17 17 16 16 16 16 16 15 15 14 13 11 11 9 11 13 13 14 16 17 18 21 21 21 21 22 22 19 16 16 16 16 16 16 16
19 16 14 13 13 13 14 15 15 14 14 15 15 15 15 13 11 11 12 15 15 14 13 16 15 15 16 18 20 20 20 21 20 19 15 14 14 16 15 15 16 16 17
15 14 13 13 13 14 15 15 16 15 14 13 13 13 12 10 9 8 9 17 16 16 15 14 13 15 16 18 18 19 19 20 18 14 13 14 15 15 15 16 16 17 18

GFSMW_sfc_30mbdewp_048.txt.gz
Dewpoint
33 34 34 34 34 34 34 37 48 58 61 63 63 62 62 61 61 59 57 58 57 55 53 50 45 39 35 32 27 25 23 21 23 23 24 27 26 25 26 25 24 25 23
30 31 33 34 35 35 35 34 40 51 59 62 63 62 62 61 62 61 58 59 56 55 53 49 44 37 34 30 26 26 24 22 22 19 24 21 22 23 25 27 27 24 23
28 29 30 31 32 33 34 36 37 43 55 60 61 59 59 59 60 61 60 59 56 55 52 47 42 36 34 30 27 26 25 22 20 19 21 21 19 18 18 23 22 17 19
27 28 29 29 30 31 32 33 36 39 46 53 58 60 59 59 60 61 59 55 53 54 49 44 40 37 33 29 27 27 27 24 19 19 17 15 16 9 7 16 19 16 16
26 26 27 28 29 29 29 30 33 36 40 46 53 58 58 59 57 55 54 52 51 50 47 44 41 36 33 30 30 30 27 25 22 22 18 16 17 15 11 8 13 17 16
23 25 25 26 26 28 29 29 30 32 38 43 50 55 58 55 54 52 51 49 48 47 45 42 39 37 35 33 32 26 26 22 21 19 15 14 12 13 14 13 13 13 15
22 21 23 25 29 30 33 33 32 32 35 41 47 52 56 55 54 52 51 47 45 43 43 42 39 37 37 33 27 24 23 21 18 16 15 15 14 15 15 14 14 14 18
24 21 24 29 34 36 36 36 36 37 36 37 48 54 54 53 52 51 49 48 45 43 40 38 38 35 31 29 27 25 23 22 20 18 17 18 18 18 16 16 15 15 18
29 27 31 35 35 35 35 36 37 37 39 41 52 53 52 51 50 48 46 44 43 40 36 36 33 31 30 29 28 26 23 21 20 20 20 19 20 20 20 20 20 17 15
32 31 31 36 37 37 37 39 41 40 40 49 51 50 49 49 47 46 45 42 41 36 34 31 29 28 28 26 24 21 20 19 19 20 18 18 20 20 20 20 20 21 19
36 33 28 35 39 39 39 42 43 43 49 50 47 46 45 45 44 44 42 39 36 31 30 28 27 25 24 23 21 18 16 16 17 18 17 18 20 19 20 20 20 20 20
37 35 33 39 39 39 41 46 46 48 50 46 44 43 42 42 41 38 37 32 30 30 27 24 22 21 21 18 18 17 18 16 17 17 18 18 19 19 20 20 20 19 19
38 37 34 39 39 39 46 45 45 44 42 40 40 40 39 39 36 34 28 27 26 23 22 21 23 25 27 28 27 24 21 19 18 20 20 20 20 19 20 20 20 20 20
40 40 40 37 38 44 40 37 35 36 34 37 36 34 32 29 28 26 24 23 22 24 26 28 29 29 28 24 22 21 23 25 25 24 22 20 20 19 19 19 20 20 20
41 40 40 39 41 36 32 32 34 35 35 33 31 28 25 25 24 23 24 25 25 26 27 28 29 30 30 26 26 27 26 23 22 20 20 20 22 24 22 21 21 21 21
41 42 34 33 31 28 29 31 33 34 34 32 30 30 26 23 24 24 28 28 28 28 29 29 27 29 31 33 32 28 23 21 19 19 19 18 20 20 23 22 21 21 22
39 34 26 23 24 26 28 28 29 28 28 27 27 24 24 24 25 27 28 28 29 30 30 31 31 30 31 31 30 27 21 19 19 18 17 18 19 22 20 22 22 23 24
24 22 21 21 23 24 25 28 31 30 30 29 29 29 30 31 31 31 31 31 32 32 32 30 28 27 27 25 23 24 20 19 19 19 19 20 21 22 23 22 22 23 24
21 22 22 22 22 21 23 24 26 28 29 30 30 31 32 32 31 31 32 32 31 30 26 23 21 25 26 22 21 23 20 19 18 20 20 23 22 23 22 22 23 24 24
23 23 22 23 24 25 26 27 28 29 30 32 33 33 33 32 32 32 31 31 30 26 20 15 13 14 11 19 17 20 19 18 18 20 21 22 21 22 23 24 22 20 19
31 31 30 30 30 29 30 31 32 32 32 32 32 33 33 32 32 31 29 25 21 14 11 10 11 13 14 14 18 18 19 19 21 21 20 20 22 24 23 21 19 19 20
32 33 32 32 34 34 33 32 30 32 32 33 32 32 32 32 30 25 20 14 11 10 9 11 12 13 14 20 20 21 22 23 21 21 21 21 25 21 20 19 19 20 20
33 33 32 31 32 34 33 31 31 32 32 32 31 30 26 21 17 14 12 10 10 10 10 11 11 12 15 16 21 22 22 21 21 22 22 23 20 18 17 18 19 19 16
34 34 34 29 29 30 32 32 31 31 27 19 18 18 16 15 14 13 13 10 7 8 10 12 12 14 16 17 19 21 21 22 21 22 18 17 16 17 17 17 16 16 17
21 18 15 15 15 18 18 18 17 16 15 16 16 16 14 11 11 13 13 13 14 12 11 14 14 14 15 17 20 20 20 21 20 18 14 14 15 15 16 16 16 17 17
15 15 14 14 14 15 15 16 16 15 14 14 13 13 10 10 10 12 14 18 16 15 16 15 16 15 17 18 19 19 19 20 18 15 14 14 15 16 16 16 17 17 18

GFSMW_sfc_30mbdewp_054.txt.gz
Dewpoint
34 34 34 34 35 35 35 36 37 51 64 65 64 64 63 63 64 63 63 61 58 57 57 57 56 54 51 48 39 30 28 25 25 24 25 26 27 25 28 31 27 29 26
29 30 31 32 33 33 34 35 36 40 56 63 64 64 63 63 64 63 63 62 59 57 56 56 54 51 49 43 35 31 27 24 25 23 24 23 23 25 26 27 25 25 25
25 27 29 29 30 32 33 34 35 37 48 60 63 61 62 61 62 62 62 61 59 58 57 56 53 49 46 43 38 32 31 27 24 24 26 25 25 22 20 25 27 24 23
26 25 25 27 28 29 31 32 34 36 39 57 61 61 60 60 61 62 61 60 59 58 57 56 53 49 46 44 40 40 38 35 32 24 20 18 24 20 17 18 21 18 19
31 31 26 25 27 28 29 31 32 34 37 40 58 61 60 60 59 60 61 60 58 58 58 56 52 48 46 46 43 41 38 37 35 26 21 17 16 14 14 13 17 18 18
35 35 33 31 31 32 32 30 28 29 32 36 45 57 60 60 58 58 59 57 56 57 57 55 52 48 47 46 44 42 40 36 30 27 22 20 17 15 13 12 14 15 15
37 36 35 33 34 34 36 36 35 33 32 32 37 47 56 59 58 58 58 57 55 55 55 54 52 49 47 46 45 42 40 36 30 26 22 19 17 18 16 14 14 12 16
38 38 37 35 35 33 34 36 35 35 36 37 36 39 45 53 57 57 57 57 55 55 55 54 51 48 46 45 43 41 36 30 27 22 19 18 18 18 16 16 16 13 16
38 39 38 37 36 36 36 37 38 38 39 40 40 40 42 46 52 55 56 55 54 53 51 49 48 47 45 43 37 31 27 25 24 24 24 24 23 22 21 20 18 14 11
38 39 38 39 38 36 37 39 39 42 44 45 44 45 46 48 50 52 52 51 49 48 47 46 44 42 38 34 30 27 24 24 25 24 21 22 23 23 23 23 21 20 17
39 39 39 40 39 39 40 40 43 43 44 47 47 46 47 48 49 48 47 46 44 44 43 42 40 37 34 30 26 24 24 24 24 23 22 22 23 23 24 25 24 24 24
41 41 42 41 41 41 40 41 38 38 40 44 44 45 45 45 46 45 44 42 43 42 40 37 34 31 28 24 22 22 22 22 22 22 23 23 26 27 26 28 28 24 22
38 37 39 41 39 37 35 36 36 37 39 41 42 42 43 44 43 43 40 40 37 35 33 30 27 24 24 23 24 25 27 28 29 30 31 32 32 32 32 29 24 24 22
32 34 38 35 32 33 35 36 36 36 36 37 39 40 41 39 37 36 35 33 30 28 26 26 27 28 29 30 31 31 31 31 32 32 32 31 30 28 27 25 21 20 21
27 28 27 28 28 30 32 33 34 34 32 30 29 29 30 30 29 28 28 28 29 29 29 29 30 31 31 31 32 33 33 32 31 30 29 29 29 30 28 26 24 22 21
24 22 23 25 28 29 29 30 31 30 29 30 28 29 30 31 31 31 30 30 30 30 31 32 33 34 35 35 35 33 32 32 31 28 27 23 22 24 23 23 23 24 23
22 21 23 25 28 31 32 31 31 31 31 31 31 32 32 32 32 32 32 32 32 33 33 34 35 35 37 37 36 33 30 28 22 17 18 18 20 23 22 24 24 25 25
25 22 22 23 25 30 32 33 34 34 34 34 34 34 34 33 33 33 33 33 33 33 33 32 32 32 34 35 32 30 26 19 18 19 20 20 22 23 23 23 24 24 25
25 24 25 24 27 27 30 30 31 32 33 33 33 34 34 33 33 32 32 32 32 31 31 31 32 32 32 33 30 21 19 18 18 19 21 23 22 23 23 23 25 25 23
28 28 29 30 30 31 32 32 33 33 32 33 33 34 33 32 31 31 31 31 31 31 31 30 30 30 21 23 20 23 19 18 20 21 21 22 22 23 24 25 22 19 19
32 33 33 33 33 33 33 32 32 31 33 33 33 33 32 31 32 31 31 31 28 21 14 15 16 19 21 23 26 24 21 22 22 21 21 21 24 24 24 21 19 19 21
32 33 33 33 34 34 33 31 31 33 33 33 32 32 32 32 32 30 24 13 12 12 12 12 12 14 15 21 22 23 23 23 21 21 22 22 23 21 20 19 20 22 22
32 32 33 33 34 34 33 31 32 33 33 32 31 30 23 17 14 12 11 10 11 11 11 10 10 13 16 18 22 22 22 22 22 22 22 21 19 18 18 20 21 20 17
32 33 33 33 32 34 33 33 33 32 28 22 17 15 13 12 11 10 9 7 8 9 9 10 12 14 15 17 19 21 20 22 21 19 15 16 17 18 18 17 17 17 17
32 27 30 31 32 32 32 29 23 20 18 17 15 12 12 12 13 15 15 14 11 11 11 13 14 14 16 18 20 20 20 21 19 18 13 14 15 16 16 17 17 17 18
22 24 26 25 25 25 23 19 18 17 15 13 11 13 13 15 17 17 18 20 19 19 20 20 18 17 18 19 20 20 19 19 18 14 14 14 15 16 16 17 17 17 17

GFSMW_sfc_30mbdewp_057.txt.gz
Dewpoint
31 33 34 35 36 36 36 37 38 49 63 65 64 63 64 64 64 64 64 62 61 60 60 60 59 59 58 58 53 45 38 32 28 27 28 28 30 28 35 37 34 34 32
25 25 28 31 33 34 35 36 36 38 50 62 63 63 63 64 64 63 63 63 61 60 59 59 58 57 57 55 50 43 36 32 29 30 29 27 27 27 28 31 31 30 28
29 28 25 27 30 31 33 34 35 37 41 56 63 63 63 62 63 63 63 62 62 60 59 59 58 56 56 53 48 43 40 35 29 29 32 29 32 26 25 27 28 27 27
33 33 31 29 29 31 31 33 34 36 38 47 59 61 60 60 61 61 62 62 62 61 59 59 57 56 55 54 49 43 42 38 34 28 25 23 28 26 22 21 26 24 24
35 35 34 32 33 36 35 31 31 33 36 40 54 60 60 60 61 62 62 62 61 61 59 59 57 56 53 53 50 45 43 42 40 35 27 22 20 18 22 21 20 21 21
38 38 37 36 36 36 37 38 36 32 31 34 41 57 60 60 60 60 60 61 60 60 59 59 58 56 54 51 49 47 44 43 43 38 30 26 23 21 17 18 17 20 20
38 39 38 37 38 37 37 37 37 37 37 37 35 39 49 58 59 59 59 60 57 57 58 58 57 55 53 51 50 47 46 43 39 37 29 25 23 22 21 18 17 16 17
38 39 39 39 39 39 38 37 38 39 40 41 40 38 40 46 53 58 58 59 59 58 58 57 57 55 52 50 48 47 46 44 40 33 27 24 22 20 21 20 18 17 19
38 40 39 39 40 39 39 39 40 41 44 45 45 44 43 43 44 50 55 57 58 56 56 56 54 53 51 49 48 47 44 40 34 28 25 24 24 24 25 24 24 27 25
40 41 41 41 41 41 41 41 42 42 42 45 46 46 47 47 48 49 51 53 53 52 52 51 50 49 48 46 45 40 35 29 27 26 24 24 24 25 26 25 24 24 21
40 39 39 41 41 40 40 40 38 39 40 42 44 45 46 46 47 48 49 49 48 48 48 47 46 44 41 38 35 31 30 28 25 24 23 23 25 25 27 29 28 28 30
37 35 36 38 36 35 36 36 37 38 40 41 43 44 44 45 46 46 46 45 46 45 45 43 40 36 34 31 28 27 26 25 25 26 26 27 29 30 31 31 31 32 32
31 34 34 31 32 34 36 36 36 35 36 39 41 42 43 43 42 42 41 41 41 40 37 33 30 28 28 26 26 26 26 28 30 30 31 31 32 33 33 32 31 29 28
28 27 27 28 29 31 32 32 32 32 31 31 33 35 37 37 35 35 33 30 29 28 28 28 28 28 29 29 30 31 32 33 34 34 33 33 32 31 31 31 30 29 28
25 23 25 27 29 29 30 31 31 30 30 30 31 31 32 33 33 32 33 33 33 33 32 31 32 32 31 32 33 33 33 33 32 32 31 31 31 32 32 31 31 29 26
24 22 24 26 29 31 31 32 31 32 31 32 31 32 32 33 34 34 34 33 33 33 34 34 35 35 36 36 35 34 33 32 31 29 28 29 31 30 27 24 24 24 24
25 23 23 25 30 32 33 34 34 34 34 34 34 33 33 32 33 33 34 34 34 35 36 36 36 37 38 37 36 34 30 27 25 24 22 26 26 26 22 24 24 25 25
26 22 23 24 27 31 32 33 34 34 34 34 34 34 34 33 33 33 33 33 33 33 33 32 33 34 35 33 29 28 27 25 23 21 21 21 22 23 23 24 25 26 26
24 25 26 27 28 29 31 32 34 35 34 33 33 33 33 33 32 32 32 32 32 31 31 32 32 32 33 32 31 24 19 18 19 21 22 23 22 23 24 25 27 25 22
29 30 30 31 31 32 32 33 33 33 33 33 33 34 33 32 31 31 31 31 31 30 30 30 31 30 28 28 29 21 19 20 21 22 21 23 23 23 25 26 22 20 19
32 33 33 32 33 33 33 32 32 31 32 32 33 32 32 32 32 31 31 29 24 21 21 20 18 21 23 26 26 25 22 22 21 21 21 21 24 22 22 21 19 19 21
32 33 33 33 34 34 34 32 31 33 33 33 32 32 32 32 28 19 14 13 13 13 12 11 12 15 19 23 24 23 23 23 21 21 22 22 22 20 19 20 22 22 23
31 32 33 33 34 34 33 32 32 33 33 32 27 18 15 13 13 12 12 11 12 11 9 9 12 14 17 19 23 23 22 22 22 21 21 20 18 19 19 21 21 20 17
31 32 31 33 32 34 34 34 34 32 24 17 14 13 12 10 9 9 9 8 8 8 9 11 13 15 16 18 20 21 20 22 20 19 16 16 18 19 19 18 18 18 18
32 33 33 33 33 34 33 29 25 20 16 15 14 13 11 13 15 15 13 11 10 11 12 14 14 15 17 18 21 21 19 20 19 18 13 14 15 16 16 17 17 17 18
26 30 31 32 31 30 27 22 20 17 14 11 11 13 15 17 18 19 20 21 21 21 21 20 18 17 19 20 21 20 19 19 19 13 14 15 16 16 16 17 17 17 18

GFSMW_sfc_30mbdewp_060.txt.gz
Dewpoint
31 31 31 32 33 35 36 37 37 39 46 56 64 64 64 64 64 64 64 63 62 61 61 60 59 58 57 58 60 58 52 48 47 37 36 33 32 30 32 36 36 35 35
27 27 26 28 30 31 33 35 37 38 39 46 58 62 62 63 64 64 64 64 63 62 62 61 60 59 58 57 59 58 52 50 43 44 43 40 34 30 29 33 34 33 33
30 31 29 30 31 31 32 33 35 37 38 41 47 56 60 61 62 63 63 63 63 64 63 62 61 60 59 57 58 57 52 49 42 43 45 43 43 33 31 29 32 31 31
34 34 34 34 35 38 38 35 35 35 37 40 42 50 56 57 58 58 61 62 63 63 63 62 62 61 60 58 58 57 54 51 44 38 36 34 35 35 29 27 29 29 28
38 37 37 37 38 40 41 40 36 33 35 37 41 46 53 54 55 57 59 60 62 62 62 62 61 61 60 59 57 55 53 53 49 43 37 33 30 27 30 31 26 27 26
39 40 39 39 40 42 41 40 38 38 37 35 38 42 47 52 55 57 59 60 61 61 61 61 61 61 60 58 58 56 54 52 52 45 40 37 37 32 29 30 27 25 25
40 41 40 40 41 42 42 40 39 39 40 40 39 36 40 47 54 56 57 58 59 60 60 60 60 60 59 58 57 56 54 52 51 47 43 38 32 30 29 29 25 23 19
40 41 41 41 42 42 42 41 41 40 43 43 44 43 41 40 42 46 51 53 55 57 59 59 59 59 59 58 56 55 53 52 50 49 44 36 31 28 30 34 27 22 19
41 41 41 41 42 42 42 42 41 42 41 43 45 45 46 46 45 45 46 49 52 55 57 58 58 58 57 55 53 52 51 50 49 45 41 38 30 26 27 26 29 30 27
40 38 38 41 41 40 40 41 40 40 41 43 44 45 47 48 48 49 49 49 50 52 55 55 56 54 53 52 50 50 49 47 42 37 33 33 32 30 27 27 28 27 26
37 37 39 38 37 38 38 38 39 40 41 42 44 46 46 47 48 48 48 49 50 50 51 52 51 50 49 48 46 43 41 38 36 35 34 31 31 30 30 31 30 30 30
35 37 35 34 35 36 37 37 37 37 38 41 43 44 45 46 46 47 46 47 47 47 48 48 46 44 42 39 36 34 31 30 28 28 28 29 31 33 34 34 33 33 32
33 32 32 32 32 34 34 35 34 33 34 36 38 39 40 40 40 39 39 40 41 41 41 39 38 34 33 30 30 28 28 29 30 31 31 31 32 33 34 33 32 31 31
30 30 30 30 31 32 33 33 33 32 32 34 35 35 35 34 33 35 34 32 31 30 29 30 29 29 29 30 30 31 31 32 33 34 34 34 34 33 32 32 31 31 30
28 28 29 30 32 32 33 33 33 32 33 33 33 33 34 34 34 34 34 35 35 34 34 33 32 32 32 33 33 34 34 33 33 33 32 32 33 33 32 31 30 30 29
26 26 26 29 32 34 35 35 34 33 33 33 32 32 33 33 34 36 35 35 36 37 36 37 37 36 37 36 35 34 33 32 31 30 30 31 31 31 30 30 29 27 25
27 26 26 27 31 33 34 34 34 35 35 34 33 33 33 33 34 34 34 34 35 35 35 36 35 36 37 37 36 33 31 30 28 25 26 25 28 27 24 25 24 24 25
27 25 25 27 29 31 32 33 35 35 35 35 34 34 34 34 34 34 33 33 33 32 32 32 32 33 34 34 33 29 27 26 22 21 21 21 22 21 22 22 24 25 25
26 26 27 28 29 30 32 33 34 34 35 34 34 34 34 33 33 32 31 31 31 31 31 32 32 32 32 29 27 20 20 23 23 22 22 21 20 22 25 24 28 24 22
28 29 29 30 31 31 32 33 33 33 33 33 33 34 33 32 31 31 31 31 31 30 31 31 32 30 31 30 25 21 20 19 19 20 19 22 23 24 24 24 22 20 18
31 31 31 31 32 32 34 33 33 32 33 33 33 33 33 32 32 32 31 28 24 22 22 21 22 25 25 26 26 24 21 20 20 19 19 20 24 23 22 22 19 18 20
31 32 31 32 33 35 34 33 32 33 34 34 33 33 33 29 24 19 16 14 13 12 12 12 12 16 22 23 24 24 24 23 20 19 19 20 22 20 20 20 22 23 23
31 32 33 33 34 35 35 33 33 34 33 31 25 19 14 13 14 14 13 11 11 9 6 6 9 12 17 19 23 22 22 22 20 19 21 20 18 19 19 20 22 22 18
31 31 32 34 33 35 35 34 34 32 26 17 13 12 11 10 9 8 8 6 5 4 6 9 11 13 16 18 20 20 19 21 18 20 17 15 18 19 19 18 18 18 18
32 31 34 33 34 35 35 33 30 23 15 13 13 11 10 10 12 14 11 9 12 12 11 14 13 14 15 18 21 21 18 19 18 20 11 13 15 16 16 17 18 18 18
33 34 34 34 34 34 31 29 25 18 13 11 11 11 13 15 17 17 19 22 22 22 21 21 18 16 19 21 21 20 20 19 19 12 12 15 16 17 17 17 18 19 20

GFSMW_sfc_30mbdewp_063.txt.gz
Dewpoint
28 31 32 33 33 34 36 36 36 37 39 46 52 64 65 65 64 65 64 63 62 60 61 61 59 58 58 57 59 59 57 54 51 48 41 40 39 36 37 39 39 38 40
29 28 28 28 29 30 33 34 36 37 38 40 45 59 62 63 64 65 65 65 64 63 61 61 61 60 59 58 58 58 57 55 52 47 45 44 40 37 35 36 37 37 37
29 30 31 32 33 33 34 33 34 36 38 40 41 46 59 60 62 64 64 64 64 64 64 62 62 61 60 59 58 59 58 55 51 47 48 46 46 38 36 34 35 35 35
33 34 34 35 36 40 42 37 35 35 36 39 40 41 46 54 57 57 59 61 62 62 62 64 63 62 62 60 59 59 59 56 52 47 48 48 39 41 34 33 33 34 33
36 36 37 38 40 43 43 41 39 35 35 36 38 40 41 47 53 55 55 56 58 61 62 62 63 62 62 62 61 59 59 57 53 47 46 45 39 34 33 32 30 31 31
38 39 39 40 41 43 43 42 39 38 39 38 37 38 41 44 50 52 54 56 58 60 62 61 61 61 61 61 61 60 59 57 56 50 49 45 43 38 35 36 33 31 30
38 40 40 41 42 43 43 42 41 39 41 42 41 38 37 41 45 50 53 55 56 58 60 61 61 61 61 61 60 60 59 57 56 55 49 46 45 42 40 41 32 30 25
39 41 41 42 42 43 43 43 42 41 42 42 43 42 43 41 40 40 43 48 51 52 54 59 59 59 60 60 60 59 58 56 56 55 54 48 40 37 38 39 36 35 31
40 39 39 39 42 41 41 42 42 40 41 42 43 43 44 46 47 47 46 45 45 49 51 56 57 57 59 59 59 57 56 55 55 54 50 42 38 38 38 39 40 40 34
39 38 38 40 39 39 39 40 40 40 41 42 43 44 46 47 47 48 49 49 50 50 51 52 54 57 57 56 56 54 53 52 50 44 41 37 36 35 34 34 34 35 35
37 37 39 37 38 39 39 39 38 39 40 42 43 44 45 46 47 47 47 47 48 49 49 50 50 52 52 51 51 49 49 44 40 38 38 36 36 35 34 35 35 34 33
36 37 36 35 36 36 36 37 36 35 36 38 40 41 42 42 42 40 41 42 43 44 45 47 47 47 45 44 42 41 38 38 37 35 35 34 34 34 34 35 35 35 34
34 34 33 33 34 34 35 35 34 34 35 36 37 38 37 37 37 37 35 34 33 32 33 34 34 35 35 34 33 31 32 32 33 33 32 34 34 34 35 34 33 33 32
32 33 33 33 33 33 35 35 34 34 34 35 36 36 36 35 35 35 35 35 34 33 32 32 32 31 31 32 31 32 32 33 34 34 34 35 34 34 33 33 32 32 32
31 30 32 32 33 34 35 35 35 34 34 34 34 34 35 36 36 36 36 36 35 35 36 35 35 35 34 34 34 34 34 33 33 33 33 34 35 35 34 32 31 30 29
30 28 29 31 34 35 36 36 35 35 35 34 33 33 34 34 35 35 36 36 36 36 36 36 36 37 37 37 35 34 32 32 31 30 31 32 32 32 32 31 30 29 27
29 29 28 29 32 34 35 34 35 35 35 34 33 33 33 34 34 35 35 34 34 34 33 33 32 32 34 36 35 33 31 30 30 30 30 29 29 26 24 25 25 25 25
30 28 28 29 31 32 32 34 35 35 35 34 34 34 34 34 35 34 33 33 33 33 32 32 32 32 34 33 32 32 31 29 27 24 21 21 21 21 23 22 24 26 25
28 28 28 29 30 31 32 33 33 34 34 34 34 35 35 33 33 32 32 32 32 32 32 32 32 32 28 26 23 21 22 23 22 21 22 20 19 23 25 25 28 25 23
28 29 29 30 30 30 32 33 33 34 33 34 34 35 34 33 32 32 32 32 32 31 31 32 32 31 27 26 24 20 17 17 18 19 19 22 24 25 25 24 22 21 19
31 31 30 30 31 32 34 33 34 32 34 34 34 34 34 33 32 32 32 29 25 23 21 22 23 24 25 25 25 24 22 21 20 19 19 19 23 23 22 22 21 19 21
32 31 31 32 33 34 33 32 33 34 35 35 34 34 33 29 24 20 17 15 13 12 11 11 12 16 21 24 24 24 23 23 20 18 18 20 23 20 20 21 22 23 24
32 32 33 33 33 35 35 33 34 35 34 32 28 20 15 15 16 16 14 10 9 6 4 6 10 13 16 18 22 21 22 22 20 20 22 20 17 19 20 20 23 22 19
31 32 32 33 34 35 36 34 34 33 29 21 14 12 12 11 10 8 8 5 4 4 5 8 10 12 15 17 19 20 19 19 18 21 19 14 17 19 20 19 18 19 19
31 31 32 33 34 35 35 34 33 28 19 13 12 12 10 9 11 14 12 10 17 17 12 14 13 14 14 18 22 22 20 20 20 21 14 11 14 16 17 17 18 19 19
31 31 34 33 35 35 34 33 29 22 14 12 11 11 13 13 15 17 20 24 23 22 21 21 20 17 19 21 22 21 21 21 19 17 10 14 17 17 18 18 19 21 21

GFSMW_sfc_30mbdewp_066.txt.gz
Dewpoint
28 31 32 32 32 33 35 36 37 38 40 41 50 65 65 65 65 65 65 66 62 61 61 61 60 59 57 58 60 59 58 56 53 48 45 42 40 38 40 41 41 42 43
29 29 29 28 29 30 33 35 36 38 38 40 41 55 65 65 64 64 64 65 65 64 62 61 61 61 59 58 59 59 58 57 54 49 43 40 41 39 37 39 40 40 42
29 30 32 34 37 41 41 38 36 36 37 40 42 43 62 63 63 63 63 63 64 64 64 63 62 61 61 59 59 59 59 57 55 50 45 46 44 39 38 36 38 38 39
33 34 36 37 40 43 44 43 37 36 36 37 39 41 42 50 60 62 64 64 64 64 63 63 64 62 62 61 60 60 59 58 55 53 48 50 45 40 36 36 35 36 36
35 36 38 40 43 44 44 43 41 38 37 36 38 39 40 42 44 53 57 58 59 63 63 62 62 62 63 63 62 61 60 59 58 53 50 49 48 38 37 34 33 35 35
38 39 40 40 43 44 45 43 42 40 41 41 39 38 40 40 42 47 53 54 56 58 61 62 62 61 61 61 62 62 61 60 59 55 51 49 49 46 39 39 35 34 33
39 40 41 42 43 44 44 43 43 42 42 42 43 43 41 39 40 42 46 50 55 57 58 61 61 61 61 61 61 61 61 60 59 57 52 51 50 49 45 44 38 35 31
40 41 41 41 42 42 42 42 43 42 42 42 43 44 46 47 47 48 47 46 45 47 50 56 60 60 59 60 61 61 60 60 59 58 57 52 48 45 44 45 40 36 34
40 39 39 41 40 39 40 40 40 41 42 43 43 45 46 47 48 48 49 49 50 50 51 52 54 57 58 58 59 59 59 58 58 57 56 49 42 42 41 42 42 42 37
39 38 39 38 38 39 40 39 40 40 41 43 44 45 46 47 47 48 47 47 48 49 49 49 50 51 53 54 56 56 56 55 51 48 46 42 39 38 39 39 41 41 39
37 38 38 37 38 38 38 37 37 37 38 40 42 42 41 42 41 39 40 40 42 43 44 46 48 48 48 49 50 50 50 48 43 41 40 39 38 37 37 38 38 38 38
36 37 36 35 36 36 36 36 35 35 36 38 38 38 37 38 37 36 35 34 33 33 33 34 35 36 37 38 40 41 40 41 39 38 38 37 36 37 37 37 36 36 36
35 35 34 34 34 35 35 35 34 35 35 36 37 36 36 35 35 35 35 35 33 33 32 32 32 32 32 33 34 35 35 35 36 36 36 36 36 36 36 35 34 34 33
34 34 33 33 33 34 35 35 35 35 35 35 35 35 36 36 36 36 36 35 35 34 34 34 34 34 34 34 34 35 35 35 35 35 36 36 35 34 34 33 33 32 32
32 31 32 33 34 35 36 36 36 35 34 34 34 35 35 36 36 37 37 35 35 36 36 36 36 36 36 35 34 34 34 33 33 34 35 35 36 35 34 33 32 30 29
31 29 30 32 34 35 36 35 35 36 35 34 33 34 34 34 34 34 34 35 35 35 34 34 35 36 37 36 35 33 32 31 31 31 32 32 33 35 34 31 30 30 29
30 29 29 31 34 34 35 34 35 35 35 34 33 33 33 33 34 34 34 34 34 34 33 33 32 33 35 36 35 33 31 31 31 30 30 29 30 30 29 28 25 25 26
30 28 29 30 32 33 33 35 35 35 34 34 33 33 34 34 33 33 33 33 33 32 32 31 32 32 33 33 32 31 30 30 30 29 26 25 24 23 25 25 26 26 25
30 28 29 30 31 31 33 34 34 33 34 33 33 33 32 33 33 32 31 31 31 31 31 31 30 28 27 25 23 26 27 26 24 23 23 23 23 25 25 26 27 25 22
28 28 29 30 30 30 33 33 33 34 34 34 34 34 34 33 32 32 31 32 31 30 30 32 31 28 27 27 25 21 19 19 19 19 20 22 24 25 26 23 22 20 18
30 30 30 30 31 33 34 32 33 33 34 35 35 34 33 32 32 32 31 29 26 24 22 22 23 24 25 25 26 25 23 23 21 19 19 21 23 23 22 22 21 20 22
32 31 31 32 33 34 33 33 33 35 35 34 34 34 33 32 30 25 23 17 14 13 14 13 14 18 24 24 23 24 23 24 20 19 21 22 21 19 20 21 23 24 24
32 32 33 33 33 34 34 33 34 35 34 33 31 25 21 19 19 16 14 10 8 5 5 9 12 15 17 20 22 21 20 22 21 20 21 19 17 19 20 20 22 22 20
32 33 33 32 33 35 35 35 35 34 32 27 16 13 13 13 12 10 8 6 6 5 7 9 11 13 16 20 22 22 20 22 21 22 21 15 16 18 19 20 19 19 19
32 32 32 32 33 35 35 34 34 33 26 14 12 12 12 8 14 21 19 14 21 20 14 16 15 14 17 21 23 23 22 21 21 20 16 11 14 17 18 18 18 19 19
32 32 32 33 33 34 34 34 33 28 15 13 12 12 11 13 17 19 22 24 23 22 21 21 19 20 19 22 22 22 21 21 20 18 13 13 18 18 19 19 20 21 21

GFSMW_sfc_30mbdewp_069.txt.gz
Dewpoint
29 30 30 29 30 30 32 34 36 37 44 58 64 64 64 64 64 65 65 65 65 64 61 60 60 59 57 58 60 59 58 57 54 50 47 44 42 41 41 41 43 50 53
28 29 29 31 36 39 39 37 36 36 38 41 43 63 65 65 65 65 65 64 64 65 65 62 61 60 59 57 59 59 58 58 55 51 45 44 41 41 39 41 41 42 45
30 32 36 39 40 41 42 41 37 35 36 37 40 42 62 63 64 63 63 64 64 64 64 64 62 61 60 59 58 59 59 57 57 53 48 44 43 42 40 38 39 40 42
33 36 37 39 41 43 43 42 41 36 36 37 37 39 41 44 56 61 63 63 63 63 63 63 63 63 62 61 61 60 60 59 57 55 53 50 47 42 41 38 40 39 39
35 37 38 41 44 44 44 43 42 40 40 38 37 38 39 41 43 45 51 60 63 64 63 63 62 62 62 62 61 61 60 60 59 56 54 51 51 44 39 40 39 39 39
37 39 40 43 44 45 44 44 43 42 43 43 43 42 39 39 40 42 44 49 54 57 60 62 62 62 61 60 60 61 61 60 60 59 56 53 52 50 43 40 39 39 40
40 41 42 43 43 43 42 43 43 42 42 43 44 46 47 47 46 47 46 46 47 50 51 58 60 60 61 60 60 60 60 60 60 59 57 55 53 53 50 46 41 38 36
41 41 41 42 40 40 40 41 41 41 42 43 44 46 47 47 48 48 49 49 49 50 50 52 54 57 59 59 59 59 59 59 59 59 58 55 54 52 50 48 45 40 37
40 39 40 39 39 39 40 40 40 41 42 43 45 46 47 47 47 47 47 47 48 48 49 49 50 52 52 53 55 56 57 58 58 58 57 54 48 47 47 47 47 47 41
38 39 39 38 39 39 39 38 38 38 39 42 42 41 42 41 40 39 38 39 40 41 43 47 48 48 48 49 50 51 53 54 50 48 47 45 42 42 42 43 44 43 43
37 38 37 38 38 38 37 36 35 36 37 39 38 38 38 38 37 36 35 34 34 34 35 37 38 38 40 41 44 44 44 45 43 42 42 40 39 39 39 40 41 40 40
37 37 36 37 36 36 36 35 35 35 37 37 37 36 36 36 35 35 35 34 33 33 33 33 33 33 34 35 37 39 40 40 39 39 38 38 38 38 38 38 37 37 37
36 35 35 35 35 35 35 34 35 35 36 36 36 36 36 36 36 35 35 34 34 34 34 33 33 33 34 34 35 36 36 36 36 37 37 37 37 36 36 35 35 35 35
35 34 33 33 34 35 35 35 34 35 35 35 35 36 36 36 37 36 36 36 36 36 36 36 35 35 35 35 35 35 35 35 35 35 36 35 35 34 34 34 33 33 32
33 33 33 33 34 35 35 36 35 35 34 34 35 35 35 35 36 36 36 35 36 36 35 35 35 35 35 34 34 34 34 33 33 33 35 37 37 36 35 33 32 32 30
32 31 32 34 35 36 36 35 35 35 34 34 34 34 34 35 34 35 35 35 35 34 34 35 36 36 35 36 35 33 32 32 31 31 32 32 32 33 35 35 34 31 29
32 29 30 33 35 35 35 35 35 35 34 34 33 34 34 35 35 35 34 34 33 33 33 33 34 35 36 36 34 32 31 30 30 30 29 29 29 29 28 29 28 26 26
31 29 30 33 34 34 35 35 35 35 34 33 33 34 35 34 34 34 33 32 32 30 31 30 30 31 30 30 31 30 29 28 28 25 24 23 24 24 26 27 26 26 25
30 29 30 31 32 33 34 34 34 34 34 33 33 33 34 34 33 32 31 32 31 30 30 29 26 26 26 24 26 27 26 24 23 22 23 24 24 26 26 24 23 24 20
29 29 30 31 31 32 34 33 33 33 33 33 33 33 34 33 32 32 31 31 30 30 30 30 27 27 26 27 26 23 21 20 20 20 20 23 24 25 24 23 21 19 19
29 29 30 30 31 33 33 33 34 34 35 35 35 34 34 32 31 31 30 28 25 23 22 23 24 24 25 25 25 25 23 21 20 19 19 22 24 22 21 22 21 20 22
31 30 30 31 34 34 33 34 33 35 35 35 34 33 32 33 31 27 26 25 20 18 16 15 16 21 22 23 23 23 23 23 19 19 21 21 20 20 20 21 22 24 25
32 32 32 33 33 34 34 33 34 35 34 33 33 33 31 26 22 17 14 11 11 7 7 10 13 14 18 20 24 24 23 23 21 21 22 20 17 19 20 22 22 22 19
32 33 33 32 33 34 33 35 35 35 34 32 29 21 18 17 16 12 10 6 5 6 8 10 12 14 17 21 22 22 21 22 21 22 19 18 16 18 19 19 19 19 19
32 33 32 32 33 34 34 35 34 34 32 27 16 13 14 12 12 17 10 15 20 14 12 14 14 14 17 20 23 23 22 22 22 21 17 12 15 17 18 19 19 20 21
32 32 32 32 33 35 34 33 33 34 30 16 13 12 11 11 16 22 24 24 23 22 22 22 19 20 20 22 23 22 22 21 21 18 13 13 18 18 19 19 20 20 20

GFSMW_sfc_30mbdewp_072.txt.gz
Dewpoint
29 31 31 30 31 36 35 35 36 38 56 63 63 63 63 63 63 64 65 65 65 63 61 60 59 59 58 58 59 59 58 57 56 53 50 47 46 43 43 42 44 54 56
29 29 32 37 38 39 40 37 36 36 38 43 49 63 64 64 64 64 64 64 64 64 64 63 61 60 59 58 58 59 58 58 56 54 49 49 47 44 42 42 42 44 54
29 33 36 38 40 41 42 41 40 36 36 37 40 43 60 63 63 63 63 64 64 64 63 63 63 62 60 59 58 58 58 57 57 54 53 47 47 44 43 41 40 41 43
32 35 37 39 40 42 43 41 40 38 37 37 37 38 40 48 57 56 59 61 63 63 63 63 63 63 62 61 60 58 59 59 57 56 55 51 48 46 45 40 43 42 43
35 37 39 42 44 44 44 43 42 42 43 43 39 39 39 41 43 43 45 51 56 61 63 62 62 61 61 61 60 60 59 59 59 57 56 55 53 48 45 47 43 44 44
37 39 42 44 44 44 44 43 43 43 43 44 45 45 41 40 41 43 43 45 50 52 54 57 61 61 61 60 61 61 60 59 59 59 58 55 53 52 50 46 44 42 42
38 40 42 43 43 42 42 42 41 42 43 44 46 46 47 47 47 48 48 48 49 50 50 54 57 59 60 60 60 59 59 59 59 59 59 57 56 55 53 50 47 43 41
40 41 42 42 40 40 40 40 41 42 43 44 46 47 47 47 48 47 47 47 48 49 49 50 52 52 53 55 56 57 56 56 57 57 57 57 56 55 54 52 49 43 40
41 40 41 39 39 40 40 40 41 41 43 45 44 43 44 43 42 41 42 43 42 44 47 48 49 49 49 49 50 51 51 52 53 52 52 52 48 48 48 49 48 48 45
39 40 39 39 39 39 38 38 38 38 40 40 39 39 38 37 36 35 35 35 34 36 39 41 40 41 42 45 46 47 48 48 46 45 45 44 42 42 43 44 44 44 44
38 39 38 39 39 37 36 35 36 37 38 38 37 36 36 36 36 35 34 34 33 33 34 34 34 35 36 38 41 42 43 43 42 41 41 40 40 40 40 40 41 41 41
38 38 37 38 37 36 35 35 35 36 37 37 36 36 36 36 35 34 34 34 34 34 33 34 34 34 35 36 37 37 38 39 38 38 38 38 38 38 38 37 37 37 37
38 36 36 36 35 35 34 34 35 36 36 36 36 36 36 36 36 36 36 36 35 35 35 35 35 35 35 35 36 36 36 36 37 37 37 37 36 36 35 35 34 34 34
37 36 34 35 35 35 34 34 34 35 35 35 36 36 36 37 36 36 36 36 36 35 35 35 35 34 34 34 35 35 35 35 35 36 35 35 35 34 34 34 33 33 32
36 35 34 34 34 35 35 35 35 34 34 35 35 35 35 36 36 35 35 35 35 35 36 36 34 34 34 34 33 33 33 33 33 33 35 37 36 36 35 33 32 31 30
35 34 33 33 34 35 35 35 35 34 34 34 34 34 35 35 35 36 36 35 34 35 35 36 36 35 35 35 35 32 31 31 31 31 32 32 31 32 33 33 33 31 31
33 32 33 34 35 36 35 35 35 34 33 33 34 34 35 35 35 35 34 33 33 33 33 34 35 35 34 35 34 32 29 29 27 26 26 26 27 27 27 26 26 27 27
35 30 31 34 35 35 35 35 35 35 34 34 34 35 34 34 34 33 33 32 31 31 30 28 28 28 29 29 28 29 26 25 23 23 22 22 24 25 26 27 26 25 25
34 31 31 34 34 35 35 35 34 34 34 34 34 34 34 34 33 32 31 31 30 29 27 25 25 26 25 26 27 25 23 21 21 23 24 24 24 27 27 23 22 22 19
30 30 31 32 33 34 34 34 34 33 33 34 33 33 35 34 32 32 31 30 29 29 29 27 26 28 26 27 26 23 21 20 20 20 20 25 25 24 23 22 21 20 19
30 30 31 31 32 34 34 33 33 34 34 34 34 34 34 33 32 31 30 29 27 28 25 24 24 24 25 24 25 25 24 20 19 19 19 22 25 21 21 22 20 20 22
30 30 30 30 33 33 33 33 33 35 35 35 34 34 33 33 31 29 28 24 21 20 18 18 19 21 21 24 23 23 23 23 19 19 20 21 20 20 21 21 23 24 23
31 31 31 32 33 33 33 33 35 35 35 34 33 32 32 32 29 25 23 18 15 13 12 11 13 14 18 20 26 25 24 25 21 21 23 23 19 19 19 22 23 22 19
31 31 32 32 32 33 34 35 35 35 33 33 32 32 31 25 21 17 14 10 7 6 7 10 12 13 16 20 22 22 21 22 22 22 21 18 17 18 20 19 19 19 19
32 32 32 32 33 34 33 35 35 35 32 32 31 25 20 20 14 10 9 9 13 8 8 11 12 14 15 19 23 23 22 22 23 22 16 12 16 18 19 19 20 21 21
33 32 32 32 33 34 33 34 35 34 33 30 24 16 14 14 15 20 22 22 23 24 22 21 17 17 19 21 23 23 23 22 22 19 15 13 17 18 19 19 20 20 20

GFSMW_sfc_30mbdewp_075.txt.gz
Dewpoint
29 31 32 32 35 36 36 38 48 49 59 63 63 63 63 63 63 64 65 65 64 60 59 59 59 59 57 58 58 58 57 57 56 54 53 51 50 49 47 46 44 47 54
28 29 33 35 37 39 38 36 36 36 39 50 59 63 63 63 63 63 63 64 64 64 63 62 60 60 59 58 58 58 57 57 57 56 51 53 52 47 47 45 44 43 52
28 31 35 38 40 40 41 40 38 35 36 37 40 45 58 62 63 63 63 63 64 64 64 64 63 62 61 60 59 58 58 57 57 56 55 50 50 47 46 43 43 42 44
29 34 37 39 40 42 42 42 40 39 38 38 37 38 41 54 58 56 55 51 59 62 63 63 62 62 61 61 60 59 58 58 57 56 55 54 50 50 50 44 43 44 43
31 35 38 41 44 44 43 42 43 43 44 43 39 38 39 41 42 42 43 46 53 55 57 61 62 61 61 61 60 60 59 58 58 57 56 55 54 50 49 50 49 44 45
34 37 42 44 44 43 43 43 42 43 45 46 46 44 41 42 43 46 45 46 50 51 51 56 59 60 60 60 60 60 59 59 59 59 58 56 54 52 50 49 50 48 46
36 40 43 43 42 42 42 41 42 42 44 46 46 47 47 47 47 48 48 48 48 49 49 51 53 55 57 58 59 59 59 59 58 58 58 58 57 56 54 52 51 48 44
38 41 43 42 41 40 40 41 42 42 44 45 46 46 47 46 46 45 46 45 47 47 48 49 49 49 50 51 54 54 55 54 54 54 54 55 55 54 54 53 51 47 44
40 42 42 40 40 40 40 41 41 42 44 43 42 40 40 39 38 37 38 37 37 40 43 43 43 44 45 47 49 49 49 50 49 49 49 48 46 46 46 48 49 49 46
41 41 40 39 39 39 38 38 39 40 40 39 39 38 37 36 36 35 34 34 34 35 36 37 37 37 39 42 44 44 46 46 45 44 44 43 42 42 42 43 44 44 44
39 40 39 39 39 37 36 36 37 38 38 37 36 36 36 36 35 35 34 34 34 34 34 34 35 35 36 38 40 40 43 42 41 41 41 40 40 40 40 40 41 40 40
39 39 38 38 37 36 35 35 36 37 37 36 36 36 36 36 35 35 35 34 34 34 35 35 35 35 36 36 37 37 38 38 38 38 38 38 38 38 38 37 37 37 37
38 38 37 37 36 35 35 35 36 36 36 36 36 36 36 36 35 36 36 36 35 35 35 35 35 35 35 35 35 35 36 36 36 36 36 36 36 35 35 34 34 34 34
38 37 36 36 36 35 34 35 35 36 36 36 36 36 36 36 36 36 36 35 35 36 35 35 34 34 34 34 34 34 34 34 35 36 35 35 34 34 33 33 33 33 33
37 36 35 35 35 35 34 34 34 35 35 35 35 35 36 36 36 36 35 35 35 36 36 34 34 34 34 34 33 33 33 33 33 34 34 35 36 35 34 32 31 30 29
37 36 35 34 34 35 35 35 34 34 34 34 34 35 35 35 35 36 35 35 34 35 36 36 36 36 36 35 34 31 30 30 31 30 28 28 28 29 31 31 30 31 29
37 36 34 34 34 35 35 35 34 34 34 34 34 34 35 35 35 34 34 34 33 34 34 33 33 33 35 35 33 30 26 25 24 23 23 24 26 26 26 27 28 28 28
36 35 34 34 35 36 35 35 34 34 34 34 34 35 35 35 34 33 33 32 32 29 28 27 26 27 29 28 28 27 22 22 23 22 22 24 25 28 25 24 25 24 21
37 34 32 34 35 35 35 35 34 35 34 34 35 34 35 34 33 32 31 31 28 26 25 25 25 25 27 27 27 22 20 20 21 21 24 24 24 26 26 23 22 21 19
35 33 32 34 35 35 35 34 34 34 34 34 34 34 35 34 32 32 31 30 28 28 27 25 26 28 26 27 26 23 21 20 19 19 19 26 25 24 22 22 20 19 19
31 31 32 33 34 34 34 33 33 33 34 34 34 35 35 33 32 31 29 29 28 28 26 23 23 24 24 24 25 26 21 19 19 19 19 21 23 21 21 23 20 22 23
31 31 31 31 33 34 33 33 33 34 35 34 34 34 33 33 32 30 29 26 26 23 21 20 20 20 21 25 25 24 24 23 19 18 20 21 23 19 22 22 23 24 22
31 31 31 31 32 33 33 32 34 35 35 34 34 33 33 32 31 28 26 23 20 18 15 13 12 14 17 19 27 25 24 25 21 21 23 23 21 19 20 21 23 22 19
30 30 31 31 31 33 33 33 35 35 35 34 33 32 31 30 28 25 23 20 15 12 9 8 10 12 15 19 21 22 22 22 22 22 21 19 18 19 20 19 19 19 19
31 31 31 31 32 33 33 34 35 35 33 33 32 31 30 30 22 18 14 13 9 8 5 7 10 11 12 16 22 24 23 22 23 22 17 12 15 18 18 19 20 21 21
33 32 32 32 32 33 33 35 35 34 32 31 31 30 26 21 16 14 15 20 18 23 22 19 15 14 17 18 22 24 23 23 23 20 17 12 15 18 18 19 19 20 20

GFSMW_sfc_30mbdewp_078.txt.gz
Dewpoint
32 30 32 34 37 38 42 50 61 62 63 63 63 63 62 63 63 64 64 64 61 60 60 60 60 58 57 57 57 57 56 56 56 55 55 54 54 53 52 52 49 46 48
31 29 31 33 36 37 37 36 40 42 48 59 62 62 62 62 63 63 63 63 64 64 62 60 59 59 59 58 58 57 57 57 56 56 54 54 54 51 50 49 48 46 47
31 29 33 35 39 39 39 38 36 35 36 37 42 46 57 61 62 63 62 62 63 63 63 64 63 62 60 60 59 58 57 57 56 56 56 52 50 49 49 46 45 44 44
30 30 35 38 39 41 41 39 39 39 39 38 37 38 41 51 56 55 51 49 54 58 61 62 63 62 62 61 60 59 58 57 57 56 56 55 53 52 51 48 45 44 44
30 31 36 39 42 42 42 42 43 44 44 42 38 37 37 40 42 42 42 45 51 52 53 56 59 61 61 61 60 60 59 58 58 57 56 56 55 52 51 51 51 47 46
30 34 39 43 43 43 43 42 43 44 46 46 46 42 40 42 43 45 45 47 49 49 49 52 55 58 59 59 59 59 59 58 58 58 58 56 55 53 51 50 50 50 49
32 36 42 43 42 42 42 42 43 43 45 46 46 46 46 46 46 47 47 47 47 47 47 49 50 51 53 56 58 59 58 58 57 57 57 57 56 56 54 53 52 50 46
35 40 43 42 42 41 41 42 42 43 45 45 45 46 45 45 44 44 44 42 43 44 45 46 46 46 47 50 53 54 53 53 53 52 52 53 51 51 51 52 50 47 45
37 41 43 41 40 40 40 41 42 43 43 42 40 39 38 37 37 36 36 36 36 37 39 39 40 40 43 45 47 49 50 49 49 48 48 48 45 45 46 47 48 47 44
40 42 41 40 40 39 40 40 41 41 40 39 38 37 36 36 35 35 35 34 34 35 35 36 37 37 39 42 43 45 46 45 45 44 44 43 42 41 42 43 44 44 44
40 41 40 39 39 38 37 38 39 38 38 37 37 36 36 35 35 35 34 34 34 34 34 35 35 36 37 38 40 42 43 42 41 41 40 40 40 40 40 40 40 40 41
40 40 39 39 37 36 36 36 37 37 37 36 36 36 36 36 35 35 35 35 35 35 35 35 35 35 36 36 37 38 38 38 38 38 38 38 38 37 37 37 36 36 36
40 39 38 38 37 35 35 35 36 36 36 36 36 36 35 35 35 35 35 35 35 34 34 34 34 34 35 35 35 36 36 36 36 36 35 35 35 35 34 34 33 33 34
39 38 38 37 36 35 35 35 36 36 36 36 36 36 36 36 36 36 35 35 36 35 34 34 34 33 34 34 34 35 35 35 35 36 36 35 34 33 32 31 31 32 31
38 38 37 37 36 35 34 35 35 35 36 35 35 35 36 36 36 36 35 35 36 36 35 34 34 34 34 33 33 34 34 34 33 32 32 33 36 35 33 31 30 29 28
38 37 37 36 36 35 34 34 34 35 35 35 35 35 36 36 36 35 35 35 35 36 36 35 36 36 35 35 34 32 31 30 28 25 26 27 27 29 30 30 31 29 26
38 37 37 36 35 35 35 34 34 34 34 34 34 35 35 35 35 34 34 34 34 34 33 32 33 34 35 33 30 27 24 22 22 22 24 26 27 26 25 28 28 27 29
38 37 36 35 35 35 35 35 34 34 34 34 34 35 35 35 34 34 33 32 31 29 27 27 27 28 29 28 26 25 22 22 22 22 23 25 26 27 24 23 23 20 23
36 36 36 35 35 35 35 35 34 34 34 34 35 35 35 34 33 32 32 31 27 25 24 24 25 26 27 28 25 21 20 20 20 20 24 24 25 25 26 21 21 21 19
36 35 33 35 35 35 35 34 34 34 34 34 35 35 35 34 33 32 31 29 26 26 25 26 26 28 25 27 26 22 20 19 19 19 20 26 25 24 23 21 19 19 19
34 33 33 34 35 35 35 34 34 34 34 34 35 35 35 34 33 32 30 28 28 27 23 22 23 23 24 24 26 25 20 19 18 18 19 20 23 21 22 23 21 23 24
32 32 32 33 34 34 34 33 33 34 34 34 34 34 34 34 32 30 29 28 27 25 22 20 20 20 21 25 26 25 25 24 20 18 20 22 25 20 21 23 23 25 21
31 32 32 32 33 34 34 33 33 34 34 34 34 33 33 32 32 29 28 25 24 21 18 15 13 13 17 18 27 26 24 25 22 20 22 24 21 20 20 21 23 22 19
31 31 31 31 32 33 33 33 34 35 35 34 33 33 32 31 31 29 27 23 20 17 14 12 10 11 13 17 20 21 21 22 22 22 22 20 18 19 21 20 19 19 19
31 31 30 31 31 32 33 33 35 35 34 34 33 32 32 32 29 27 24 22 18 15 11 8 8 9 10 13 19 21 22 22 23 23 18 12 13 16 18 19 19 20 21
32 31 31 31 31 32 33 34 35 35 34 33 32 31 31 30 26 23 18 20 18 17 18 15 11 11 16 18 21 24 25 23 24 21 19 16 13 15 17 18 19 20 20

GFSMW_sfc_30mbdewp_081.txt.gz
Dewpoint
37 32 32 38 44 46 56 61 62 63 64 63 63 63 63 64 64 64 64 63 62 61 62 62 61 60 59 59 59 58 58 57 57 56 56 57 57 56 56 57 56 54 53
34 32 31 33 37 39 42 47 58 59 62 63 63 63 63 63 63 64 64 64 64 64 62 61 61 61 60 59 59 58 58 58 58 57 56 55 54 54 54 53 52 51 50
34 32 31 33 38 38 38 38 40 42 43 49 51 52 59 61 63 63 63 62 63 63 64 64 63 61 60 60 60 59 58 58 58 58 57 53 51 51 52 49 47 47 47
33 32 31 35 37 40 41 38 38 38 38 39 39 42 47 53 57 55 51 50 54 56 58 61 63 63 63 62 62 61 60 59 58 57 57 57 55 54 52 52 48 47 47
34 33 32 36 40 42 41 43 44 44 45 40 39 38 38 41 43 43 44 46 51 51 52 55 57 60 61 61 61 61 60 59 58 58 56 56 56 55 53 51 53 50 49
34 33 34 40 42 43 43 43 44 45 47 47 45 42 41 42 43 46 46 48 49 49 49 51 53 56 58 59 60 60 60 59 58 58 58 56 55 53 52 51 51 51 51
33 33 36 41 42 42 42 43 44 44 46 46 46 47 47 47 47 47 46 46 47 46 47 48 49 50 51 54 58 59 59 59 58 58 58 57 56 55 54 52 51 51 48
32 35 40 42 42 42 42 42 43 44 45 45 45 45 45 44 43 43 43 40 41 42 42 43 44 44 46 49 53 54 54 55 54 53 52 53 50 50 51 51 50 48 47
32 37 42 42 42 41 42 42 43 44 44 42 41 39 38 38 38 37 37 36 36 37 38 39 40 41 43 45 48 51 50 50 50 49 48 48 46 45 46 47 48 48 44
35 41 42 41 41 40 41 42 43 42 41 40 39 38 37 36 36 36 35 35 35 35 36 37 38 38 40 42 45 47 46 46 46 45 44 44 42 43 43 44 45 46 46
39 41 41 40 40 39 39 40 40 40 39 38 37 37 36 36 35 35 35 35 35 35 36 36 37 37 38 39 42 43 43 42 42 42 41 41 41 41 40 41 41 40 41
40 41 40 39 38 38 38 38 39 38 37 37 37 36 36 36 36 35 35 35 35 35 35 36 36 36 36 37 39 39 39 39 39 39 39 38 38 37 37 37 37 37 37
40 40 39 39 37 36 36 37 37 37 36 36 36 36 36 36 35 35 35 35 34 34 34 34 35 35 36 36 37 37 37 36 36 36 36 36 36 35 35 35 35 35 35
40 39 39 38 37 36 35 36 36 36 36 36 36 36 35 36 36 36 35 36 35 34 34 34 34 34 35 35 35 36 35 36 36 36 35 34 34 33 33 32 32 32 33
39 39 38 38 37 36 35 35 36 36 36 36 36 36 36 36 36 36 36 36 36 35 34 34 34 34 35 34 35 35 34 34 33 32 33 35 36 35 33 31 30 29 28
39 39 38 38 37 36 35 35 35 36 36 35 35 36 36 36 36 35 35 36 36 36 36 36 36 35 35 36 35 34 32 31 29 27 27 29 28 31 32 32 30 29 25
39 39 38 38 37 36 35 35 35 35 35 35 35 35 36 36 36 35 34 35 35 34 34 35 35 35 34 33 32 29 26 24 25 26 27 28 27 26 26 28 27 29 28
38 39 38 37 37 36 35 35 35 34 34 34 35 35 35 35 35 34 33 33 32 31 30 30 30 30 30 28 27 25 23 24 23 23 26 27 27 27 23 23 23 24 26
37 38 38 37 36 36 35 35 34 34 34 34 34 35 35 35 34 33 33 31 29 27 26 27 27 28 29 27 26 22 22 22 22 24 24 24 25 25 25 21 22 20 21
36 37 37 36 36 35 35 34 34 34 33 34 35 35 35 34 34 33 32 29 27 26 27 27 27 28 27 27 25 21 19 19 18 19 22 27 25 23 26 19 18 19 20
35 34 35 35 35 35 35 34 34 34 34 35 35 35 35 34 33 32 31 28 27 26 25 25 24 24 24 26 26 23 19 18 17 17 18 20 23 22 23 22 23 24 24
34 34 34 34 35 35 35 34 34 34 35 35 35 35 35 34 33 31 29 28 27 25 22 21 21 22 22 26 27 27 24 23 18 17 20 22 26 21 22 23 24 27 23
33 33 33 33 34 35 35 34 34 34 34 34 34 34 34 33 32 30 29 27 26 25 22 19 17 16 17 20 27 27 25 27 21 20 21 25 21 21 21 22 24 24 20
31 32 32 32 33 34 34 34 33 34 34 34 34 34 33 32 31 30 29 27 25 23 19 15 12 12 13 16 19 23 23 23 23 23 23 21 19 21 21 21 22 19 19
31 31 31 31 32 33 33 33 34 34 34 34 33 33 32 32 30 30 28 25 22 20 16 14 11 10 10 13 18 20 21 21 21 23 20 14 12 15 17 18 19 20 20
31 31 31 31 31 32 33 33 35 35 34 33 33 32 32 32 31 30 28 28 26 24 24 20 13 10 13 16 20 23 24 26 26 23 20 18 15 13 15 16 17 19 20

GFSMW_sfc_30mbdewp_084.txt.gz
Dewpoint
41 42 36 35 52 60 63 64 64 64 64 64 64 64 64 65 65 65 65 64 64 63 62 62 62 62 61 60 60 60 59 59 59 58 58 57 57 56 55 55 56 56 56
41 41 35 33 41 53 55 61 63 64 64 64 64 64 64 64 64 65 65 65 65 64 64 64 63 62 62 61 61 60 60 59 60 58 58 54 49 49 54 54 54 54 53
40 40 37 33 36 41 46 50 56 62 63 63 63 62 63 64 64 64 64 64 64 64 65 65 64 64 63 62 62 61 60 59 61 60 58 54 48 52 52 53 52 51 50
41 40 36 33 36 39 43 42 43 46 48 48 55 59 60 60 61 61 59 56 56 57 59 61 62 63 64 63 63 64 62 62 60 60 59 58 57 54 50 53 53 51 51
40 37 35 35 37 41 43 42 41 42 41 40 40 41 42 43 45 45 46 48 52 52 53 55 57 59 60 62 62 62 62 61 60 59 57 57 57 57 55 52 52 53 52
38 36 36 37 39 44 44 45 44 45 45 44 42 41 41 41 41 44 45 46 48 50 50 51 54 56 57 58 59 61 61 61 60 59 57 57 55 54 54 52 51 51 52
37 36 35 37 40 43 44 45 45 45 46 46 46 46 46 46 46 46 46 46 47 47 47 49 50 52 53 54 56 59 60 60 59 59 58 58 57 56 55 53 52 50 51
33 35 35 37 40 42 43 43 44 45 45 46 46 46 47 46 45 46 44 43 43 44 44 44 45 46 48 51 54 56 56 57 57 55 54 53 51 51 51 52 51 48 48
30 32 34 38 41 42 43 43 44 45 45 44 43 42 42 42 41 40 40 39 39 38 40 41 42 43 44 46 50 53 53 52 52 51 51 49 48 47 47 48 49 48 45
30 32 37 41 42 42 43 43 44 44 43 42 41 41 40 39 39 39 38 38 37 37 38 39 40 40 42 44 46 49 49 49 47 48 47 47 45 45 47 47 47 47 46
33 35 39 41 41 42 42 43 43 42 41 41 40 40 39 38 38 38 37 37 37 37 37 38 38 39 39 41 44 45 44 44 44 44 44 43 44 44 44 44 44 43 44
37 39 40 41 40 40 41 41 41 40 40 40 39 38 38 38 37 37 37 37 37 37 37 37 37 38 38 40 42 41 42 41 41 41 41 40 40 40 39 40 40 40 40
39 40 41 40 40 39 39 39 39 39 38 38 38 37 37 37 37 37 36 36 36 35 36 36 37 37 38 39 39 39 39 39 39 39 39 38 38 38 38 38 38 38 38
38 40 40 40 39 38 38 38 38 38 37 37 37 37 37 37 37 37 37 37 35 35 35 35 36 36 37 37 37 37 37 37 37 37 36 36 36 36 36 36 35 35 36
38 40 40 40 39 38 37 37 37 37 37 37 37 37 37 38 37 37 37 37 36 35 35 35 35 36 36 36 36 36 36 36 35 36 36 37 35 34 33 33 32 32 31
37 39 40 40 39 38 37 36 37 37 37 37 37 37 37 37 37 37 37 37 36 36 36 35 35 35 35 37 36 35 34 33 33 32 32 32 33 33 33 31 31 27 25
33 37 39 40 40 39 38 36 36 36 36 36 36 36 36 36 36 36 36 36 36 36 36 37 36 35 35 36 35 33 32 30 30 31 29 25 25 25 26 27 28 29 28
32 35 39 40 40 39 38 37 36 36 36 36 36 36 36 36 36 35 35 35 34 34 34 34 35 35 33 31 29 27 29 28 25 25 26 26 26 25 21 21 24 25 26
32 35 38 40 40 39 38 36 35 35 36 35 36 36 36 36 35 35 35 34 32 31 31 32 31 30 27 28 27 22 21 21 21 22 23 23 24 28 22 21 23 19 22
33 37 39 39 38 38 37 36 35 35 35 35 35 36 36 36 35 35 34 32 31 30 30 30 30 29 27 27 26 20 17 16 17 22 25 27 24 24 25 17 16 18 18
33 37 38 37 37 37 36 36 35 35 35 35 36 36 36 36 35 34 33 30 29 28 28 27 26 26 25 26 26 23 17 16 16 16 15 18 23 23 26 20 21 22 23
35 36 36 37 37 37 36 36 36 36 36 36 36 36 36 35 34 33 31 28 27 26 24 23 22 23 24 27 28 26 21 19 16 15 16 19 25 22 23 24 24 28 25
35 35 37 37 37 37 37 36 37 36 36 35 35 35 35 35 34 32 30 28 27 25 21 19 17 18 19 22 27 28 28 27 20 17 18 24 24 24 21 22 25 27 22
34 34 34 34 35 36 36 36 36 35 35 35 34 35 34 33 32 31 30 29 28 25 21 19 15 14 13 16 20 27 26 25 25 23 23 22 18 20 18 19 23 24 20
32 33 33 33 34 34 35 34 34 35 34 34 34 34 34 34 31 31 30 30 28 24 21 18 13 11 10 11 15 18 20 19 19 20 21 19 12 12 15 16 17 18 19
32 33 34 33 34 34 34 34 34 34 34 33 34 34 33 33 31 30 30 32 28 26 25 20 16 13 13 14 18 21 22 22 22 23 20 17 15 12 10 12 14 16 18

GFSMW_sfc_30mbdewp_090.txt.gz
Dewpoint
42 43 39 39 52 60 62 63 63 64 64 64 64 64 63 64 64 63 62 62 63 63 63 63 63 63 62 62 62 61 60 60 61 60 59 59 60 59 59 59 56 55 56
38 41 38 36 50 60 62 63 63 64 64 64 65 65 64 64 64 64 65 65 65 65 64 64 63 63 63 63 62 61 61 61 61 59 59 56 54 53 55 55 54 53 53
36 41 36 35 37 53 59 61 63 64 64 65 65 65 65 64 64 64 64 65 64 65 65 64 64 64 64 63 63 63 61 60 60 60 58 55 52 52 54 54 53 52 51
36 40 40 37 36 40 55 57 60 63 64 65 64 62 61 60 63 63 64 60 59 59 59 61 62 62 63 63 63 63 62 62 60 60 60 60 58 54 51 52 53 51 52
36 39 40 39 38 45 49 49 53 59 60 60 62 62 62 61 59 58 57 55 54 54 53 54 55 58 60 61 62 62 61 61 61 60 58 58 58 57 55 51 51 53 51
36 39 41 40 40 45 46 47 48 49 48 52 54 56 58 47 46 46 47 48 51 51 51 51 52 54 56 56 57 57 57 58 59 60 59 58 56 55 54 53 52 52 52
35 38 41 39 41 44 46 46 45 45 44 43 43 43 44 42 43 45 45 46 47 49 48 48 49 50 50 53 54 55 56 56 56 58 58 59 58 57 56 54 52 51 51
32 38 40 39 41 45 46 45 45 45 46 45 46 47 47 47 47 46 46 44 45 45 44 44 45 45 46 47 49 53 55 55 55 56 58 57 55 55 55 54 52 50 50
29 37 39 40 43 45 45 45 45 45 46 46 46 46 45 45 44 43 43 41 41 39 40 41 42 43 43 44 46 48 53 53 52 52 52 52 50 50 50 52 51 49 45
28 31 34 39 41 44 45 44 45 45 46 45 44 43 43 42 41 41 40 39 39 39 39 39 40 40 41 42 44 47 50 50 50 50 50 49 48 48 49 49 49 49 47
29 31 33 37 40 43 44 44 44 45 44 43 42 41 41 40 40 40 39 39 39 39 39 38 39 39 39 40 41 45 45 46 47 47 47 46 46 46 46 46 46 46 45
36 34 36 40 42 44 45 45 45 44 43 42 41 40 40 40 39 38 38 38 38 38 37 38 38 38 39 40 41 42 42 42 43 43 43 42 43 42 42 42 42 42 42
37 37 38 40 41 42 43 43 43 42 42 41 41 40 39 39 38 38 37 37 37 36 37 37 37 38 38 39 39 40 40 40 40 41 41 41 41 40 40 40 40 39 40
36 37 38 39 40 42 42 42 42 41 40 40 39 39 39 39 38 38 37 37 36 36 36 36 37 37 37 37 38 39 39 38 38 38 38 37 39 38 37 37 37 38 38
30 37 39 39 40 41 41 41 40 39 39 39 39 38 39 39 38 38 38 38 37 37 36 36 36 36 37 37 37 38 38 38 37 37 37 35 36 36 36 35 33 34 35
30 31 38 39 39 40 40 40 39 39 39 38 38 38 38 38 38 38 38 38 37 37 36 36 36 36 35 38 38 37 37 36 35 35 35 36 35 34 34 33 32 31 31
29 30 34 39 40 40 39 39 38 38 38 38 38 38 38 38 38 38 37 37 37 36 36 36 36 35 37 38 38 36 35 34 34 32 30 30 29 29 28 30 29 27 28
30 31 34 38 40 40 39 38 38 38 38 38 38 38 38 37 37 37 36 37 36 36 36 37 36 35 36 37 36 35 32 31 30 29 26 24 24 23 23 26 26 27 28
32 31 33 34 40 40 40 38 38 38 38 38 37 38 38 37 37 36 37 36 35 35 35 35 35 34 32 33 33 28 27 24 24 25 24 25 27 23 24 25 24 25 27
35 33 34 35 39 40 39 38 37 37 37 37 37 37 38 37 36 36 36 35 34 33 33 33 34 33 29 29 27 22 20 20 21 22 24 27 28 29 22 23 22 20 21
36 35 36 38 38 40 39 38 37 37 37 38 38 37 37 37 36 36 35 34 33 32 32 32 31 29 28 28 28 24 17 17 18 22 24 26 25 25 25 22 20 21 25
36 38 39 40 40 40 39 38 37 38 38 38 37 37 37 37 37 36 34 33 31 30 30 29 27 26 25 27 29 27 22 18 17 17 16 18 24 23 25 23 26 26 24
36 39 39 38 39 39 39 38 38 37 37 37 37 37 37 36 36 35 33 31 30 29 29 27 24 24 24 25 29 28 25 22 19 17 18 23 25 26 23 25 23 27 26
35 38 38 38 38 38 39 39 38 37 37 36 37 36 36 35 35 34 32 31 29 28 28 24 22 21 21 21 25 29 30 29 26 21 20 22 26 24 25 23 23 25 27
34 35 36 36 36 36 36 38 37 37 36 36 36 35 35 35 34 33 32 31 30 30 28 24 21 19 17 19 21 25 27 29 28 27 23 23 22 20 19 19 19 21 25
34 34 34 35 35 35 35 35 36 36 36 35 35 34 34 34 33 32 31 33 32 33 33 29 23 21 19 20 19 21 25 28 27 25 21 20 20 18 16 17 18 19 21

GFSMW_sfc_30mbdewp_096.txt.gz
Dewpoint
46 47 53 60 62 64 64 64 64 64 64 65 64 64 64 65 63 63 62 62 62 61 61 62 62 62 61 60 60 61 60 60 61 60 60 59 59 59 58 58 59 57 55
41 45 45 53 59 62 64 64 63 64 64 63 63 64 64 65 64 65 64 63 63 63 63 63 63 63 63 63 62 62 61 61 61 59 59 55 54 54 54 54 55 53 52
37 41 44 43 51 60 63 63 64 64 64 64 64 64 64 64 64 64 64 65 65 65 64 64 64 64 64 63 63 63 62 60 61 61 57 53 52 53 53 53 51 51 50
37 38 43 41 42 55 61 63 64 64 65 65 64 63 63 62 63 62 63 63 64 64 64 64 62 62 63 62 61 63 63 62 60 60 58 57 56 54 51 53 52 51 49
37 38 41 41 39 44 58 61 63 63 64 64 64 63 62 62 61 62 62 61 59 60 59 59 60 61 60 61 60 59 60 61 60 59 58 57 58 58 55 52 51 50 49
37 38 40 40 38 38 49 57 60 62 62 63 63 62 61 60 59 60 59 57 55 54 54 54 54 56 56 56 56 56 56 56 56 56 57 57 56 55 55 54 51 50 48
36 36 40 40 39 40 44 51 55 58 59 61 61 61 61 59 59 59 57 55 52 50 49 50 51 51 52 53 53 54 54 55 55 54 54 55 56 58 56 54 53 51 47
33 35 38 40 40 41 46 49 50 53 51 53 55 53 57 55 56 54 54 53 51 49 48 47 47 47 47 47 48 50 53 54 54 54 54 54 56 56 56 56 54 51 49
32 33 38 40 40 42 45 46 46 47 46 45 47 49 50 51 50 50 50 49 48 46 44 44 44 44 43 44 44 46 47 52 52 52 52 52 52 52 53 54 54 52 49
32 39 40 40 41 42 44 45 45 45 45 46 46 46 46 46 45 44 44 42 41 41 41 41 41 41 41 41 42 43 45 51 50 50 50 50 50 49 49 50 51 50 50
30 33 39 40 41 44 44 44 45 45 46 45 44 44 43 42 41 41 40 39 39 39 39 39 39 39 39 40 40 41 44 46 47 48 47 48 48 48 48 48 48 48 48
32 33 36 39 42 44 44 44 45 46 45 44 43 42 41 41 40 39 39 39 39 39 38 38 38 38 39 39 40 40 42 42 43 44 45 45 44 45 44 45 44 45 44
34 35 37 37 39 42 44 44 45 45 44 43 42 42 41 40 40 39 39 39 38 38 38 38 38 38 38 39 39 40 40 41 42 42 42 42 42 41 41 41 41 41 42
34 35 36 38 40 42 44 44 44 44 43 42 42 42 41 41 41 41 40 39 37 37 36 37 37 37 37 37 38 39 39 39 39 40 40 40 41 40 39 39 39 38 39
35 36 35 37 40 41 43 44 44 43 42 42 41 41 41 41 39 38 37 37 36 36 36 37 36 36 37 37 37 38 38 38 38 37 37 37 39 39 38 37 37 37 38
30 35 36 37 38 40 42 43 43 43 42 42 41 40 39 38 38 37 37 37 37 36 36 36 36 36 36 37 38 39 38 38 37 36 37 37 37 38 37 35 34 36 36
29 30 34 37 38 39 41 42 42 41 41 40 40 39 39 38 38 38 37 37 36 36 36 36 36 36 36 39 39 39 37 36 36 36 35 32 33 32 31 33 33 33 33
29 30 31 32 38 40 41 42 41 40 40 39 39 39 38 38 38 37 37 36 36 35 35 35 35 35 36 39 39 38 35 35 34 34 32 29 26 26 27 25 25 27 25
34 35 35 35 34 39 41 41 40 39 39 39 38 38 38 38 37 37 36 35 35 34 35 36 36 35 35 38 37 36 33 32 31 29 26 25 23 25 28 26 25 28 29
37 37 36 36 35 38 40 40 39 39 39 38 38 39 38 38 37 36 35 35 35 34 34 35 36 35 34 35 35 33 28 26 25 24 26 29 26 26 28 26 25 23 26
36 37 39 38 39 39 40 39 39 39 39 39 38 38 38 37 37 35 35 35 35 34 34 34 34 34 34 32 35 31 22 21 21 22 23 26 30 29 24 26 24 22 24
37 39 38 38 39 40 39 39 39 39 39 38 38 38 38 37 36 36 35 35 34 34 33 33 33 32 31 32 31 29 25 21 20 21 23 25 28 28 27 25 23 25 25
37 38 38 37 38 39 39 38 38 38 38 38 37 37 37 36 36 35 34 34 34 33 32 32 32 31 29 28 31 31 30 27 21 19 20 23 27 27 26 26 27 28 24
36 37 37 37 37 38 38 38 38 38 38 37 36 36 36 36 35 35 35 34 33 32 31 31 30 29 27 25 26 29 30 30 24 24 25 24 26 28 26 25 26 27 24
35 36 37 36 36 38 37 37 37 37 37 36 36 36 36 36 35 35 34 34 33 33 31 31 30 28 27 25 26 25 28 29 26 27 25 25 25 25 25 25 25 24 26
34 34 35 35 35 36 37 37 37 37 36 36 36 36 36 36 35 34 34 35 35 34 34 34 31 28 29 27 27 27 27 30 31 29 23 20 21 21 23 21 21 21 23

GFSMW_sfc_30mbdewp_099.txt.gz
Dewpoint
46 51 56 61 62 63 64 64 64 65 65 65 64 64 64 64 63 62 61 61 60 61 61 60 60 61 60 60 60 60 59 60 60 60 60 60 60 59 55 55 57 57 56
41 45 47 53 60 63 63 64 64 64 65 65 65 65 64 65 64 64 63 62 62 62 62 61 61 62 62 62 62 61 61 61 61 59 58 55 54 54 54 54 54 52 52
39 40 44 45 53 59 62 63 63 64 64 64 64 63 64 64 64 64 64 64 63 63 63 63 63 64 64 63 62 62 61 60 61 61 57 53 51 52 53 52 51 50 50
39 38 40 44 44 54 60 63 63 64 64 64 63 62 62 62 63 63 63 64 64 64 64 64 64 64 63 62 62 63 62 62 58 60 59 58 55 53 51 53 51 50 49
39 38 38 41 43 44 56 61 63 64 64 64 63 63 62 63 62 62 63 63 63 63 63 63 63 62 62 61 61 61 62 62 61 59 58 57 56 56 55 53 51 50 49
36 38 38 40 42 41 50 58 61 62 63 63 63 63 63 61 61 61 61 59 58 58 58 58 58 58 58 58 58 57 57 56 56 56 56 56 55 54 54 53 52 50 48
34 36 37 39 40 39 42 50 58 60 61 62 62 62 62 61 60 59 59 57 55 54 54 53 53 52 53 53 53 54 54 55 54 54 54 54 55 56 56 55 53 51 47
32 35 36 38 39 40 41 45 50 56 59 59 60 58 59 59 58 58 57 56 54 52 49 49 49 48 47 47 48 49 50 53 54 54 54 54 54 55 56 55 54 51 48
31 33 35 37 39 40 42 43 48 53 53 53 54 53 54 54 55 54 54 54 53 51 50 48 46 45 44 43 44 44 45 47 51 52 51 51 52 52 52 53 54 53 49
34 38 36 38 39 41 44 46 47 48 47 46 47 48 50 51 50 50 50 49 46 45 43 42 42 41 41 41 41 41 43 46 50 50 50 49 50 50 50 50 51 51 51
31 36 40 40 41 43 44 44 45 45 45 46 45 45 46 46 45 45 43 42 41 41 40 40 40 39 39 39 40 40 41 44 46 48 47 47 48 48 48 48 48 48 48
31 33 38 41 41 42 43 43 44 45 45 45 44 43 43 42 41 41 40 39 39 39 39 39 39 39 39 39 39 39 41 41 42 43 44 45 44 45 44 45 45 45 46
34 34 35 36 39 42 43 43 44 45 45 44 43 42 41 41 40 39 39 39 38 38 38 38 38 38 38 38 38 39 39 40 40 41 42 42 42 42 41 41 42 42 43
34 34 35 36 38 40 42 44 44 45 44 43 42 41 41 40 40 40 40 40 39 38 37 37 37 37 37 37 38 38 38 38 39 39 40 40 41 41 39 39 39 39 40
33 34 34 34 37 40 42 43 44 44 43 42 42 41 41 41 41 40 39 38 37 36 36 37 37 36 36 37 37 37 38 38 38 38 37 38 39 40 39 38 38 38 38
28 29 35 36 36 38 40 43 43 44 43 42 42 42 41 40 40 38 37 36 36 36 36 36 36 36 36 37 38 39 38 38 38 37 37 38 38 38 39 38 37 37 37
30 29 30 34 36 37 39 41 43 43 42 42 41 41 40 39 38 37 36 36 36 36 35 35 36 36 36 38 39 40 38 37 37 36 36 33 34 33 33 35 34 35 36
29 29 30 31 32 37 39 41 42 42 42 41 41 40 39 38 37 37 36 36 36 35 35 35 35 35 35 38 40 38 35 35 35 35 34 31 29 29 27 27 27 27 26
34 35 36 36 35 35 37 41 41 41 41 40 40 39 38 38 37 36 36 35 35 34 34 35 35 35 35 38 39 37 34 33 33 31 28 29 26 25 29 24 25 28 29
37 37 37 36 36 36 38 40 40 40 40 40 39 39 38 38 37 36 36 35 35 34 34 34 35 36 35 35 37 36 31 30 28 26 25 29 25 26 28 26 25 25 27
36 38 39 38 39 40 40 40 40 40 40 39 39 39 38 38 37 36 35 34 34 35 35 34 34 35 35 33 36 37 28 27 25 24 24 26 31 29 27 29 26 24 26
37 38 38 38 38 39 40 39 39 40 39 39 39 38 38 37 36 36 35 35 34 34 34 34 33 33 33 34 33 35 32 24 20 20 21 23 27 31 29 26 27 27 26
37 37 37 37 38 38 39 39 38 39 39 38 38 38 37 37 36 35 35 34 34 34 34 33 33 33 32 31 33 33 32 29 25 21 21 24 27 28 28 27 27 26 26
36 37 37 37 37 37 38 38 38 39 38 37 37 37 36 36 35 35 34 34 34 34 33 32 32 31 30 29 28 28 31 32 31 26 23 25 25 28 28 27 27 28 25
35 36 36 36 37 37 37 37 38 38 37 37 36 36 36 35 35 35 34 34 34 34 33 32 32 31 30 29 29 27 26 29 29 26 25 23 24 25 27 27 25 25 27
34 35 35 35 35 36 36 36 37 37 36 36 35 35 35 36 35 35 35 36 35 35 35 35 33 31 31 32 31 31 30 29 31 29 24 22 22 24 25 24 23 23 24

GFSMW_sfc_30mbdewp_102.txt.gz
Dewpoint
46 54 61 63 63 63 64 65 65 63 66 65 64 63 63 63 62 61 62 61 61 60 60 60 59 60 59 58 58 59 59 59 60 59 59 59 59 57 54 55 56 56 56
40 42 50 59 62 62 63 64 63 64 64 65 65 64 64 64 63 63 62 62 61 61 61 60 60 60 60 60 60 60 60 60 61 59 58 53 54 53 53 54 53 52 53
39 39 42 48 58 61 62 63 64 64 65 64 65 64 64 64 64 64 63 63 62 62 62 62 62 61 62 62 62 62 61 58 61 61 56 53 51 52 53 52 51 50 50
39 39 40 43 46 55 61 63 63 64 64 64 63 62 61 60 63 63 63 64 64 63 63 63 63 63 63 63 63 63 62 61 56 59 60 58 56 53 51 52 51 49 49
38 38 39 40 43 45 52 60 62 63 63 63 63 63 62 62 62 62 63 63 63 63 63 63 63 63 62 62 61 60 60 61 60 59 58 57 56 56 54 52 52 50 49
37 38 39 40 40 43 46 56 61 62 63 63 63 62 62 61 61 61 61 61 60 60 60 60 60 60 60 59 59 58 57 57 56 56 56 56 55 54 53 53 52 51 49
34 35 37 38 39 39 41 51 57 59 61 62 62 63 62 62 61 60 60 58 57 57 57 58 58 58 58 56 55 54 54 54 54 54 53 54 54 55 55 54 53 52 48
28 29 35 37 38 39 40 43 50 55 59 60 61 61 61 61 60 59 58 58 57 55 54 53 51 51 50 49 48 49 50 51 52 52 53 53 53 54 54 54 52 50 49
32 32 34 37 38 39 39 41 45 51 56 58 59 58 58 58 58 57 56 55 54 52 51 50 48 47 45 44 44 44 44 45 48 50 51 51 51 51 51 52 52 51 46
35 38 37 35 38 40 41 44 46 48 51 53 54 53 53 53 53 53 54 53 51 50 48 47 45 43 42 41 41 41 42 43 46 49 49 49 49 49 49 50 50 51 50
32 38 40 40 40 42 43 44 46 48 48 47 47 48 49 50 50 51 50 49 48 46 44 42 40 40 39 39 39 40 41 42 43 46 47 47 47 47 47 48 48 48 48
31 35 39 41 41 42 43 44 45 45 46 45 45 45 45 45 45 44 43 42 41 40 40 39 39 39 39 39 39 39 40 40 40 41 43 43 44 44 44 44 45 45 46
33 34 34 36 40 42 43 43 44 44 45 44 44 43 42 42 41 40 39 39 39 38 38 38 38 38 38 38 38 38 39 39 39 40 41 41 41 42 41 41 41 42 43
33 33 33 34 37 39 42 43 43 44 44 43 43 42 41 41 40 39 39 38 38 38 38 38 38 38 37 37 37 38 38 38 38 39 39 39 40 40 40 39 39 39 40
31 33 33 33 35 37 40 42 43 44 43 43 42 41 41 40 40 39 40 40 39 37 37 37 36 36 36 37 37 37 37 37 38 37 37 37 39 40 40 39 38 38 38
30 29 29 34 35 36 38 41 43 43 43 42 42 41 41 40 40 39 38 37 36 36 36 36 36 36 36 37 39 39 38 38 38 37 37 37 37 37 40 39 39 38 37
32 31 30 30 33 36 38 39 42 43 43 42 42 41 41 40 39 38 37 36 35 35 35 35 36 35 36 38 39 40 38 37 37 37 36 34 34 33 34 34 34 34 35
32 30 30 31 33 34 37 39 41 42 42 42 41 41 40 39 38 37 36 35 35 35 35 35 35 35 35 37 39 39 36 35 36 36 36 33 31 30 28 27 28 28 29
33 34 36 36 36 36 35 38 40 41 42 42 41 40 40 39 37 36 35 35 35 34 34 34 35 35 34 37 38 38 34 34 34 33 31 30 29 28 30 24 24 26 28
36 36 36 37 37 37 37 37 38 40 40 41 41 40 39 38 37 36 35 35 35 34 34 35 34 35 34 36 38 37 34 32 31 29 26 31 28 26 28 27 24 23 26
36 38 38 38 38 39 39 38 38 39 40 40 40 39 39 38 37 35 35 35 35 34 34 34 34 34 35 35 36 37 32 30 28 27 25 25 30 31 29 31 26 24 26
36 37 37 37 38 38 40 39 39 40 40 40 39 39 38 37 36 36 35 34 34 34 34 34 34 34 34 35 35 36 36 29 23 21 20 21 26 30 31 27 29 28 27
36 37 37 37 37 37 39 39 38 39 39 39 39 38 37 36 36 36 35 34 34 34 34 34 34 33 33 33 34 36 35 35 26 23 22 24 26 27 30 29 28 27 26
36 37 36 36 36 36 37 37 38 39 39 38 37 37 36 36 36 35 35 34 34 34 34 34 33 33 32 32 31 31 33 34 33 30 27 24 25 27 28 28 28 27 26
35 36 36 36 36 36 36 37 38 38 37 37 37 36 36 36 35 35 34 34 34 35 34 34 33 32 32 31 31 30 28 28 30 27 25 23 23 24 26 27 26 26 27
34 34 35 35 35 36 36 36 37 37 37 36 36 36 36 35 35 35 35 36 36 36 36 36 34 32 33 33 33 33 33 31 30 29 26 24 22 22 24 25 26 25 25

GFSMW_sfc_30mbdewp_105.txt.gz
Dewpoint
54 60 61 60 60 59 57 55 56 65 65 64 63 63 63 63 61 62 63 63 63 63 63 62 62 60 58 58 57 58 58 59 60 60 60 60 59 58 55 56 57 57 57
45 54 60 61 60 60 61 63 61 64 65 65 65 63 64 64 63 63 63 63 63 62 62 61 61 60 59 59 59 59 60 61 61 59 59 55 54 54 54 54 54 54 55
39 41 50 59 61 60 61 62 61 64 63 63 63 61 64 64 64 64 63 63 63 62 62 61 61 61 61 60 61 61 61 60 61 61 57 53 51 53 54 53 52 53 53
40 40 41 46 55 60 62 62 62 63 62 63 63 59 60 60 62 62 63 64 64 63 63 62 62 62 62 62 63 63 62 60 57 59 61 60 56 54 52 53 52 51 51
40 39 39 40 44 51 59 62 63 62 63 64 63 62 61 61 62 61 63 63 64 63 63 63 63 63 63 63 62 61 60 60 58 59 59 58 58 57 56 53 52 51 50
39 39 39 40 40 44 47 56 61 62 63 63 63 63 62 62 61 62 62 62 61 62 62 63 63 62 62 61 61 60 59 58 58 58 57 56 54 54 54 53 53 52 50
38 38 38 38 39 41 43 51 56 60 62 62 62 63 62 62 61 60 61 60 59 59 59 60 61 60 61 60 60 59 57 56 55 54 54 54 54 55 53 52 51 51 50
35 35 37 37 37 39 41 46 54 56 60 61 62 62 63 62 61 61 60 59 59 58 58 58 58 57 56 55 54 53 53 53 53 53 53 53 54 55 53 50 50 48 50
31 31 31 33 36 38 39 40 46 53 57 60 60 61 61 60 60 59 59 58 57 56 55 54 52 50 48 47 47 46 46 47 49 50 51 51 51 52 52 53 52 49 44
36 39 35 34 37 39 40 41 44 49 54 58 58 58 57 57 57 57 57 56 54 52 51 49 47 45 43 43 43 43 43 44 46 49 49 49 49 49 49 50 50 51 48
35 39 40 39 39 41 42 43 45 47 50 53 54 53 52 52 53 54 53 52 51 49 48 46 43 41 40 40 40 41 42 42 43 45 46 47 47 47 48 48 48 49 49
33 37 41 41 41 42 43 44 46 47 48 48 48 48 49 49 50 50 49 48 47 45 43 41 40 39 39 39 39 39 40 40 40 41 42 43 44 44 45 45 45 46 46
33 34 35 38 41 42 43 44 45 46 46 45 45 45 46 46 45 45 43 43 42 40 39 39 39 39 39 39 39 39 39 39 40 40 41 41 42 42 42 42 42 42 42
33 33 33 35 38 40 43 43 43 44 44 44 43 43 43 43 42 41 40 39 39 39 39 39 38 38 38 38 38 38 38 38 39 39 40 40 40 40 41 41 40 40 39
30 29 31 34 35 37 40 42 43 44 44 43 43 42 41 41 40 39 39 38 38 38 38 38 37 37 37 37 37 38 38 38 38 38 38 38 39 40 41 40 39 39 38
32 32 30 30 33 35 37 40 42 43 43 43 42 41 41 40 39 39 39 39 38 37 37 37 37 37 36 39 40 39 38 38 38 38 38 37 37 37 39 39 39 39 38
33 32 31 30 31 33 36 37 41 43 43 43 42 41 40 40 39 39 38 37 36 36 36 36 36 36 37 39 40 40 38 37 38 37 37 35 34 33 34 34 34 34 35
33 32 30 32 34 34 36 38 40 42 42 42 42 41 40 40 39 38 37 36 36 36 36 36 36 36 36 39 40 38 36 36 36 36 36 35 32 31 30 28 29 29 30
34 35 36 36 36 36 36 36 38 41 42 42 42 41 41 39 38 38 36 35 35 34 35 35 35 35 35 38 39 37 34 34 34 34 32 32 31 29 31 26 24 26 28
36 36 37 38 38 38 39 37 37 39 40 42 42 41 40 39 38 37 35 35 35 35 35 35 35 35 35 37 38 38 35 33 32 30 28 31 32 28 29 29 24 22 25
36 38 37 37 37 38 38 38 38 37 39 41 41 41 40 39 38 36 36 35 35 35 35 35 35 35 35 35 37 37 35 32 30 29 28 26 29 32 30 31 27 24 26
36 37 37 37 37 37 38 39 39 39 40 40 40 40 39 38 36 36 35 35 35 35 34 35 35 34 34 36 36 37 37 33 30 27 24 22 25 28 32 30 30 29 28
36 37 36 37 37 37 37 38 38 39 39 40 39 39 38 37 36 36 35 34 35 34 34 34 34 34 33 33 35 36 37 37 28 24 22 23 25 27 29 32 29 28 27
35 36 36 36 36 36 36 37 38 39 39 39 38 38 37 36 36 36 35 35 34 34 34 34 34 34 33 33 33 33 35 36 36 32 30 27 25 27 28 29 29 28 27
35 35 36 36 36 36 36 36 38 38 38 38 37 37 37 36 35 35 35 35 35 35 35 35 34 34 33 32 33 32 31 31 32 29 26 25 24 24 25 27 27 27 28
34 34 35 35 35 35 36 36 37 37 37 37 37 37 36 36 35 35 35 36 36 37 36 36 34 34 34 34 34 34 34 33 31 29 27 26 24 23 22 24 26 26 26

GFSMW_sfc_30mbdewp_108.txt.gz
Dewpoint
57 59 60 61 61 62 59 62 63 65 65 65 64 64 61 60 60 60 60 61 62 63 64 63 62 62 60 59 59 57 57 58 60 60 59 60 60 59 58 56 55 56 58
55 58 60 60 60 60 60 58 60 64 65 65 64 64 64 64 63 62 61 62 62 62 64 63 62 62 60 59 59 58 58 59 62 58 58 53 53 55 55 55 54 55 57
52 56 57 59 57 60 58 59 60 63 64 65 64 62 62 63 63 64 64 64 63 64 64 63 63 62 62 60 60 60 60 59 61 62 58 54 50 52 53 54 54 54 55
43 49 55 58 56 60 60 60 60 63 64 64 62 59 57 57 61 60 63 63 64 64 64 63 64 63 63 62 62 63 62 60 58 60 59 58 56 52 51 54 53 53 53
42 42 43 50 59 57 59 60 59 61 60 61 58 61 59 59 60 62 61 59 61 64 64 64 64 63 63 63 63 63 62 60 58 58 59 59 57 58 55 50 49 53 52
42 42 44 45 48 56 60 61 60 60 62 61 61 61 61 59 60 60 60 59 60 62 63 64 64 64 64 63 63 63 61 61 60 59 59 57 55 50 50 49 49 49 51
40 40 40 41 41 46 50 58 61 61 60 61 62 60 62 61 60 59 61 60 61 61 62 63 63 63 63 63 62 61 61 59 58 57 57 55 53 53 51 50 49 48 50
37 38 38 40 41 43 45 48 53 58 61 62 62 62 61 61 61 61 62 61 61 61 61 62 62 62 61 61 60 59 57 57 56 55 54 53 53 54 53 50 49 47 46
35 35 35 38 40 40 43 44 49 52 58 62 61 62 63 62 62 62 62 61 61 60 60 59 58 57 56 56 56 56 54 53 53 53 52 51 51 52 52 51 51 48 43
36 37 37 34 34 37 41 43 45 50 54 59 61 60 60 61 61 61 60 60 59 57 57 55 53 51 50 49 48 47 46 46 47 49 49 49 50 50 50 50 49 49 47
38 40 40 39 37 38 41 42 43 48 53 58 59 58 58 58 58 58 57 56 54 53 51 49 47 45 44 43 43 42 42 42 44 46 46 46 47 47 47 48 48 48 47
37 39 41 41 40 41 42 43 45 47 50 54 56 56 54 54 54 54 54 53 52 51 48 46 43 42 41 40 40 40 41 41 41 42 43 43 44 45 46 46 46 46 47
33 34 38 41 41 42 43 45 46 47 49 49 50 50 50 51 52 52 51 50 48 45 42 42 41 40 40 39 39 40 40 40 40 41 41 42 43 43 44 44 44 44 43
32 33 34 36 40 42 43 44 45 46 47 46 46 47 48 48 48 48 48 46 43 41 40 40 40 39 39 39 39 39 39 39 39 40 41 41 41 42 42 42 42 41 40
32 31 33 33 36 38 41 43 44 44 44 44 44 44 45 45 44 44 44 43 42 40 40 39 39 39 39 38 38 39 39 39 39 40 39 40 40 40 41 40 40 40 39
33 33 31 31 35 36 38 42 43 44 44 44 44 43 43 42 42 42 41 40 40 39 39 39 38 39 37 39 39 39 39 39 39 39 39 39 38 38 40 39 39 40 39
34 34 32 31 32 33 37 38 41 44 44 44 43 42 42 41 41 40 40 40 40 40 39 38 38 38 39 41 41 40 39 38 39 39 39 37 36 35 37 36 34 34 34
34 33 32 34 35 36 35 37 40 42 44 44 43 43 42 41 40 40 40 40 40 39 39 38 39 39 39 40 41 39 39 38 38 37 37 37 35 33 32 31 32 31 31
35 36 36 36 37 37 36 36 37 40 42 43 43 43 42 41 40 40 40 40 39 39 39 38 38 38 38 40 41 38 36 35 35 35 36 35 33 31 33 29 27 25 28
36 36 37 37 37 38 38 38 37 37 39 41 43 43 42 41 40 41 40 39 38 36 37 37 38 38 37 39 39 38 36 34 33 33 32 33 32 31 32 32 27 23 23
37 38 37 37 38 38 39 39 39 38 38 41 43 43 42 42 41 39 39 37 37 37 37 36 36 36 36 37 39 38 36 34 33 32 30 28 30 33 31 29 28 26 25
37 37 37 38 38 38 38 39 40 41 40 40 42 42 42 41 40 39 38 37 37 37 36 36 36 36 36 37 38 38 37 36 33 31 30 28 28 29 32 31 30 29 28
36 37 37 37 38 37 38 38 40 39 40 40 41 42 41 40 39 38 37 36 37 36 36 36 36 36 35 35 37 38 38 37 33 29 23 22 24 26 27 32 31 30 28
35 36 37 37 37 37 37 38 39 39 40 40 40 40 39 38 38 38 37 37 36 36 35 35 35 35 34 34 35 36 37 37 37 33 30 29 27 26 25 29 31 29 27
35 36 36 36 36 36 37 37 38 39 39 39 39 39 38 37 37 37 37 36 36 36 35 36 36 35 34 34 34 34 33 35 36 34 31 30 27 25 23 25 26 27 28
35 35 35 35 35 35 36 36 37 38 38 38 37 37 37 36 36 35 35 37 37 37 38 38 37 35 35 35 35 35 34 33 33 31 28 27 27 26 23 21 23 25 25

GFSMW_sfc_30mbdewp_111.txt.gz
Dewpoint
56 57 58 60 59 60 63 65 64 63 63 63 61 60 57 58 59 62 64 63 62 61 61 63 61 61 59 59 59 58 56 57 58 59 60 58 58 58 57 57 55 55 56
55 57 59 60 60 60 61 61 63 63 64 64 64 63 62 61 60 60 59 60 61 62 62 62 62 61 61 60 60 59 57 58 61 59 57 53 54 56 56 55 54 54 55
54 56 58 59 60 60 60 60 60 62 64 64 64 64 64 64 63 63 62 62 62 62 64 63 63 63 63 62 61 60 59 60 61 61 57 55 52 52 54 54 54 54 54
54 55 57 59 59 57 56 60 59 60 63 64 63 62 60 59 61 63 63 63 64 63 64 64 64 64 64 64 62 62 61 61 59 59 60 59 57 53 51 54 54 54 53
53 54 56 58 58 57 56 60 60 61 60 60 60 60 59 60 61 61 61 61 61 63 64 64 64 64 64 63 63 63 63 62 60 59 59 59 58 58 56 53 52 53 53
46 49 55 58 57 59 61 60 60 60 61 60 61 60 60 59 60 60 59 59 60 61 63 64 64 64 63 63 63 63 63 62 60 60 58 57 55 55 54 52 51 49 52
44 45 46 48 54 58 59 58 59 59 60 60 58 60 61 60 59 58 57 56 59 60 60 62 64 64 63 64 64 63 63 62 60 59 58 58 57 55 52 51 50 49 49
41 42 43 45 48 53 56 57 58 58 59 59 59 60 61 60 59 59 58 58 59 60 62 62 63 63 63 63 63 62 61 60 59 58 57 55 53 53 53 51 49 48 48
32 40 41 42 42 46 50 54 56 57 57 59 59 60 61 60 60 60 60 60 60 61 62 62 62 62 61 61 60 59 57 58 58 56 55 53 52 52 52 52 51 50 45
34 37 36 37 40 41 45 46 49 52 57 60 61 61 60 60 61 61 61 61 61 61 60 60 58 57 56 56 56 55 53 53 52 51 51 50 50 50 51 51 50 50 48
38 39 40 38 36 37 40 43 45 49 52 58 61 60 61 62 62 61 61 60 59 58 57 55 53 51 50 50 49 48 47 46 47 47 47 48 48 48 48 48 48 48 48
36 40 41 39 39 39 39 41 43 46 51 56 58 59 59 59 59 58 57 56 55 55 53 50 48 46 45 44 43 42 43 43 43 44 44 45 45 46 46 46 46 47 46
32 36 40 40 40 41 41 42 45 47 52 55 56 56 56 56 56 55 54 54 53 50 48 47 45 43 42 41 41 41 41 41 41 42 42 42 43 44 45 45 45 45 43
31 32 34 39 41 42 43 44 46 48 49 51 51 52 52 52 53 53 52 50 48 45 43 42 41 41 41 41 41 40 40 40 40 41 41 41 41 42 43 43 43 42 41
32 31 32 33 36 40 43 44 45 46 47 47 47 48 49 49 50 50 48 46 45 43 41 40 41 41 41 40 39 40 40 40 40 41 41 41 40 40 41 40 41 40 39
34 33 32 31 33 35 39 43 44 44 44 44 44 45 45 45 46 46 46 44 42 41 40 40 40 41 38 40 40 40 40 40 40 40 40 40 38 39 40 40 39 39 40
34 34 32 32 33 34 36 38 41 44 44 44 44 43 43 43 43 43 42 42 41 40 40 40 40 39 40 41 40 40 40 40 40 40 40 39 37 37 39 37 35 35 35
34 34 35 35 36 36 35 36 39 42 44 44 44 43 43 42 42 41 41 41 41 41 41 40 40 40 40 42 41 40 40 39 39 38 38 38 36 36 34 34 33 32 31
35 35 36 36 36 37 37 37 36 38 41 43 44 44 43 42 41 41 41 42 42 41 41 40 40 40 40 42 41 38 37 36 36 36 37 37 36 34 35 32 31 28 28
38 37 37 37 37 38 38 38 37 36 36 39 43 44 43 42 42 42 42 42 40 39 40 39 39 40 39 41 40 39 36 34 35 34 34 34 34 33 34 33 31 27 25
39 39 38 37 38 39 39 39 39 38 39 39 41 44 44 43 43 43 42 40 39 38 38 38 38 38 38 40 40 39 37 35 34 33 32 31 35 35 32 31 30 28 25
37 38 38 38 39 39 39 39 40 41 41 41 41 43 44 43 43 41 40 39 37 37 37 36 36 36 37 37 40 39 39 36 34 33 32 31 32 32 33 32 31 29 28
36 37 37 38 39 38 38 38 39 40 40 40 40 42 43 42 42 41 39 38 37 37 37 36 36 36 36 37 38 39 39 38 36 34 28 25 27 27 28 31 33 31 29
36 36 37 37 37 37 37 38 38 39 40 40 40 41 42 41 41 40 39 38 37 37 36 36 36 37 36 36 37 38 38 38 38 35 30 27 26 25 26 27 33 31 29
35 36 36 36 36 36 37 37 38 39 40 40 40 40 40 40 39 39 38 38 37 37 37 36 37 36 35 35 36 36 36 37 37 35 33 31 29 27 25 25 26 29 29
36 35 35 36 35 36 36 36 37 38 39 39 39 39 38 37 37 37 36 37 37 38 38 38 37 37 36 36 37 36 35 35 37 33 31 30 29 28 26 23 24 26 27

GFSMW_sfc_30mbdewp_114.txt.gz
Dewpoint
54 55 56 57 57 58 59 59 58 62 58 61 61 62 61 62 63 64 63 61 60 59 60 62 61 60 59 59 59 58 56 56 59 59 59 59 59 58 58 59 56 56 56
55 56 58 58 59 59 59 62 61 61 59 59 59 59 60 62 64 64 64 63 62 61 61 62 62 61 60 60 60 59 57 58 60 58 57 54 54 57 57 56 55 55 56
55 57 58 59 59 59 59 60 61 61 61 62 62 62 61 61 60 60 61 61 62 62 62 62 63 63 63 62 61 61 59 59 60 60 56 53 50 53 56 54 55 54 55
56 56 56 58 59 59 58 60 59 61 62 63 62 61 61 61 62 62 63 62 63 63 63 63 64 64 64 63 62 62 61 61 59 60 60 59 57 53 52 55 54 54 54
55 55 54 56 57 59 57 58 59 60 61 62 62 61 61 61 63 63 62 61 61 63 64 64 64 63 64 64 63 62 62 61 60 59 59 58 58 57 55 52 53 53 53
54 54 55 59 57 56 57 59 58 58 60 61 61 59 57 58 60 61 60 60 59 60 63 64 63 63 63 63 63 63 62 61 61 61 60 57 56 56 55 55 53 51 52
50 52 54 58 57 54 56 59 58 58 60 60 60 59 58 59 59 59 59 59 59 59 60 62 63 63 62 62 63 63 62 62 61 61 60 58 57 57 53 51 50 48 50
46 48 49 54 57 56 57 59 59 56 57 58 59 60 61 60 60 59 59 58 58 58 60 60 61 61 62 63 63 62 62 63 62 60 59 58 56 54 53 51 49 47 48
42 45 46 48 50 54 58 58 58 57 58 59 60 60 59 61 59 59 59 59 59 59 60 60 62 62 63 63 63 61 60 61 59 58 57 55 55 54 53 52 51 49 45
37 39 41 42 44 47 52 57 58 58 58 59 59 59 60 60 60 60 57 59 59 60 61 61 61 61 61 61 61 59 58 58 57 56 55 52 51 51 51 51 51 50 48
40 40 39 37 36 39 46 51 55 56 56 58 59 59 59 59 61 60 58 59 60 60 60 60 59 58 57 57 57 55 55 54 51 52 50 49 49 49 50 49 49 48 49
39 41 40 39 38 38 41 43 44 49 52 58 60 60 61 61 60 61 61 60 59 58 57 56 55 54 53 52 50 49 49 48 47 47 47 47 47 47 47 46 47 47 46
33 38 41 41 42 42 40 42 44 48 55 58 58 59 59 59 58 57 56 56 56 54 52 51 50 48 48 46 45 45 45 44 44 44 43 44 44 44 45 45 45 45 44
32 32 36 42 42 43 44 45 48 51 53 54 55 55 55 56 56 55 54 53 50 49 47 45 45 44 42 43 43 43 43 43 42 42 42 42 42 42 44 44 43 43 42
34 32 32 35 39 42 44 45 46 48 50 51 52 52 51 52 52 51 50 48 45 44 42 42 42 42 42 42 42 42 41 41 41 41 41 41 40 41 42 41 41 41 40
34 33 33 33 35 36 41 44 44 45 46 46 48 49 49 49 49 48 46 45 43 42 41 41 41 41 41 42 42 42 40 40 40 40 40 40 39 40 41 40 40 40 39
35 35 35 36 36 35 36 39 43 44 44 44 44 45 45 45 46 46 44 43 41 41 41 41 41 40 41 43 42 41 40 40 40 40 39 39 38 38 39 39 37 37 37
35 36 36 36 37 37 37 37 40 43 44 44 43 43 43 43 43 43 42 42 41 41 41 41 41 40 41 42 41 41 40 40 39 40 39 38 36 36 36 34 34 33 32
38 37 37 37 37 38 38 38 38 37 42 44 44 43 43 42 42 41 41 41 41 41 40 40 40 40 41 42 41 39 39 38 37 37 38 37 36 36 35 33 31 30 29
39 39 38 38 38 39 39 39 39 38 37 38 42 44 43 42 42 41 42 42 41 40 40 40 40 40 41 42 40 38 37 35 35 35 35 36 35 35 36 33 31 29 27
37 38 39 38 39 39 39 39 40 41 42 42 40 44 44 43 42 42 42 40 40 40 39 39 39 39 40 42 41 40 36 35 34 34 33 33 36 35 35 35 32 29 26
36 37 37 38 39 39 38 38 39 40 40 41 41 41 44 44 43 42 40 39 39 38 38 37 37 38 39 41 41 40 39 36 34 33 33 32 33 35 35 33 32 31 28
36 37 37 37 38 38 38 37 38 39 39 40 40 41 43 43 42 40 39 38 37 37 37 36 36 36 37 40 41 41 40 38 35 34 31 32 33 33 32 32 33 32 29
36 36 36 36 37 37 37 37 37 38 39 40 40 41 42 42 41 40 39 38 37 37 37 36 36 36 36 36 38 39 39 38 38 35 30 25 25 25 25 27 29 32 30
36 36 36 36 36 36 36 36 37 38 38 40 40 40 41 41 40 39 39 38 38 38 37 37 37 36 35 36 37 38 38 38 38 35 32 30 29 27 26 25 27 31 31
36 36 36 36 36 36 35 35 35 37 38 38 39 39 39 38 38 38 37 38 38 38 38 38 37 37 37 37 37 38 38 38 38 35 33 32 31 29 28 25 25 26 29

GFSMW_sfc_30mbdewp_117.txt.gz
Dewpoint
57 57 57 57 57 58 58 58 60 61 63 59 58 56 56 56 56 55 55 56 56 57 58 57 57 57 57 57 57 57 56 56 59 58 58 58 59 58 58 59 56 56 58
55 56 56 57 58 57 58 59 59 62 62 61 59 57 58 59 59 58 58 57 58 58 60 61 60 59 59 59 58 58 57 57 60 58 57 55 54 55 58 56 55 56 57
54 56 56 57 59 59 59 60 58 62 62 63 62 62 62 62 61 62 60 60 60 60 60 63 63 61 61 60 60 60 58 58 60 60 56 52 50 53 56 55 54 54 55
54 56 57 58 59 59 60 59 61 61 61 62 61 60 59 59 60 61 63 62 62 62 62 62 63 63 63 62 61 62 61 60 59 60 60 59 57 52 52 54 54 54 54
54 55 57 58 58 58 57 58 60 61 61 60 61 60 58 59 61 62 62 62 63 63 63 63 63 63 63 62 62 62 62 62 61 59 57 58 57 57 54 51 53 54 54
54 54 56 57 58 58 58 58 58 60 60 60 58 56 54 60 59 61 61 61 62 63 63 63 63 63 63 63 62 62 61 61 61 60 58 58 56 56 56 54 54 52 52
53 53 56 56 55 56 57 57 57 58 60 60 58 58 58 58 58 60 61 60 59 60 61 62 62 62 61 62 62 61 61 61 61 60 60 60 58 57 54 53 51 49 50
52 53 54 54 54 54 56 58 56 58 59 60 59 59 60 59 59 59 59 59 59 59 60 61 62 62 62 61 61 61 62 62 61 61 61 60 59 56 55 53 50 47 48
42 48 51 55 55 56 56 58 57 56 58 58 59 59 59 59 59 59 59 58 58 58 59 60 60 60 61 61 61 61 61 61 62 61 60 58 56 55 54 53 51 47 41
41 40 40 44 50 55 57 58 58 57 57 58 58 59 59 60 60 59 58 58 58 58 59 59 59 61 61 61 61 61 60 60 59 58 57 56 55 54 53 52 51 50 48
40 40 39 38 37 42 50 57 58 58 57 58 59 58 59 60 60 59 59 59 59 59 60 60 60 60 59 60 60 60 59 58 57 56 56 53 51 51 50 50 50 49 49
40 41 41 42 41 39 44 50 55 58 58 58 58 58 59 60 60 60 60 60 58 59 59 60 59 58 58 58 58 57 56 55 54 53 52 49 49 48 48 48 48 47 47
33 39 42 42 43 44 43 45 49 52 56 58 59 59 59 59 59 59 59 59 58 58 57 58 57 56 55 54 52 51 51 50 49 48 48 47 47 46 46 45 45 45 45
32 33 36 40 43 44 46 47 49 52 54 56 56 56 56 57 57 56 56 55 54 54 53 53 52 51 50 49 47 47 47 46 45 45 44 44 44 43 44 44 44 43 42
34 34 34 35 36 42 44 45 46 48 51 52 53 53 53 54 54 53 52 50 50 49 48 47 47 45 45 44 44 44 44 43 43 42 42 42 42 43 43 42 42 41 40
35 35 36 36 36 36 40 44 44 45 47 48 49 50 51 52 50 49 48 47 45 43 43 43 43 42 42 44 44 43 42 42 41 40 40 40 40 41 42 41 41 40 39
35 36 36 36 37 37 37 38 43 44 44 45 45 46 47 48 49 47 46 45 43 42 42 42 42 41 43 43 43 42 41 40 40 39 39 38 39 40 40 40 39 38 38
37 37 37 37 38 38 38 38 38 43 44 44 43 44 44 45 46 45 45 43 42 42 42 42 41 41 43 43 43 42 41 40 40 40 39 38 37 38 38 36 34 33 33
38 39 39 38 38 39 39 39 39 38 39 43 44 43 43 43 43 43 43 42 41 41 42 41 40 40 42 43 42 40 39 39 39 39 39 37 36 37 37 34 33 32 30
37 38 38 39 39 39 39 40 40 41 41 41 40 44 43 43 42 42 42 41 41 40 40 40 40 40 41 42 41 39 38 37 37 37 37 38 36 38 37 33 32 30 28
37 38 38 38 39 38 38 38 39 39 40 40 41 41 44 43 42 41 41 41 41 40 39 39 40 40 41 41 41 39 36 36 35 35 34 36 37 37 37 35 33 31 28
37 37 37 37 38 38 37 37 37 38 39 40 40 41 41 44 42 41 40 40 40 39 39 38 39 39 40 42 42 41 37 36 35 34 33 33 37 36 36 35 34 32 28
37 36 36 37 37 37 37 36 36 38 38 39 40 40 41 43 42 41 40 39 38 38 38 38 37 37 38 40 42 41 40 38 34 34 33 33 35 36 36 36 34 32 28
37 36 36 36 36 36 36 36 36 37 38 39 40 40 41 42 42 40 39 38 37 37 37 37 37 37 37 39 41 41 41 39 35 34 33 34 33 32 30 30 31 32 30
37 36 36 35 36 36 36 35 35 36 38 38 39 40 40 42 41 41 40 39 38 38 37 37 37 37 36 37 39 40 40 39 37 34 30 27 26 25 25 25 28 31 31
37 36 36 36 36 35 35 34 35 35 37 38 38 38 38 38 40 39 39 39 39 39 39 39 38 37 37 38 39 40 40 39 39 34 32 31 30 29 27 26 24 25 30

GFSMW_sfc_30mbdewp_120.txt.gz
Dewpoint
53 55 56 57 57 58 58 60 60 61 61 60 61 60 61 59 57 58 59 58 59 58 58 57 56 54 54 54 55 56 55 56 57 57 57 58 59 58 58 58 57 56 59
54 55 55 56 56 57 57 59 60 60 62 59 60 61 60 59 57 57 57 57 57 57 56 56 55 55 55 56 57 57 56 56 60 57 56 54 54 55 58 59 57 57 58
53 54 55 56 56 56 57 58 59 61 62 59 58 59 60 60 59 57 57 57 57 58 58 58 58 57 58 57 57 58 57 57 60 59 56 53 50 53 55 56 56 56 57
54 54 55 56 57 57 58 60 59 60 62 61 58 58 58 58 59 57 57 58 58 59 60 61 60 59 60 60 60 60 59 59 59 60 59 58 55 51 53 54 54 54 55
54 55 56 57 59 59 58 58 60 61 61 61 60 58 58 58 59 59 59 59 59 60 60 63 62 61 62 61 61 61 61 60 59 59 58 58 58 56 53 51 53 54 53
53 56 57 58 58 58 58 58 59 61 62 61 61 60 59 58 58 59 59 60 61 61 61 63 63 63 62 61 61 61 61 61 60 60 58 57 56 56 55 53 52 52 52
53 55 55 56 56 56 57 57 58 58 60 61 61 60 59 58 58 57 60 60 61 61 62 62 62 62 62 62 62 61 61 61 59 60 59 58 57 58 57 55 53 51 50
53 53 54 55 55 56 57 56 57 58 59 58 59 59 59 58 57 57 59 60 61 61 62 62 62 62 61 62 61 61 60 60 60 60 60 59 59 59 56 54 51 49 49
44 51 53 55 54 55 56 57 56 58 58 59 58 59 59 58 58 58 58 59 59 59 60 61 61 61 61 60 60 60 60 61 61 60 60 60 60 59 56 54 53 50 45
40 40 41 44 54 55 57 57 57 57 58 59 58 58 58 59 59 59 58 59 59 59 59 59 59 59 60 60 60 60 60 61 61 60 60 58 57 56 55 54 52 49 44
41 41 42 42 39 43 51 57 58 57 58 58 58 58 58 59 59 59 59 59 59 59 58 58 58 58 59 60 60 60 60 59 59 58 58 57 56 54 53 52 51 50 48
37 41 43 44 45 44 45 48 57 58 57 58 58 58 58 59 59 59 59 59 59 59 59 59 59 59 60 60 59 58 58 58 57 57 57 55 53 52 50 50 49 48 48
34 35 37 41 44 46 48 49 52 55 57 58 58 58 58 58 58 59 59 60 59 59 59 59 59 58 58 58 58 58 57 57 56 56 54 51 50 48 48 47 47 46 46
35 35 35 36 39 43 45 46 48 52 55 57 58 58 58 57 58 57 57 58 59 58 59 59 58 57 56 56 55 54 53 52 52 50 50 50 48 47 46 45 45 44 44
36 36 36 36 36 37 41 44 45 47 51 53 53 53 56 56 56 55 53 53 53 54 54 54 54 54 53 52 50 50 50 49 47 45 45 45 44 45 45 44 43 43 42
36 36 36 36 37 37 37 39 44 44 47 49 49 50 52 52 52 51 50 49 47 46 47 48 48 47 46 47 47 46 46 44 43 42 42 42 43 43 44 43 42 41 40
37 37 37 37 37 38 38 38 39 44 44 44 45 47 49 50 49 48 48 46 45 44 45 45 45 44 45 46 46 45 44 43 42 41 40 39 41 42 41 42 41 41 40
37 38 38 37 38 39 39 39 39 38 43 44 43 44 45 46 46 46 46 45 44 44 43 43 42 42 43 45 44 43 42 41 41 40 39 38 39 39 39 37 35 34 34
37 38 39 38 38 38 39 40 40 41 41 41 41 43 43 43 44 44 44 43 42 42 42 42 41 42 43 44 43 41 41 41 40 40 39 38 38 40 38 35 33 32 31
37 37 38 38 38 38 38 39 39 38 39 39 40 41 43 43 42 42 42 41 41 41 41 42 41 41 42 44 43 41 40 39 39 39 39 38 37 40 38 34 33 32 30
37 37 37 37 38 38 38 37 37 37 38 39 40 40 41 43 43 42 41 41 41 40 40 40 40 40 41 42 42 40 38 38 37 37 37 38 38 39 38 34 32 32 29
37 37 36 37 37 37 37 36 36 37 38 39 39 40 40 41 43 42 40 40 40 40 39 39 39 39 40 41 42 41 38 37 36 35 35 36 39 39 38 36 35 34 29
37 36 36 36 36 36 36 35 35 37 38 38 39 40 40 41 42 41 40 39 39 39 38 38 38 38 39 40 42 41 39 38 35 35 34 34 38 37 37 37 36 33 27
34 36 36 35 35 35 35 35 35 36 38 38 39 40 40 42 42 41 40 39 38 38 38 37 37 37 37 38 41 42 41 39 36 35 35 35 36 37 35 36 35 32 28
32 36 36 35 35 35 35 34 35 36 37 38 38 38 39 39 41 41 40 40 39 39 38 38 38 37 37 37 40 41 41 38 35 34 33 33 31 31 29 28 29 31 31
33 36 36 36 36 35 34 34 35 35 35 37 38 38 38 38 38 39 39 40 40 40 40 39 39 38 39 39 39 41 41 40 37 32 29 28 26 25 24 23 24 28 31

GFSMW_sfc_30mbdewp_123.txt.gz
Dewpoint
50 50 52 54 57 57 57 57 59 59 65 64 63 63 62 62 61 61 61 62 61 61 61 61 60 59 59 58 56 55 54 56 56 56 57 57 59 58 58 57 58 58 59
50 51 51 56 56 56 56 58 59 60 62 63 63 63 62 61 61 60 60 61 61 61 61 60 59 58 57 55 54 56 55 56 58 56 56 54 55 55 58 58 57 57 59
49 52 53 54 56 56 57 58 58 60 61 61 62 62 62 60 59 59 59 60 61 60 59 58 58 57 56 56 55 56 55 56 59 58 56 53 51 53 55 56 56 56 57
53 54 54 53 55 56 58 58 59 60 61 61 60 60 59 58 58 58 58 59 59 59 58 57 57 57 57 56 56 58 57 58 58 58 58 56 53 51 52 54 54 55 55
53 54 55 55 56 57 58 59 59 59 60 61 60 60 60 59 60 60 59 59 58 59 59 59 58 57 58 58 58 59 58 58 58 58 58 58 57 55 52 52 53 54 54
54 55 56 57 57 58 58 58 59 59 60 61 59 59 59 59 59 59 59 60 60 60 59 60 59 59 59 60 60 60 60 59 59 59 58 57 56 55 55 53 53 53 53
54 54 55 55 56 56 56 56 57 57 60 61 61 59 59 59 58 58 59 59 59 59 59 61 62 61 61 61 61 61 61 60 60 59 59 58 57 57 56 54 53 53 52
46 48 51 55 55 56 57 56 57 57 59 60 60 60 59 59 59 59 59 58 58 59 60 61 62 62 62 61 61 61 61 60 60 59 59 58 58 58 57 55 53 51 50
44 45 46 47 55 54 55 57 56 57 58 59 60 60 59 58 58 58 59 59 60 60 61 61 61 61 61 61 61 60 60 60 59 59 59 59 59 59 58 56 54 53 49
44 45 45 44 43 50 56 56 57 57 58 59 59 58 59 58 58 58 57 58 59 59 60 60 60 60 60 60 60 60 60 60 60 60 60 59 59 59 58 56 55 53 52
36 42 44 45 46 47 51 55 57 57 57 58 58 58 58 59 58 58 59 59 59 58 58 58 59 59 59 60 59 59 59 59 59 59 59 59 59 57 56 56 55 53 49
35 36 39 41 44 46 49 52 55 57 57 58 57 57 58 58 58 58 58 59 58 59 59 58 58 58 58 59 59 59 59 58 58 58 58 57 56 55 54 53 53 51 49
35 36 36 36 38 43 44 47 51 55 57 58 57 57 57 58 58 58 59 59 58 59 59 59 58 58 58 58 59 59 58 58 58 57 57 56 55 53 52 52 50 49 47
36 36 36 36 37 37 41 44 46 50 54 57 57 57 57 57 56 57 57 57 58 59 58 58 58 58 58 58 58 58 57 57 57 57 56 55 54 52 50 49 48 46 45
36 36 36 37 37 37 38 39 44 47 50 52 54 55 56 56 56 56 55 55 55 55 56 57 57 58 57 57 56 56 55 55 52 51 51 51 51 51 49 47 45 44 43
37 37 37 37 37 38 38 38 40 44 46 48 50 52 54 54 53 52 51 52 52 51 51 52 53 53 53 53 54 53 51 51 50 48 47 46 47 47 47 45 44 43 42
37 38 38 37 38 38 39 39 39 42 43 43 44 46 49 50 49 49 48 48 47 46 47 47 47 48 48 48 49 48 48 47 45 44 43 42 43 44 44 43 43 42 41
36 37 38 38 38 38 39 40 40 40 40 40 41 43 44 45 46 46 46 46 45 45 45 45 44 44 44 47 47 46 45 44 44 42 42 41 42 41 41 39 38 37 37
37 37 37 38 38 37 38 39 38 38 39 39 39 40 42 43 43 43 44 43 43 43 43 43 43 43 43 45 45 43 42 42 41 41 40 40 40 41 40 38 35 33 33
37 37 37 38 37 37 37 37 37 37 38 38 39 40 40 41 42 42 42 42 41 42 42 42 42 42 42 44 44 42 41 40 40 40 40 40 40 42 40 35 34 33 31
37 37 36 37 37 37 37 36 36 37 38 38 39 40 40 40 41 42 41 40 40 40 40 41 41 41 42 43 44 41 40 40 39 39 39 39 39 41 39 36 34 33 31
36 37 36 36 36 36 36 35 35 36 38 38 39 39 40 40 41 41 40 39 39 39 39 39 39 39 40 42 44 42 40 39 38 38 38 38 40 41 39 37 35 35 31
33 36 36 36 35 36 35 35 35 36 38 38 38 39 40 41 41 40 40 39 39 39 39 38 38 38 39 39 42 43 41 39 37 37 37 37 40 40 39 37 36 35 28
29 35 36 35 35 35 35 34 35 35 37 37 38 38 39 40 41 41 40 40 39 39 39 38 38 38 37 38 39 42 42 40 38 36 37 37 39 38 37 38 37 32 28
30 33 35 35 35 35 35 34 34 35 35 37 37 38 39 38 38 39 40 40 40 39 39 39 39 38 38 38 39 40 41 40 37 36 35 35 36 36 35 35 34 32 30
30 33 36 36 36 35 35 34 35 35 34 34 35 36 38 38 38 38 38 39 40 40 40 40 40 39 39 39 39 40 42 41 38 34 33 33 33 33 33 32 31 31 32

GFSMW_sfc_30mbdewp_126.txt.gz
Dewpoint
43 42 45 46 48 55 57 58 59 63 65 64 63 62 63 63 63 63 62 61 61 61 61 61 61 61 60 59 58 56 55 54 54 55 56 57 58 58 58 58 59 59 59
47 50 51 51 54 55 57 58 59 60 63 64 63 63 62 63 63 62 62 61 61 61 61 61 60 60 60 58 57 56 55 55 56 55 55 54 55 56 58 57 57 58 59
48 48 51 52 53 54 56 57 59 60 61 61 64 62 63 63 62 61 61 62 62 62 61 61 60 60 59 57 57 56 54 55 57 58 55 53 52 54 55 56 57 57 57
51 49 51 52 54 55 57 58 59 60 60 60 60 62 61 60 61 61 61 62 62 62 62 61 60 59 58 58 56 56 56 57 56 58 57 55 53 52 53 55 55 55 56
51 52 53 53 55 57 57 58 59 60 60 61 59 60 61 60 60 60 60 61 62 62 61 60 58 58 58 57 57 56 56 57 57 57 57 56 56 54 53 52 54 54 54
50 52 54 55 56 57 57 58 58 59 60 60 60 60 60 59 59 59 59 59 60 60 60 59 58 58 58 58 57 57 57 57 58 58 57 56 55 54 54 52 53 53 53
46 48 49 55 55 55 56 57 57 57 59 60 60 60 60 60 59 59 59 59 59 59 59 60 59 58 58 58 58 58 58 59 58 58 58 58 58 57 56 54 53 52 52
45 46 47 48 54 56 56 56 56 56 58 59 60 60 61 60 60 60 60 60 60 60 60 60 60 59 59 59 59 59 59 60 59 59 59 59 58 58 57 55 53 51 51
42 45 46 48 47 52 56 56 56 56 57 58 60 60 60 60 59 59 60 60 60 60 60 60 60 61 61 60 60 60 60 60 60 60 59 59 58 58 58 56 55 53 50
40 41 42 45 48 50 53 56 57 57 57 58 60 60 59 59 59 59 59 59 59 60 60 61 61 60 60 60 60 60 60 59 59 59 59 59 59 58 58 58 56 55 54
37 39 38 40 43 46 49 53 57 57 57 57 58 58 58 58 58 58 58 58 58 59 59 60 60 60 59 59 59 59 59 59 59 59 59 59 59 59 58 57 57 55 54
36 37 37 37 38 41 44 48 51 55 57 57 57 57 58 58 58 57 58 59 58 58 58 58 58 58 58 59 59 58 58 58 58 58 58 58 58 57 57 56 55 54 52
36 36 36 37 37 38 40 44 47 51 56 57 57 57 57 57 56 58 57 57 58 58 58 58 58 58 57 58 58 58 58 58 58 58 57 57 56 55 54 53 52 52 50
37 37 37 37 37 38 38 40 44 48 52 56 57 56 57 56 56 56 57 58 58 58 58 58 58 58 58 58 58 58 58 58 58 58 57 57 56 55 53 53 52 50 48
38 38 37 37 37 38 39 39 42 44 48 51 52 53 54 55 55 54 54 55 55 56 56 57 57 57 58 58 57 57 57 57 56 56 56 56 56 55 53 52 50 48 46
36 37 37 37 37 38 39 40 40 42 43 44 45 48 51 51 50 50 50 51 51 52 52 53 53 53 53 53 55 57 56 55 54 52 51 50 50 51 50 50 49 47 46
36 36 37 37 37 37 38 39 39 40 40 40 41 43 44 46 47 48 48 48 47 46 47 48 49 51 51 50 51 52 52 51 51 49 48 47 48 48 47 47 46 45 43
36 36 36 37 37 37 38 38 38 38 39 39 39 40 42 43 43 44 45 45 45 45 45 45 45 45 46 47 48 49 49 48 47 47 46 46 45 44 43 42 41 40 40
37 36 37 37 37 37 37 37 37 38 38 38 39 40 40 41 42 41 42 43 42 43 43 43 44 44 44 46 46 45 45 45 44 43 43 43 42 43 42 40 39 37 35
37 36 36 37 36 36 36 36 36 37 37 38 39 39 40 40 40 41 41 41 41 41 41 42 42 42 42 43 44 43 42 42 41 41 41 43 41 43 41 38 36 35 34
37 37 36 37 36 36 36 35 35 36 37 38 39 39 40 40 41 41 40 40 40 40 39 39 40 41 41 42 44 43 41 41 40 40 39 41 42 43 42 39 38 36 33
34 37 36 36 36 36 35 35 34 35 37 38 38 39 39 40 40 39 39 39 39 39 39 39 39 39 39 40 42 44 42 40 40 39 40 40 42 42 42 40 38 37 33
30 35 35 35 35 35 35 34 34 35 37 37 37 38 38 39 40 40 39 39 39 39 39 38 38 38 38 38 40 42 44 42 40 39 40 40 40 41 42 39 38 37 31
29 30 35 35 35 35 35 34 34 34 35 36 36 37 38 39 38 39 39 39 39 39 39 39 39 39 39 38 38 39 41 43 41 38 39 40 40 41 40 39 38 35 30
29 30 33 35 35 35 35 34 34 34 34 34 35 35 36 37 37 37 38 38 38 40 39 39 39 38 38 39 39 39 40 41 40 37 36 37 37 37 37 37 37 34 32
29 30 34 35 35 35 35 34 34 35 34 34 35 35 35 35 35 35 35 36 37 38 38 39 39 39 40 41 41 41 40 41 41 37 35 35 35 35 35 35 34 33 32